[[{"header":{"parameterUnit":"m.s-1","parameterCategory":1,"la1":30.6,"la2":28.766,"lo1":-90.7593,"lo2":-88.6598,"dy":0.0162,"dx":0.0183,"nx":116,"ny":114,"refTime":"2023-05-18T00:00:00:Z","depth":0,"parameterNumber":2,"parameterNumberName":"U-component_of_WINDS"},"data":[0.0,0.0,0.0,0.0,0.0,0.0,0.0,0.0,0.0,0.0,0.0,0.0,0.0,0.0,0.0,0.0,0.0,0.0,0.0,0.0,0.0,0.0,0.0,0.0,0.0,0.0,0.0,0.0,0.0,0.0,0.0,0.0,0.0,0.0,0.0,0.0,0.0,0.0,0.0,0.0,0.0,0.0,0.0,0.0,0.0,0.0,0.0,0.0,0.0,0.0,0.0,0.0,0.0,0.0,0.0,0.0,0.0,0.0,0.0,0.0,0.0,0.0,0.0,0.0,0.0,0.0,0.0,0.0,0.0,0.0,0.0,0.0,0.0,0.0,0.0,0.0,0.0,0.0,0.0,0.0,0.0,0.0,0.0,0.0,0.0,0.0,0.0,0.0,0.0,0.0,0.0,0.0,0.0,0.0,0.0,0.0,0.0,0.0,0.0,0.0,0.0,0.0,0.0,0.0,0.0,0.0,0.0,0.0,0.0,0.0,0.0,0.0,0.0,0.0,0.0,0.0,0.0,0.0,0.0,0.0,0.0,0.0,0.0,0.0,0.0,0.0,0.0,0.0,0.0,0.0,0.0,0.0,0.0,0.0,0.0,0.0,0.0,0.0,0.0,0.0,0.0,0.0,0.0,0.0,0.0,0.0,0.0,0.0,0.0,0.0,0.0,0.0,0.0,0.0,0.0,0.0,0.0,0.0,0.0,0.0,0.0,0.0,0.0,0.0,0.0,0.0,0.0,0.0,0.0,0.0,0.0,0.0,0.0,0.0,0.0,0.0,0.0,0.0,0.0,0.0,0.0,0.0,0.0,0.0,0.0,0.0,0.0,0.0,0.0,0.0,0.0,0.0,0.0,0.0,0.0,0.0,0.0,0.0,0.0,0.0,0.0,0.0,0.0,0.0,0.0,0.0,0.0,0.0,0.0,0.0,0.0,0.0,0.0,0.0,0.0,0.0,0.0,0.0,0.0,0.0,0.0,0.0,0.0,0.0,0.0,0.0,0.0,0.0,0.0,0.0,0.0,0.0,0.0,0.0,0.0,0.0,0.0,0.0,0.0,0.0,0.0,0.0,0.0,0.0,0.0,0.0,0.0,0.0,0.0,0.0,0.0,0.0,0.0,0.0,0.0,0.0,0.0,0.0,0.0,0.0,0.0,0.0,0.0,0.0,0.0,0.0,0.0,0.0,0.0,0.0,0.0,0.0,0.0,0.0,0.0,0.0,0.0,0.0,0.0,0.0,0.0,0.0,0.0,0.0,0.0,0.0,0.0,0.0,0.0,0.0,0.0,0.0,0.0,0.0,0.0,0.0,0.0,0.0,0.0,0.0,0.0,0.0,0.0,0.0,0.0,0.0,0.0,0.0,0.0,0.0,0.0,0.0,0.0,0.0,0.0,0.0,0.0,0.0,0.0,0.0,0.0,0.0,0.0,0.0,0.0,0.0,0.0,0.0,0.0,0.0,0.0,0.0,0.0,0.0,0.0,0.0,0.0,0.0,0.0,0.0,0.0,0.0,0.0,0.0,0.0,0.0,0.0,0.0,0.0,0.0,0.0,0.0,0.0,0.0,0.0,0.0,0.0,0.0,0.0,0.0,0.0,0.0,0.0,0.0,0.0,0.0,0.0,0.0,0.0,0.0,0.0,0.0,0.0,0.0,0.0,0.0,0.0,0.0,0.0,0.0,0.0,0.0,0.0,0.0,0.0,0.0,0.0,0.0,0.0,0.0,0.0,0.0,0.0,0.0,0.0,0.0,0.0,0.0,0.0,0.0,0.0,0.0,0.0,0.0,0.0,0.0,0.0,0.0,0.0,0.0,0.0,0.0,0.0,0.0,0.0,0.0,0.0,0.0,0.0,0.0,0.0,0.0,0.0,0.0,0.0,0.0,0.0,0.0,0.0,0.0,0.0,0.0,0.0,0.0,0.0,0.0,0.0,0.0,0.0,0.0,0.0,0.0,0.0,0.0,0.0,0.0,0.0,0.0,0.0,0.0,0.0,0.0,0.0,0.0,0.0,0.0,0.0,0.0,0.0,0.0,0.0,0.0,0.0,0.0,0.0,0.0,0.0,0.0,0.0,0.0,0.0,0.0,0.0,0.0,0.0,0.0,0.0,0.0,0.0,0.0,0.0,0.0,0.0,0.0,0.0,0.0,0.0,0.0,0.0,0.0,0.0,0.0,0.0,0.0,0.0,0.0,0.0,0.0,0.0,0.0,0.0,0.0,0.0,0.0,0.0,0.0,0.0,0.0,0.0,0.0,0.0,0.0,0.0,0.0,0.0,0.0,0.0,0.0,0.0,0.0,0.0,0.0,0.0,0.0,0.0,0.0,0.0,0.0,0.0,0.0,0.0,0.0,0.0,0.0,0.0,0.0,0.0,0.0,0.0,0.0,0.0,0.0,0.0,0.0,0.0,0.0,0.0,0.0,0.0,0.0,0.0,0.0,0.0,0.0,0.0,0.0,0.0,0.0,0.0,0.0,0.0,0.0,0.0,0.0,0.0,0.0,0.0,0.0,0.0,0.0,0.0,0.0,0.0,0.0,0.0,0.0,0.0,0.0,0.0,0.0,0.0,0.0,0.0,0.0,0.0,0.0,0.0,0.0,0.0,0.0,0.0,0.0,0.0,0.0,0.0,0.0,0.0,0.0,0.0,0.0,0.0,0.0,0.0,0.0,0.0,0.0,0.0,0.0,0.0,0.0,0.0,0.0,0.0,0.0,0.0,0.0,0.0,0.0,0.0,0.0,0.0,0.0,0.0,0.0,0.0,0.0,0.0,0.0,0.0,0.0,0.0,0.0,0.0,0.0,0.0,0.0,0.0,0.0,0.0,0.0,0.0,0.0,0.0,0.0,0.0,0.0,0.0,0.0,0.0,0.0,0.0,0.0,0.0,0.0,0.0,0.0,0.0,0.0,0.0,0.0,0.0,0.0,0.0,0.0,0.0,0.0,0.0,0.0,0.0,0.0,0.0,0.0,0.0,0.0,0.0,0.0,0.0,0.0,0.0,0.0,0.0,0.0,0.0,0.0,0.0,0.0,0.0,0.0,0.0,0.0,0.0,0.0,0.0,0.0,0.0,0.0,0.0,0.0,0.0,0.0,0.0,0.0,0.0,0.0,0.0,0.0,0.0,0.0,0.0,0.0,0.0,0.0,0.0,0.0,0.0,0.0,0.0,0.0,0.0,0.0,0.0,0.0,0.0,0.0,0.0,0.0,0.0,0.0,0.0,0.0,0.0,0.0,0.0,0.0,0.0,0.0,0.0,0.0,0.0,0.0,0.0,0.0,0.0,0.0,0.0,0.0,0.0,0.0,0.0,0.0,0.0,0.0,0.0,0.0,0.0,0.0,0.0,0.0,0.0,0.0,0.0,0.0,0.0,0.0,0.0,0.0,0.0,0.0,0.0,0.0,0.0,0.0,0.0,0.0,0.0,0.0,0.0,0.0,0.0,0.0,0.0,0.0,0.0,0.0,0.0,0.0,0.0,0.0,0.0,0.0,0.0,0.0,0.0,0.0,0.0,0.0,0.0,0.0,0.0,0.0,0.0,0.0,0.0,0.0,0.0,0.0,0.0,0.0,0.0,0.0,0.0,0.0,0.0,0.0,0.0,0.0,0.0,0.0,0.0,0.0,0.0,0.0,0.0,0.0,0.0,0.0,0.0,0.0,0.0,0.0,0.0,0.0,0.0,0.0,0.0,0.0,0.0,0.0,0.0,0.0,0.0,0.0,0.0,0.0,0.0,0.0,0.0,0.0,0.0,0.0,0.0,0.0,0.0,0.0,0.0,0.0,0.0,0.0,0.0,0.0,0.0,0.0,0.0,0.0,0.0,0.0,0.0,0.0,0.0,0.0,0.0,0.0,0.0,0.0,0.0,0.0,0.0,0.0,0.0,0.0,0.0,0.0,0.0,0.0,0.0,0.0,0.0,0.0,0.0,0.0,0.0,0.0,0.0,0.0,0.0,0.0,0.0,0.0,0.0,0.0,0.0,0.0,0.0,0.0,0.0,0.0,0.0,0.0,0.0,0.0,0.0,0.0,0.0,0.0,0.0,0.0,0.0,0.0,0.0,0.0,0.0,0.0,0.0,0.0,0.0,0.0,0.0,0.0,0.0,0.0,0.0,0.0,0.0,0.0,0.0,0.0,0.0,0.0,0.0,0.0,0.0,0.0,0.0,0.0,0.0,0.0,0.0,0.0,0.0,0.0,0.0,0.0,0.0,0.0,0.0,0.0,0.0,0.0,0.0,0.0,0.0,0.0,0.0,0.0,0.0,0.0,0.0,0.0,0.0,0.0,0.0,0.0,0.0,0.0,0.0,0.0,0.0,0.0,0.0,0.0,0.0,0.0,0.0,0.0,0.0,0.0,0.0,0.0,0.0,0.0,0.0,0.0,0.0,0.0,0.0,0.0,0.0,0.0,0.0,0.0,0.0,0.0,0.0,0.0,0.0,0.0,0.0,0.0,0.0,0.0,0.0,0.0,0.0,0.0,0.0,0.0,0.0,0.0,0.0,0.0,0.0,0.0,0.0,0.0,0.0,0.0,0.0,0.0,0.0,0.0,0.0,0.0,0.0,0.0,0.0,0.0,0.0,0.0,0.0,0.0,0.0,0.0,0.0,0.0,0.0,0.0,0.0,0.0,0.0,0.0,0.0,0.0,0.0,0.0,0.0,0.0,0.0,0.0,0.0,0.0,0.0,0.0,0.0,0.0,0.0,0.0,0.0,0.0,0.0,0.0,0.0,0.0,0.0,0.0,0.0,0.0,0.0,0.0,0.0,0.0,0.0,0.0,0.0,0.0,0.0,0.0,0.0,0.0,0.0,0.0,0.0,0.0,0.0,0.0,0.0,0.0,0.0,0.0,0.0,0.0,0.0,0.0,0.0,0.0,0.0,0.0,0.0,0.0,0.0,0.0,0.0,0.0,0.0,0.0,0.0,0.0,0.0,0.0,0.0,0.0,0.0,0.0,0.0,0.0,0.0,0.0,0.0,0.0,0.0,0.0,0.0,0.0,0.0,0.0,0.0,0.0,0.0,0.0,0.0,0.0,0.0,0.0,0.0,0.0,0.0,0.0,0.0,0.0,0.0,0.0,0.0,0.0,0.0,0.0,0.0,0.0,0.0,0.0,0.0,0.0,0.0,0.0,0.0,0.0,0.0,0.0,0.0,0.0,0.0,0.0,0.0,0.0,0.0,0.0,0.0,0.0,0.0,0.0,0.0,0.0,0.0,0.0,0.0,0.0,0.0,0.0,0.0,0.0,0.0,0.0,0.0,0.0,0.0,0.0,0.0,0.0,0.0,0.0,0.0,0.0,0.0,0.0,0.0,0.0,0.0,0.0,0.0,0.0,0.0,0.0,0.0,0.0,0.0,0.0,0.0,0.0,0.0,0.0,0.0,0.0,0.0,0.0,0.0,0.0,0.0,0.0,0.0,0.0,0.0,0.0,0.0,0.0,0.0,0.0,0.0,0.0,0.0,0.0,0.0,0.0,0.0,0.0,0.0,0.0,0.0,0.0,0.0,0.0,0.0,0.0,0.0,0.0,0.0,0.0,0.0,0.0,0.0,0.0,0.0,0.0,0.0,0.0,0.0,0.0,0.0,0.0,0.0,0.0,0.0,0.0,0.0,0.0,0.0,0.0,0.0,0.0,0.0,0.0,0.0,0.0,0.0,0.0,0.0,0.0,0.0,0.0,0.0,0.0,0.0,0.0,0.0,0.0,0.0,0.0,0.0,0.0,0.0,0.0,0.0,0.0,0.0,0.0,0.0,0.0,0.0,0.0,0.0,0.0,0.0,0.0,0.0,0.0,0.0,0.0,0.0,0.0,0.0,0.0,0.0,0.0,0.0,0.0,0.0,0.0,0.0,0.0,0.0,0.0,0.0,0.0,0.0,0.0,0.0,0.0,0.0,0.0,0.0,0.0,0.0,0.0,0.0,0.0,0.0,0.0,0.0,0.0,0.0,0.0,0.0,0.0,0.0,0.0,0.0,0.0,0.0,0.0,0.0,0.0,0.0,0.0,0.0,0.0,0.0,0.0,0.0,0.0,0.0,0.0,0.0,0.0,0.0,0.0,0.0,0.0,0.0,0.0,0.0,0.0,0.0,0.0,-2.6745,-2.6499,0.0,0.0,0.0,0.0,0.0,0.0,0.0,0.0,0.0,0.0,0.0,0.0,0.0,0.0,0.0,0.0,0.0,0.0,0.0,0.0,0.0,0.0,0.0,0.0,0.0,0.0,0.0,0.0,0.0,0.0,0.0,0.0,0.0,0.0,0.0,0.0,0.0,0.0,0.0,0.0,0.0,0.0,0.0,0.0,0.0,0.0,0.0,0.0,0.0,0.0,0.0,0.0,0.0,0.0,0.0,0.0,0.0,0.0,0.0,0.0,0.0,0.0,0.0,0.0,0.0,0.0,0.0,0.0,0.0,0.0,0.0,0.0,0.0,0.0,0.0,0.0,0.0,0.0,0.0,0.0,0.0,0.0,0.0,0.0,0.0,0.0,0.0,0.0,0.0,0.0,0.0,0.0,0.0,0.0,0.0,0.0,0.0,0.0,0.0,0.0,0.0,0.0,0.0,0.0,0.0,0.0,0.0,0.0,0.0,0.0,0.0,0.0,0.0,0.0,-2.7096,-2.7101,0.0,0.0,0.0,0.0,0.0,0.0,0.0,0.0,0.0,0.0,0.0,0.0,0.0,0.0,0.0,0.0,0.0,0.0,0.0,0.0,0.0,0.0,0.0,0.0,0.0,0.0,0.0,0.0,0.0,0.0,0.0,0.0,0.0,0.0,0.0,0.0,0.0,0.0,0.0,0.0,0.0,0.0,0.0,0.0,0.0,0.0,0.0,0.0,0.0,0.0,0.0,0.0,0.0,0.0,0.0,0.0,0.0,0.0,0.0,0.0,0.0,0.0,0.0,0.0,0.0,0.0,0.0,0.0,0.0,0.0,0.0,0.0,0.0,0.0,0.0,0.0,0.0,0.0,0.0,0.0,0.0,0.0,0.0,0.0,0.0,0.0,0.0,0.0,0.0,0.0,0.0,0.0,0.0,0.0,0.0,0.0,0.0,0.0,0.0,0.0,0.0,0.0,0.0,0.0,0.0,0.0,0.0,0.0,-3.0201,-2.9681,-2.8671,-2.9643,-2.9148,-2.7453,-2.6763,-2.7109,-2.8049,-2.6895,0.0,0.0,0.0,0.0,0.0,0.0,0.0,0.0,0.0,0.0,0.0,0.0,0.0,0.0,0.0,0.0,0.0,0.0,0.0,0.0,0.0,0.0,0.0,0.0,0.0,0.0,0.0,0.0,0.0,0.0,0.0,0.0,0.0,0.0,0.0,0.0,0.0,0.0,-2.0592,-2.0881,-1.9729,-1.7369,-1.6224,0.0,0.0,0.0,0.0,0.0,0.0,0.0,0.0,0.0,0.0,0.0,0.0,0.0,0.0,0.0,0.0,0.0,0.0,0.0,0.0,0.0,0.0,0.0,0.0,0.0,0.0,0.0,0.0,0.0,0.0,0.0,0.0,0.0,0.0,0.0,0.0,0.0,0.0,0.0,0.0,0.0,0.0,0.0,-2.3514,-2.3638,0.0,0.0,0.0,0.0,0.0,0.0,0.0,0.0,0.0,0.0,0.0,0.0,0.0,-3.0338,-2.9823,-3.0863,-3.131,-3.1198,-3.1716,-3.1417,-3.0342,-2.9663,-2.8639,-2.7408,-2.6943,0.0,-2.7852,-2.6578,0.0,0.0,0.0,0.0,0.0,0.0,0.0,0.0,0.0,0.0,0.0,0.0,0.0,0.0,0.0,0.0,0.0,0.0,0.0,0.0,0.0,0.0,0.0,0.0,0.0,0.0,0.0,0.0,0.0,0.0,0.0,0.0,0.0,0.0,0.0,0.0,-2.1999,-2.3256,-2.3244,-2.3149,-2.2172,-2.0415,-1.8998,-1.7076,-1.471,-1.3388,0.0,0.0,0.0,0.0,0.0,0.0,0.0,0.0,0.0,0.0,0.0,0.0,0.0,0.0,0.0,0.0,0.0,0.0,0.0,0.0,0.0,0.0,0.0,0.0,0.0,0.0,0.0,0.0,0.0,0.0,0.0,0.0,0.0,0.0,0.0,0.0,0.0,0.0,0.0,-2.2808,-2.4102,-2.3995,-2.4072,-2.3916,0.0,0.0,0.0,0.0,0.0,0.0,0.0,0.0,0.0,-3.0611,-3.1233,-3.1751,-3.2156,-3.2281,-3.2223,-3.1891,-3.2165,-3.1614,-3.0356,-2.9753,-2.8812,-2.7635,-2.6793,-2.6438,-2.642,-2.6377,-2.7036,-2.8042,0.0,0.0,0.0,0.0,-2.8415,-2.8183,0.0,0.0,0.0,0.0,0.0,0.0,0.0,0.0,0.0,0.0,0.0,0.0,0.0,0.0,0.0,-1.2544,0.0,0.0,0.0,0.0,0.0,0.0,0.0,0.0,0.0,0.0,0.0,-2.2854,-2.3968,-2.467,-2.493,-2.462,-2.3466,-2.1621,-2.0378,-1.8238,-1.554,-1.4116,-1.3018,0.0,0.0,0.0,0.0,0.0,0.0,0.0,0.0,0.0,0.0,0.0,0.0,0.0,0.0,0.0,0.0,0.0,0.0,0.0,0.0,0.0,0.0,0.0,0.0,0.0,0.0,0.0,0.0,0.0,0.0,0.0,0.0,0.0,0.0,0.0,0.0,0.0,0.0,-2.4805,-2.5465,-2.4839,-2.5534,-2.5742,0.0,0.0,0.0,0.0,0.0,0.0,-2.9851,-3.017,-3.0921,-3.2216,-3.2398,-3.2906,-3.385,-3.328,-3.2802,-3.2394,-3.2336,-3.1576,-3.0169,-2.9916,-2.9076,-2.7707,-2.6846,-2.6113,-2.56,-2.6013,-2.6764,-2.7574,-2.7573,-2.7535,-2.762,-2.8598,-2.8662,-2.839,0.0,0.0,0.0,0.0,0.0,0.0,0.0,0.0,0.0,0.0,0.0,0.0,0.0,0.0,-1.3775,-1.52,-1.4279,-1.2697,0.0,0.0,0.0,0.0,0.0,0.0,0.0,0.0,0.0,-2.4111,-2.5116,-2.505,-2.3981,-2.4079,-2.2573,-1.9733,-1.9248,-1.8209,-1.6721,-1.513,-1.3645,-1.2383,0.0,0.0,0.0,0.0,0.0,0.0,0.0,0.0,0.0,0.0,0.0,0.0,0.0,0.0,0.0,0.0,0.0,0.0,0.0,0.0,0.0,0.0,0.0,0.0,0.0,0.0,0.0,0.0,0.0,0.0,0.0,0.0,0.0,0.0,0.0,0.0,0.0,0.0,0.0,-2.7323,-3.0153,0.0,0.0,0.0,0.0,-2.8355,-2.8367,-2.8762,-2.9668,-3.0849,-3.1969,-3.2906,-3.3437,-3.3661,-3.352,-3.3484,-3.3196,-3.2681,-3.25,-3.1672,-3.0381,-3.0182,-2.912,-2.7412,-2.7338,-2.692,-2.6207,-2.5471,-2.4926,-2.4585,-2.5045,-2.5278,-2.5317,-2.5909,-2.6256,-2.6434,0.0,0.0,0.0,0.0,0.0,0.0,0.0,0.0,0.0,0.0,0.0,0.0,0.0,-1.4759,-1.7589,-1.733,-1.7478,-1.6062,-1.2458,0.0,0.0,0.0,0.0,0.0,0.0,0.0,-2.3556,-2.406,-2.5113,-2.4973,-2.3694,-2.3194,-2.1527,-1.8904,-1.7539,-1.61,-1.4676,-1.3885,-1.2782,-1.1591,-1.1446,-1.1217,0.0,0.0,0.0,0.0,0.0,0.0,0.0,0.0,0.0,0.0,0.0,0.0,0.0,0.0,0.0,0.0,0.0,0.0,0.0,0.0,0.0,0.0,0.0,0.0,0.0,0.0,0.0,0.0,0.0,0.0,0.0,0.0,0.0,0.0,0.0,0.0,0.0,-2.8393,-3.0001,0.0,-2.9427,-2.9832,-3.0207,-3.0365,-3.1333,-3.2001,-3.226,-3.2698,-3.3125,-3.3504,-3.3075,-3.2803,-3.2738,-3.2549,-3.2014,-3.1101,-3.1976,-3.1585,-3.0044,-2.9311,-2.8388,-2.7221,-2.6097,-2.5306,-2.478,-2.4502,-2.4852,-2.5549,-2.5299,-2.5352,-2.5595,-2.643,-2.6737,-2.6842,0.0,0.0,0.0,0.0,0.0,0.0,0.0,0.0,0.0,0.0,0.0,-0.8322,-1.2656,-1.7579,-2.0214,-1.9354,-1.9104,-1.7286,-1.3183,0.0,0.0,0.0,0.0,0.0,0.0,-2.2319,-2.4118,-2.451,-2.4905,-2.4436,-2.3168,-2.1686,-1.975,-1.7395,-1.5414,-1.3678,-1.2117,-1.1679,-1.1351,-1.1085,-1.1042,-1.1001,-1.0936,0.0,0.0,0.0,0.0,0.0,0.0,0.0,0.0,0.0,0.0,0.0,0.0,0.0,0.0,0.0,0.0,0.0,0.0,0.0,0.0,0.0,0.0,0.0,0.0,0.0,0.0,0.0,0.0,0.0,0.0,0.0,0.0,0.0,0.0,-2.7896,-2.913,-2.8554,-3.0292,-3.1237,-3.0427,-3.1142,-3.1675,-3.1765,-3.2672,-3.3195,-3.3084,-3.3084,-3.3093,-3.3149,-3.2274,-3.1745,-3.1585,-3.1661,-3.1107,-2.9972,-3.1165,-3.0902,-2.9331,-2.86,-2.7761,-2.6812,-2.5664,-2.4937,-2.4504,-2.4277,-2.4788,-2.5651,-2.5096,-2.4964,-2.5195,-2.601,-2.6334,-2.6482,0.0,0.0,0.0,0.0,0.0,0.0,0.0,0.0,0.0,0.0,-0.5343,-0.9669,-1.515,-1.9307,-2.149,-2.0996,-1.8926,-1.6082,-1.2314,-0.9775,0.0,0.0,0.0,0.0,-2.2408,-2.3478,-2.4451,-2.5455,-2.4486,-2.3408,-2.2204,-1.9584,-1.7215,-1.5065,-1.2919,-1.0985,-0.934,-0.8691,-0.9308,-1.0753,-1.1253,-1.1243,-1.11,0.0,0.0,0.0,0.0,0.0,0.0,0.0,0.0,0.0,0.0,0.0,0.0,0.0,0.0,0.0,0.0,0.0,0.0,0.0,0.0,0.0,0.0,0.0,0.0,0.0,0.0,0.0,0.0,0.0,0.0,0.0,0.0,0.0,-2.7291,-2.9079,-2.9746,-2.8029,-3.146,-3.3204,-3.1273,-3.222,-3.2791,-3.2365,-3.2083,-3.1918,-3.1882,-3.1894,-3.1876,-3.1887,-3.1132,-3.0545,-3.0159,-3.085,-3.062,-2.9403,-3.0053,-2.96,-2.8224,-2.8024,-2.7352,-2.6258,-2.6227,-2.5956,-2.5495,-2.4821,-2.4552,-2.4537,-2.4154,-2.3982,-2.4024,-2.4426,-2.4775,-2.5098,0.0,0.0,0.0,0.0,0.0,0.0,0.0,0.0,0.0,0.0,-0.4055,-0.8359,-1.1886,-1.7964,-2.0089,-1.5908,-1.624,-1.4034,-0.7772,0.0,0.0,0.0,0.0,0.0,-2.2616,-2.3046,-2.3605,-2.441,-2.2792,-2.0941,-1.8871,-1.6648,-1.4151,-1.1503,-0.9502,-0.8066,-0.7151,-0.6376,-0.6413,-0.7211,-0.893,-0.9489,-0.9467,0.0,0.0,0.0,0.0,0.0,0.0,0.0,0.0,0.0,0.0,0.0,0.0,0.0,0.0,0.0,0.0,0.0,0.0,0.0,0.0,0.0,0.0,0.0,0.0,0.0,0.0,0.0,0.0,0.0,0.0,0.0,-2.6279,-2.7043,-2.7824,-2.9102,-3.007,-3.0356,-3.2007,-3.3106,-3.3037,-3.3747,-3.3864,-3.3081,-3.2865,-3.245,-3.1711,-3.1676,-3.1482,-3.1096,-3.0181,-2.9597,-2.9342,-2.9355,-2.8657,-2.7335,-2.8621,-2.8344,-2.6687,-2.672,-2.6204,-2.5316,-2.4828,-2.447,-2.4148,-2.3954,-2.3879,-2.3864,-2.3756,-2.3653,-2.3595,-2.4009,-2.4141,-2.4214,0.0,0.0,0.0,0.0,0.0,0.0,0.0,0.0,0.0,0.0,-0.1771,-0.4585,-0.5603,-1.0947,-1.2689,-0.8222,-0.8596,-0.7591,-0.4069,0.0,0.0,0.0,0.0,-1.9021,-2.2725,-2.3144,-2.3104,-2.2666,-2.11,-1.8825,-1.593,-1.413,-1.1952,-0.9479,-0.6814,-0.5288,-0.4612,-0.3925,-0.3732,-0.41,-0.6258,-0.7367,-0.7919,-0.9392,-1.0052,-1.0226,-1.1033,-1.2131,-1.307,-1.2492,0.0,0.0,0.0,0.0,0.0,0.0,0.0,0.0,0.0,0.0,0.0,0.0,0.0,0.0,0.0,0.0,0.0,0.0,0.0,0.0,0.0,0.0,0.0,0.0,-2.7267,-2.771,-2.8072,-2.9041,-2.9988,-3.0691,-3.1631,-3.2355,-3.2724,-3.3479,-3.3636,-3.2871,-3.2583,-3.2157,-3.1458,-3.0822,-3.0348,-3.0,-2.906,-2.8446,-2.8259,-2.834,-2.779,-2.6607,-2.7805,-2.7504,-2.5846,-2.5901,-2.5422,-2.4544,-2.4149,-2.3839,-2.3595,-2.3595,-2.3595,-2.361,0.0,0.0,0.0,0.0,-2.3243,-2.3312,0.0,0.0,0.0,0.0,0.0,0.0,0.0,0.0,0.0,0.0,0.0,0.06,0.2093,-0.1394,-0.2665,0.0284,0.0765,0.0399,0.0,0.0,0.0,-1.0457,-1.5381,-1.9528,-2.2653,-2.2961,-2.2173,-2.0285,-1.8771,-1.6257,-1.2803,-1.1214,-0.9525,-0.7584,-0.4226,-0.2391,-0.1874,-0.1365,-0.1117,-0.1272,-0.3261,-0.4962,-0.6397,-0.7752,-0.8248,-0.83,-0.9195,-1.0191,-1.1134,-1.1172,0.0,0.0,0.0,0.0,0.0,0.0,0.0,0.0,0.0,0.0,0.0,0.0,0.0,0.0,0.0,0.0,0.0,0.0,0.0,0.0,0.0,0.0,0.0,0.0,-2.8569,-2.8658,-2.8083,-2.8951,-2.969,-2.979,-3.0769,-3.1396,-3.1321,-3.2255,-3.2604,-3.2064,-3.1697,-3.1342,-3.0997,-2.965,0.0,0.0,0.0,-2.7404,-2.7181,-2.7706,-2.7505,-2.664,-2.7229,-2.677,-2.5351,-2.5351,-2.4823,-2.394,-2.394,-2.3839,-2.3595,-2.3595,-2.3551,-2.3465,-2.3157,-2.3038,-2.2951,-2.2178,-2.2159,-2.2353,0.0,0.0,0.0,0.0,0.0,0.0,0.0,0.0,0.0,0.8054,0.5708,0.4673,0.6687,0.2124,0.0414,0.4091,0.2311,0.148,0.0,0.0,-0.5739,-0.9654,-1.3781,-1.7975,-2.2226,-1.9594,-1.7823,-1.7082,-1.3296,-1.0053,-0.734,-0.4882,-0.3025,-0.1756,0.0132,0.0982,0.1025,0.1431,0.1495,0.1259,0.0221,-0.1811,-0.4455,-0.6406,-0.7139,-0.7262,-0.8357,-0.9629,-1.0751,-1.004,-1.0583,-1.1548,-1.1264,-1.1153,0.0,0.0,0.0,0.0,0.0,0.0,0.0,0.0,0.0,0.0,0.0,0.0,0.0,0.0,0.0,0.0,0.0,0.0,0.0,-2.8379,-2.8857,-2.8901,-2.826,-2.9134,-2.9704,-2.9294,-3.0665,-3.1587,-3.1465,-3.2101,-3.222,-3.1574,-3.1211,-3.0596,-2.9627,-2.9145,-2.8553,-2.7801,-2.7596,-2.7341,-2.704,-2.7144,-2.6826,-2.6063,-2.5963,0.0,-2.4533,-2.4369,-2.4078,-2.3696,-2.3696,-2.3653,-2.3595,-2.3595,-2.3231,-2.2694,-2.2649,-2.2603,-2.2532,-2.1617,-2.1197,-2.1007,0.0,0.0,0.0,0.0,0.0,0.0,0.0,0.0,0.0,0.0,0.8065,0.8203,1.2315,0.8889,0.7391,1.0071,0.7154,0.0,0.0,0.3406,-0.0565,-0.308,-0.6216,-0.9463,-1.2819,-1.0293,-0.8559,-0.7802,-0.5348,-0.3185,-0.1322,0.0128,0.1548,0.2988,0.4815,0.5538,0.5304,0.4948,0.4591,0.412,0.3395,0.1937,-0.0113,-0.3631,-0.4972,-0.5188,-0.684,-0.7926,-0.8484,-0.7805,-0.8628,-0.9894,-0.9749,-0.9944,-1.0257,0.0,0.0,0.0,0.0,0.0,0.0,0.0,0.0,0.0,0.0,0.0,0.0,0.0,0.0,-2.7248,-2.7245,0.0,-2.8311,-2.8687,-2.8793,-2.8449,-2.7396,-2.7978,-2.8635,-2.9009,-3.0261,-3.1055,-3.0961,-3.1468,-3.1506,-3.0751,-3.0462,-2.9916,-2.9077,-2.8526,-2.7989,-2.7496,-2.7341,-2.7169,-2.7007,-2.7097,-2.6803,-2.6099,-2.6155,-2.5589,-2.4502,-2.4095,-2.3799,-2.358,-2.3266,-2.3131,-2.3131,-2.2946,-2.2599,-2.2249,-2.2249,-2.2109,-2.1852,-2.107,-2.0612,-2.0302,0.0,0.0,0.0,0.0,0.0,0.0,0.0,0.0,0.0,0.0,0.9698,1.1065,1.6378,1.4882,1.3838,0.0,0.0,0.0,0.0,0.7976,0.4841,0.3892,0.1594,-0.0672,-0.2794,-0.0976,0.0509,0.1552,0.2467,0.356,0.4711,0.4983,0.5839,0.7225,0.9074,0.9755,0.9411,0.8469,0.7708,0.7078,0.6453,0.5668,0.4464,0.0394,-0.1461,-0.2181,-0.4261,-0.5068,-0.5142,-0.481,-0.577,-0.7312,-0.7765,-0.8359,-0.892,-0.917,-0.9547,0.0,0.0,0.0,0.0,0.0,0.0,0.0,0.0,-2.5426,-2.6138,-2.6724,-2.8039,-2.905,-2.8903,-2.9236,-2.943,-2.9174,-2.8732,-2.789,-2.6389,-2.6627,-2.7233,-2.803,-2.9276,-3.0049,-2.999,-3.0509,-3.0546,-2.9839,-2.9605,-2.9296,-2.8847,-2.7979,-2.7496,-2.7434,-2.7152,-2.6942,-2.6859,-2.7021,-2.677,-2.6118,-2.6384,-2.5821,-2.4576,-2.3897,-2.3538,-2.3385,-2.2757,-2.2488,-2.239,-2.1999,-2.177,-2.1648,-2.168,-2.1464,-2.103,-2.0495,-2.012,-1.9778,0.0,0.0,0.0,0.0,0.0,0.0,0.0,0.0,0.0,0.0,0.0,0.0,0.0,0.0,0.0,0.0,0.0,0.0,1.206,0.9714,0.7684,0.6272,0.4072,0.1934,-0.009,0.2557,0.4286,0.4939,0.7498,0.9238,1.0136,1.0957,1.1323,1.1355,1.183,1.1895,1.1524,1.1159,1.0542,0.9721,0.9445,0.8546,0.7289,0.6255,0.4353,0.204,0.0599,-0.0364,-0.0973,-0.0913,-0.1705,-0.293,-0.4457,-0.5521,-0.6428,-0.7599,-0.8572,-0.9302,-0.9199,-1.2173,-1.6759,-2.3014,-2.4153,-2.5463,0.0,-3.2422,-3.1518,-3.2823,-3.3403,-3.3393,-3.2502,-3.1819,-3.1073,-3.0115,-2.9121,-2.7845,-2.6018,-2.613,-2.6041,-2.5101,-2.7097,-2.8549,-2.8536,-2.9176,-2.9436,-2.9067,-2.8888,-2.8699,-2.8488,-2.7859,-2.7434,-2.7244,-2.7087,-2.6792,-2.6365,-2.6414,-2.6129,-2.5492,-2.5123,-2.4726,-2.4313,-2.3284,-2.2795,-2.2742,-2.2084,-2.1624,-2.1325,-2.1008,-2.067,-2.0436,-2.0603,-2.0324,-1.9876,-1.9822,-1.9445,-1.8862,0.0,0.0,0.0,0.0,0.0,0.0,0.0,0.0,0.0,0.0,0.0,0.0,0.0,0.0,0.0,0.0,0.0,0.0,1.533,1.4928,1.4089,1.2881,1.3058,1.2345,1.0517,1.3007,1.4367,1.4451,1.5639,1.5918,1.5303,1.5333,1.5138,1.4871,1.4725,1.4433,1.4049,1.395,1.3292,1.2292,1.2177,1.1403,1.0282,0.9736,0.8703,0.7261,0.4923,0.3886,0.0,0.0,0.1933,0.0823,-0.0118,-0.1546,-0.306,-0.4082,-0.5492,-0.7431,-1.0608,-1.4313,-1.8493,-2.3384,-2.5648,-2.7683,-3.1477,-3.2235,-3.2288,-3.2913,-3.3102,-3.2798,-3.1744,-3.0482,-2.9245,-2.8125,-2.7132,-2.6024,-2.4619,-2.4369,-2.4246,-2.4058,-2.5211,-2.6421,-2.7398,-2.8217,-2.8645,-2.8492,-2.8453,-2.829,-2.8,-2.7582,-2.723,-2.6971,-2.6742,-2.64,-2.6063,-2.629,-2.6048,-2.5394,-2.5305,-2.4745,-2.3702,-2.2707,-2.2009,-2.1515,-2.1246,-2.1045,-2.0864,-2.0325,-2.0021,-1.9921,-1.9989,-1.9686,-1.9239,-1.9931,-1.9591,-1.8765,0.0,0.0,0.0,0.0,0.0,0.0,0.0,0.0,0.0,0.0,0.0,0.0,0.0,0.0,0.0,0.0,0.0,0.0,0.0,1.8573,1.8791,1.7994,1.9738,2.0164,1.8983,2.0702,2.1568,2.1429,2.1489,2.0736,1.9314,1.8746,1.8271,1.7953,1.7718,1.734,1.6896,1.7096,1.63,1.4926,1.505,1.4266,1.3007,1.2455,1.1932,1.1154,0.8193,0.7078,0.0,0.0,0.486,0.3825,0.3651,0.2322,0.0444,-0.095,-0.3547,-0.7008,-1.1563,-1.5423,-1.9091,-2.2778,-2.573,-2.8159,-2.9765,-3.1176,-3.2198,-3.2279,-3.2222,-3.1902,-3.0979,-2.9251,-2.7605,-2.6525,-2.5411,-2.4284,-2.3277,-2.2932,-2.2902,-2.3314,-2.3898,-2.4819,-2.6249,-2.7376,-2.8056,-2.8174,-2.8192,-2.812,-2.7886,-2.7444,-2.7085,-2.6825,-2.6453,-2.6118,-2.577,-2.6063,-2.5892,-2.5278,-2.5105,-2.442,-2.3271,-2.2139,-2.1166,-2.031,-2.031,-2.0177,-2.0003,-1.9535,-1.9266,-1.9212,-1.9374,-1.9062,-1.8684,-1.9673,-1.9402,-1.8561,0.0,0.0,0.0,0.0,0.0,0.0,0.0,0.0,0.0,0.0,0.0,0.0,0.0,0.0,0.0,0.0,0.0,0.0,0.0,1.8822,1.9856,1.9631,2.0993,2.1796,2.1874,2.2262,2.2555,2.2741,2.2937,2.253,2.1592,2.1115,2.0767,2.0585,2.0767,2.055,2.0094,2.0818,1.982,1.7778,1.8126,1.7033,1.5159,1.4812,1.4003,1.2666,1.0054,0.0,0.0,0.78,0.6844,0.5944,0.6142,0.5466,0.4026,0.1109,-0.3901,-0.8958,-1.1145,-1.4422,-1.8168,-2.1995,-2.4265,-2.6303,-2.9017,-3.0929,-3.2145,-3.2276,-3.218,-3.1946,-3.1465,-2.9311,-2.7309,-2.6373,-2.4716,-2.3241,-2.2354,-2.2335,-2.2427,-2.2427,-2.3327,-2.4232,-2.4994,-2.6561,-2.767,-2.8084,-2.8156,-2.8255,-2.837,-2.7624,-2.7085,-2.6825,-2.6453,-2.601,-2.5416,-2.5448,-2.5294,-2.5005,-2.3896,-2.3332,-2.3255,-2.1514,-2.0198,-1.9236,-1.9236,-1.8912,-1.8361,-1.8347,-1.8176,-1.7991,-1.8616,-1.848,-1.7977,-1.8629,-1.848,-1.7909,0.0,0.0,0.0,0.0,0.0,0.0,0.0,0.0,0.0,0.0,0.0,0.0,0.0,0.0,0.0,0.0,1.429,0.0,0.0,1.929,2.0471,2.0802,2.209,2.2966,2.332,2.3474,2.3772,2.4189,2.3964,2.3533,2.2954,2.2805,2.2627,2.2498,2.2654,2.2537,2.2256,2.2347,2.1637,2.0447,2.0143,1.9355,1.8194,1.6309,1.5508,1.4952,0.0,0.0,0.0,0.8986,0.8348,0.7872,0.8228,0.6882,0.4252,-0.0602,-0.4558,-0.8165,-1.197,-1.5102,-1.8138,-2.1869,-2.4065,-2.5805,-2.7491,-2.8376,-2.8912,-2.9084,-2.7924,-2.6825,-2.671,-2.5065,-2.3701,-2.3462,-2.3014,-2.2784,-2.2964,-2.2897,-2.3066,-2.3829,-2.437,-2.4982,-2.5708,-2.6115,-2.6639,-2.7457,-2.7601,-2.7707,-2.7806,-2.7582,-2.7115,-2.635,-2.6137,-2.5754,-2.5162,-2.5123,-2.4807,-2.4116,-2.2524,-2.1721,-2.1529,-2.0272,-1.9664,-1.953,-1.9109,-1.8808,-1.863,-1.8383,-1.8135,-1.7896,-1.814,-1.8099,-1.7896,-1.7921,-1.7689,-1.7352,0.0,0.0,0.0,0.0,0.0,0.0,0.0,0.0,0.0,0.0,0.0,0.0,0.0,0.0,0.0,0.0,0.0,1.5397,0.0,0.0,2.0065,2.0681,2.1623,2.2401,2.3027,2.3216,2.3543,2.4011,2.4091,2.3888,2.3445,2.3753,2.3811,2.367,2.434,2.4428,2.4116,2.3948,2.3285,2.2211,2.1289,2.0452,1.9517,1.7328,1.6471,0.0,0.0,0.0,1.0962,1.0118,0.9712,0.9471,0.9321,0.6898,0.3221,-0.1503,-0.5445,-0.8996,-1.2454,-1.5274,-1.7875,-2.0847,-2.2785,-2.4199,-2.4994,-2.5707,-2.6162,-2.6029,-2.4663,-2.3457,-2.3323,-2.2196,-2.1275,-2.1202,-2.1693,-2.2321,-2.301,-2.3391,-2.3967,-2.5063,-2.548,-2.5916,-2.6454,-2.612,-2.6245,-2.7164,-2.7365,-2.7474,-2.7539,-2.74,-2.6937,-2.6139,-2.5602,-2.5121,-2.4586,-2.4547,-2.4006,-2.3088,-2.1681,-2.0766,-2.0333,-1.956,-1.9258,-1.9347,-1.8974,-1.8669,-1.8475,-1.8358,-1.8135,-1.7882,-1.7882,-1.7828,-1.7733,-1.7434,-1.7131,-1.6964,0.0,0.0,0.0,0.0,0.0,0.0,0.0,0.0,0.0,0.0,0.0,0.0,0.0,0.0,0.0,0.0,0.0,0.0,0.0,0.0,0.0,1.9448,1.9847,2.0431,2.1267,2.1654,2.1988,2.23,2.3322,2.353,2.3045,2.3862,2.4112,2.3998,2.5484,2.5889,2.545,2.5518,2.4597,2.3031,2.1662,2.0419,1.9244,1.7894,0.0,0.0,0.0,0.0,1.29,1.1233,1.0885,1.0875,0.9392,0.5722,0.1341,-0.169,-0.6527,-1.123,-1.2531,-1.4879,-1.737,-1.9053,-2.0482,-2.149,-2.1668,-2.2932,-2.3847,-2.3155,-2.2406,-2.1712,-2.1341,-2.0522,-1.9904,-1.9775,-2.0745,-2.1784,-2.2701,-2.3913,-2.5126,-2.6108,-2.6592,-2.6882,-2.7023,-2.6505,-2.6437,-2.7192,-2.7369,-2.7478,-2.7535,-2.7068,-2.6539,-2.6038,-2.4948,-2.4207,-2.3838,-2.3599,-2.2948,-2.1933,-2.1272,-2.0494,-1.9639,-1.9332,-1.9035,-1.8784,-1.8745,-1.8411,-1.7922,-1.8161,-1.8095,-1.7882,-1.7882,-1.7693,-1.7434,-1.7076,-1.6837,-1.6637,0.0,0.0,0.0,0.0,0.0,0.0,0.0,0.0,0.0,0.0,0.0,0.0,0.0,0.0,0.0,0.0,0.0,0.0,0.0,0.0,0.0,0.0,0.0,0.0,0.0,0.0,0.0,2.0987,2.1013,2.096,2.0818,2.1548,2.1815,2.1752,2.2552,2.31,2.3431,2.3145,2.2907,2.2654,0.0,2.0904,2.0094,0.0,0.0,0.0,0.0,1.3522,1.3434,1.1844,1.214,1.2645,0.9149,0.5477,0.1572,-0.3251,-0.72,-1.046,-1.2317,-1.4451,-1.6469,-1.7666,-1.8592,-1.9203,-1.9101,-1.9152,-1.9262,-1.9211,-1.7946,-1.7097,-1.8024,-1.554,-1.4951,-1.9864,-1.9402,-2.0154,-2.5108,-2.6311,-2.6933,-2.7673,-2.7582,-2.746,-2.7461,-2.7038,-2.6708,-2.659,-2.6623,-2.6707,-2.6774,-2.6607,-2.598,-2.4883,-2.4413,-2.3782,-2.2926,-2.2099,-2.1537,-2.1242,-2.0427,-1.9715,-1.9095,-1.8959,-1.8679,-1.8277,-1.7948,-1.7882,-1.7962,-1.7801,-1.7679,-1.757,-1.7338,-1.7089,-1.6837,-1.6312,-1.592,-1.5611,0.0,0.0,0.0,0.0,0.0,0.0,0.0,0.0,0.0,0.0,0.0,0.0,0.0,0.0,0.0,0.0,0.0,0.0,0.0,0.0,0.0,0.0,0.0,0.0,0.0,0.0,0.0,0.0,0.0,0.0,1.9589,2.03,2.0659,2.0699,2.1399,2.2073,2.2644,2.1956,0.0,0.0,0.0,0.0,0.0,0.0,0.0,0.0,1.451,1.3924,1.4093,1.4423,1.4548,1.4264,1.2537,0.9092,0.477,0.0088,-0.4006,-0.7654,-1.0647,-1.2815,-1.4553,-1.6077,-1.6933,-1.7303,-1.7076,-1.6851,-1.6662,-1.6562,-1.558,-1.4542,-1.3872,-1.3796,-1.3902,-1.4218,-1.7497,-2.0839,-2.3096,-2.5918,-2.7919,-2.842,-2.8312,-2.8013,-2.7474,-2.7117,-2.6708,-2.6208,-2.6351,-2.6369,-2.6245,-2.6142,-2.5563,-2.4422,-2.3771,-2.2932,-2.1929,-2.1017,-2.0637,-2.085,-2.0077,-1.9479,-1.9006,-1.8769,-1.8461,-1.804,-1.7707,-1.7679,-1.7747,-1.7639,-1.7557,-1.7475,-1.7047,-1.6752,-1.6454,-1.5832,-1.54,-1.5085,0.0,0.0,0.0,0.0,0.0,0.0,0.0,0.0,0.0,0.0,0.0,0.0,0.0,0.0,0.0,0.0,0.0,0.0,0.0,0.0,0.0,0.0,0.0,0.0,0.0,0.0,0.0,0.0,1.8415,0.0,0.0,0.0,0.0,0.0,0.0,0.0,0.0,0.0,0.0,0.0,0.0,0.0,0.0,0.0,0.0,0.0,1.4957,1.4583,1.4707,1.7537,1.7349,1.6114,1.7002,1.4165,0.9642,0.538,0.0912,-0.3601,-0.7753,-1.0063,-1.1881,-1.4323,-1.5233,-1.5429,-1.5264,-1.5168,-1.5016,-1.4738,-1.4344,-1.3263,-1.0542,-1.3427,-1.4284,-0.8353,-1.5949,-2.2001,-2.021,-2.4873,-2.8559,-2.8817,-2.8868,-2.8451,-2.7409,-2.7004,-2.6573,-2.6013,-2.6229,-2.621,-2.5807,-2.5642,-2.5104,-2.4168,-2.2933,-2.1806,-2.0834,-2.0243,-2.015,-2.0572,-1.9937,-1.9442,-1.9043,-1.8616,-1.8187,-1.7787,-1.7625,-1.7557,-1.7475,-1.7503,-1.7462,-1.7352,-1.6752,-1.6367,-1.6051,-1.5389,-1.504,-1.4777,0.0,0.0,0.0,0.0,0.0,0.0,0.0,0.0,0.0,0.0,0.4391,0.5168,0.0,0.0,0.0,0.0,0.0,0.0,0.0,0.0,0.0,0.0,0.0,0.0,0.0,1.5915,1.5632,1.5543,1.5725,1.56,0.0,0.0,0.0,0.0,0.0,0.0,0.0,0.0,0.0,0.0,0.0,0.0,0.0,0.0,0.0,0.0,1.5472,1.4923,1.5045,1.7943,1.9066,1.891,1.6833,1.5872,1.4102,0.6937,0.3282,0.0748,-0.3197,-0.5909,-0.8507,-1.2144,-1.2676,-1.2494,-1.314,-1.2926,-1.2658,-1.2871,-1.2658,-1.2464,-1.2682,-1.1058,-1.1031,-1.5356,-1.7176,-1.9686,-2.435,-2.783,-2.9787,-2.9621,-2.9091,-2.8505,-2.7931,-2.7334,-2.6691,-2.599,-2.5758,-2.5556,-2.5246,-2.4934,-2.4155,-2.272,-2.1399,-2.0441,-1.9927,-1.9822,-1.9786,-1.9869,-1.9465,-1.893,-1.8302,-1.8133,-1.7585,-1.6765,-1.6947,-1.7115,-1.724,-1.674,-1.6667,-1.6752,-1.5876,-1.5389,-1.5085,-1.4686,-1.4512,-1.4466,0.0,0.0,0.0,0.0,0.0,0.0,0.0,0.3081,0.2771,0.2588,0.3075,0.369,0.443,0.4856,0.5492,0.0,0.0,0.0,0.0,0.0,0.0,0.0,0.0,0.0,0.0,1.4803,1.4626,1.4164,0.0,1.4262,1.3842,1.3954,1.4149,1.4406,1.4547,1.5157,1.6055,1.6355,0.0,1.7796,1.7985,1.7868,0.0,0.0,0.0,0.0,0.0,1.5002,1.5232,1.7171,1.8579,1.9554,1.9302,1.8751,1.7166,1.1804,0.834,0.5406,0.1896,-0.1059,-0.4025,-0.76,-0.8934,-0.9739,-1.1002,-1.1415,-1.1575,-1.1766,-1.2079,-1.1982,-1.0968,-1.1454,-1.2025,-1.207,-1.7285,-2.1711,-2.2676,-2.7901,-3.1133,-2.9893,-2.9645,-2.9118,-2.7949,-2.7286,-2.6556,-2.5758,-2.546,-2.523,-2.5068,-2.4193,-2.3295,-2.2346,-2.0998,-2.0131,-1.969,-1.969,-1.969,-1.969,-1.9369,-1.8907,-1.8291,-1.7988,-1.7421,-1.6693,-1.6693,-1.6833,-1.6989,-1.6367,-1.6281,-1.6411,-1.5668,-1.5175,-1.4858,-1.4731,-1.4558,-1.4373,0.0,0.0,0.0,0.0,0.0,0.0,0.0,0.3034,0.246,0.2057,0.1971,0.2239,0.3031,0.3679,0.443,0.0,0.0,0.0,0.0,0.0,0.0,0.0,0.0,0.0,0.0,0.0,0.0,1.3041,1.3495,0.0,0.0,0.0,0.0,0.0,1.3934,1.4399,1.51,1.5654,1.6346,0.0,0.0,1.7409,0.0,0.0,0.0,0.0,0.0,1.4891,1.5337,1.6123,1.7403,1.8905,2.0374,2.0171,1.8883,1.6243,1.3232,1.0212,0.7652,0.4591,0.1336,-0.1992,-0.4669,-0.6936,-0.8789,-0.9885,-1.065,-1.0891,-1.1624,-1.1636,-0.9606,-1.2543,-1.3784,-0.9257,-1.7583,-2.3803,-2.1349,-2.7563,-3.1865,-3.0509,-3.0536,-3.0005,-2.8243,-2.7511,-2.669,-2.5684,-2.5285,-2.4965,-2.4705,-2.3522,-2.2619,-2.2115,-2.0885,-2.0045,-1.969,-1.969,-1.969,-1.969,-1.9369,-1.8907,-1.8422,-1.7908,-1.7393,-1.6791,-1.6607,-1.6607,-1.6735,-1.612,-1.5976,-1.6051,-1.5534,-1.5142,-1.4823,-1.4858,-1.4686,-1.4373,0.0,0.0,0.0,0.0,0.0,0.0,0.0,0.3252,0.2724,0.2105,0.1703,0.1478,0.1611,0.2319,0.32,0.0,0.0,0.0,0.0,0.0,0.0,0.0,0.0,0.0,0.0,0.0,0.0,1.2556,1.2744,0.0,0.0,0.0,0.0,0.0,0.0,1.3592,1.4573,1.484,0.0,0.0,0.0,0.0,0.0,0.0,0.0,0.0,0.0,1.4868,1.5289,1.5324,1.6139,1.7047,1.6294,1.7409,1.8749,1.7185,1.5995,1.5024,1.453,1.1573,0.7766,0.4122,0.0054,-0.3717,-0.6321,-0.7902,-0.907,-0.9944,-1.0595,-1.1211,-1.1752,-1.2953,-1.4224,-1.5246,-1.9036,-2.2738,-2.5155,-2.8468,-3.1088,-3.2278,-3.1922,-3.0968,-2.9394,-2.8649,-2.7589,-2.6003,-2.5355,-2.4642,-2.378,-2.303,-2.2269,-2.143,-2.0513,-1.9919,-1.969,-1.969,-1.969,-1.969,-1.9369,-1.8817,-1.8145,-1.7814,-1.7256,-1.6522,-1.6522,-1.6466,-1.6312,-1.5768,-1.5501,-1.5355,-1.5085,-1.4731,-1.4466,-1.4777,-1.4686,-1.4373,0.0,0.0,0.0,0.0,0.0,0.0,0.3741,0.3344,0.2857,0.2148,0.1654,0.1386,0.1389,0.2195,0.2936,0.3494,0.0,0.0,0.0,0.0,0.0,0.0,0.0,0.0,0.0,0.0,1.0924,1.1042,1.126,0.0,0.0,0.0,0.0,0.0,0.0,1.2508,1.3154,1.3504,0.0,0.0,0.0,0.0,0.0,0.0,0.0,0.0,0.0,0.0,1.3164,1.3025,1.3668,1.4293,1.2833,1.3662,1.5367,1.6571,1.6847,1.6907,1.7564,1.5487,1.2279,0.8665,0.4386,0.005,-0.3888,-0.6546,-0.8532,-0.9733,-1.0859,-1.2006,-1.3277,-1.4339,-1.5715,-1.7801,-2.1068,-2.4134,-2.6487,-2.9276,-3.1516,-3.2733,-3.2359,-3.139,-2.985,-2.9201,-2.8083,-2.617,-2.5163,-2.4222,-2.3211,-2.2801,-2.2201,-2.1337,-2.0447,-1.9884,-1.969,-1.969,-1.9603,-1.9406,-1.9109,-1.8563,-1.7854,-1.7557,-1.706,-1.6522,-1.6522,-1.6337,-1.6076,-1.568,-1.5322,-1.504,-1.4949,-1.4686,-1.4419,-1.4777,-1.4686,-1.4373,0.0,0.0,0.0,0.0,0.0,0.4312,0.3832,0.3524,0.3123,0.2499,0.2209,0.1943,0.1748,0.2371,0.2839,0.2805,0.3625,0.0,0.0,0.0,0.0,0.0,0.0,0.0,0.0,0.0,0.9363,0.9482,0.9719,0.9784,0.0,0.0,1.0247,1.04,0.0,0.0,0.0,0.0,0.0,0.0,0.0,0.0,0.0,0.0,0.0,0.0,0.0,0.0,0.0,0.0,0.0,1.1229,0.9775,1.0091,1.1797,1.5698,1.7116,1.7802,1.9602,1.8587,1.612,1.2323,0.7635,0.2761,-0.1782,-0.5415,-0.8267,-0.9802,-1.1143,-1.2573,-1.4332,-1.5502,-1.6962,-1.9163,-2.2165,-2.4819,-2.6556,-2.9017,-3.0983,-3.1903,-3.1833,-3.1148,-2.9706,-2.8945,-2.7778,-2.5927,-2.4919,-2.3859,-2.2679,-2.2399,-2.189,-2.1029,-2.0355,-1.9884,-1.969,-1.969,-1.953,-1.9207,-1.8959,-1.8422,-1.7679,-1.7393,-1.6976,-1.6466,-1.6392,-1.6163,-1.5812,-1.5457,-1.5096,-1.4777,-1.4858,-1.4686,-1.4466,-1.4915,-1.4777,-1.4419,0.0,0.0,0.0,0.0,0.0,0.0,0.3924,0.3744,0.3476,0.3214,0.337,0.3216,0.2561,0.2733,0.2769,0.2423,0.3019,0.0,0.0,0.0,0.0,0.0,0.0,0.0,0.0,0.0,0.748,0.8125,0.819,0.8482,0.9009,0.8964,0.9075,0.9317,0.0,0.0,0.0,0.0,0.0,0.0,0.0,0.0,0.0,0.0,0.0,0.0,0.0,0.0,0.0,0.0,0.0,0.0,0.0,0.7089,0.8667,1.4896,1.6935,1.7914,2.1099,2.133,1.9552,1.5096,0.947,0.4041,-0.0,-0.4401,-0.8151,-1.0022,-1.1216,-1.26,-1.4776,-1.6231,-1.7678,-1.951,-2.1943,-2.4087,-2.5436,-2.7356,-2.8893,-2.965,-3.0206,-3.0081,-2.892,-2.7738,-2.648,-2.5229,-2.4694,-2.3651,-2.2014,-2.1729,-2.1225,-2.0335,-2.0111,-1.9884,-1.969,-1.969,-1.953,-1.9207,-1.902,-1.8472,-1.7679,-1.7407,-1.6993,-1.6466,-1.6163,-1.5812,-1.5468,-1.5051,-1.4731,-1.4419,-1.4777,-1.4686,-1.4466,-1.5232,-1.5017,-1.4466,0.0,0.0,0.0,0.0,0.0,0.0,0.0,0.3476,0.352,0.335,0.3609,0.3728,0.3401,0.3377,0.3274,0.3086,0.313,0.0,0.0,0.0,0.0,0.0,0.0,0.0,0.0,0.0,0.6004,0.6524,0.6323,0.6334,0.6618,0.6614,0.6762,0.6947,0.7522,0.8377,0.0,0.0,0.0,0.0,0.0,0.0,1.0514,0.0,0.0,0.0,0.0,0.0,0.0,0.0,0.0,0.0,0.0,0.0,0.0,0.8996,1.1069,1.2615,1.4828,1.4833,1.3547,1.0804,0.6807,0.2497,-0.1373,-0.5193,-0.8601,-1.0923,-1.2678,-1.4305,-1.6147,-1.7394,-1.8714,-2.0538,-2.2365,-2.4199,-2.6154,-2.8615,-3.0795,-3.2267,-3.226,-3.1685,-3.0564,-2.8119,-2.6199,-2.528,-2.3984,-2.283,-2.1951,-2.1376,-2.0829,-2.032,-2.0096,-1.9884,-1.969,-1.969,-1.9457,-1.8921,-1.8731,-1.8173,-1.7352,-1.7157,-1.6808,-1.6466,-1.6163,-1.5812,-1.5468,-1.5051,-1.4812,-1.4731,-1.4858,-1.5006,-1.5142,-1.5096,-1.496,-1.4731,0.0,0.0,0.0,0.0,0.0,0.0,0.0,0.3255,0.3432,0.335,0.3658,0.3842,0.3651,0.3654,0.3553,0.3298,0.3182,0.0,0.0,0.0,0.0,0.0,0.0,0.0,0.0,0.4692,0.4938,0.5413,0.4759,0.4396,0.4275,0.4256,0.4423,0.4754,0.5487,0.6505,0.0,0.0,0.0,0.0,0.0,0.0,0.9399,0.0,0.0,0.0,0.0,0.0,0.0,0.0,0.0,0.0,0.0,0.0,0.0,0.0,0.4795,0.6291,1.0093,1.0903,1.0115,0.7829,0.4687,0.1168,-0.2381,-0.6211,-0.9622,-1.1995,-1.388,-1.5608,-1.7276,-1.8373,-1.953,-2.0945,-2.3062,-2.5076,-2.664,-2.945,-3.1784,-3.2997,-3.2484,-3.1584,-3.0412,-2.8309,-2.6336,-2.462,-2.3371,-2.2362,-2.1523,-2.098,-2.0561,-2.0304,-2.0166,-1.9904,-1.953,-1.9442,-1.9109,-1.85,-1.8173,-1.7707,-1.7073,-1.6863,-1.665,-1.6466,-1.6163,-1.5856,0.0,-1.5277,-1.5142,-1.5142,-1.5142,-1.5277,-1.5468,-1.5355,-1.513,-1.4903,0.0,0.0,0.0,0.0,0.0,0.0,0.0,0.3081,0.3126,0.317,0.3523,0.3667,0.3434,0.3673,0.3623,0.3101,0.0,0.0,0.0,0.0,0.0,0.0,0.0,0.0,0.0,0.3884,0.4088,0.4557,0.3384,0.2543,0.2023,0.1881,0.2158,0.2709,0.3452,0.4505,0.0,0.0,0.0,0.0,0.0,0.0,0.0,0.0,0.0,0.0,0.0,0.0,0.0,0.0,0.0,0.0,0.0,0.0,0.0,0.0,0.0,0.0,0.0,0.8316,0.8157,0.546,0.2566,-0.0424,-0.3482,-0.753,0.0,-1.3265,-1.5017,-1.6626,-1.8173,-1.9222,-2.0139,-2.0958,-2.3922,-2.6311,-2.6887,-2.982,-3.2029,-3.243,-3.1366,-3.0113,-2.8952,-2.8229,-2.6531,-2.3354,-2.2808,-2.207,-2.0859,-2.0628,-2.046,-2.0304,-2.027,-1.9925,-1.9207,-1.8968,-1.8588,-1.7988,-1.7517,-1.7173,-1.6918,-1.665,-1.6522,-1.6522,-1.6163,-1.5988,-1.5988,-1.5647,-1.5513,-1.5513,-1.5513,-1.5513,-1.5558,-1.5856,-1.5501,-1.4949,0.0,0.0,0.0,0.0,0.0,0.0,0.0,0.0,0.0,0.0,0.3189,0.3473,0.3667,0.3758,0.3753,0.0,0.0,0.0,0.0,0.0,0.0,0.0,0.0,0.0,0.0,0.2674,0.2497,0.2299,0.0916,0.026,0.0188,-0.0483,-0.0285,0.0721,0.1377,0.2845,0.0,0.0,0.0,0.0,0.0,0.0,0.0,0.0,0.0,0.0,0.7148,0.5902,0.0,0.0,0.0,0.0,0.0,0.0,0.0,0.0,-0.3887,-0.4578,-0.376,0.0,-0.1254,-0.268,-0.4309,-0.6194,0.0,-1.1005,-1.3328,-1.507,-1.6705,-1.8107,-1.8999,-1.9844,-2.0754,-2.1743,-2.3823,-2.5589,-2.649,-2.9677,-3.2718,-3.4924,-3.2456,-3.0197,-2.9126,-2.6742,-2.4743,-2.342,-2.2355,-2.1486,-2.0843,-2.0761,-2.0595,-2.0304,-2.0065,-1.9696,-1.9207,-1.8793,-1.8383,-1.7988,-1.7517,-1.7242,-1.7115,-1.6918,-1.6791,-1.6791,-1.6411,-1.6151,-1.5988,-1.5647,-1.5513,-1.5513,-1.5768,-1.5736,-1.5513,-1.5603,-1.5322,-1.4858,0.0,0.0,0.0,0.0,0.0,0.0,0.0,0.0,0.0,0.0,0.0,0.0,0.0,0.0,0.0,0.0,0.0,0.0,0.0,0.0,0.0,0.0,0.0,0.0,0.2395,0.1923,0.1199,0.0258,-0.0785,-0.1526,-0.2033,-0.2407,-0.2016,-0.099,0.0299,0.1918,0.0,0.0,0.0,0.0,0.7368,0.0,0.0,0.0,0.0,0.0,0.658,0.5336,0.0,0.2568,0.1119,-0.019,0.0,0.0,0.0,0.0,-0.6038,-0.7405,-0.8583,-0.7518,-0.6309,-0.7353,-0.8533,-0.9873,-1.1439,-1.3439,-1.5337,-1.6566,-1.7969,-1.9155,-1.9752,-2.0609,-2.1402,-2.1907,-2.4515,-2.7086,-2.8937,-3.0362,-3.1824,-3.3505,-3.1414,-2.9304,-2.7948,-2.6069,-2.4349,-2.2875,-2.2052,-2.1401,-2.0827,-2.0662,-2.0509,-2.0304,-1.966,-1.9258,-1.9035,-1.8422,-1.7948,-1.7639,-1.716,-1.6976,-1.7031,-1.6833,-1.6791,-1.6876,-1.6552,-1.6337,-1.6219,-1.6032,-1.5869,-1.5736,-1.5957,-1.5812,-1.5513,-1.5513,-1.5232,-1.4812,0.0,0.0,0.0,0.0,0.0,0.0,0.0,0.0,0.0,0.0,0.0,0.0,0.0,0.0,0.0,0.0,0.0,0.0,0.0,0.0,0.0,0.0,0.0,0.1928,0.2128,0.1208,0.0054,-0.1417,-0.2209,-0.3096,-0.4134,-0.4001,-0.336,-0.2332,-0.0428,0.1062,0.0,0.355,0.4751,0.5835,0.6225,0.0,0.0,0.0,0.0,0.0,0.0,0.0,0.0,0.1799,0.0273,-0.1117,-0.2061,0.0,0.0,0.0,0.0,0.0,-1.0654,-1.0123,-0.9353,-1.0093,-1.1212,-1.2427,-1.3448,-1.5341,-1.7088,-1.7898,-1.8971,-1.999,-2.055,-2.1349,-2.2021,-2.2148,-2.5601,-2.9215,-3.1836,-3.1286,-3.0668,-3.0845,-2.949,-2.7922,-2.6308,-2.5595,-2.4348,-2.2237,-2.1911,-2.1509,-2.0893,-2.0527,-2.0304,-2.0304,-1.9384,-1.8898,-1.886,-1.8028,-1.7475,-1.7199,-1.6735,-1.665,-1.6918,-1.6693,-1.6693,-1.6918,-1.665,-1.6522,-1.6522,-1.6522,-1.625,-1.5957,-1.6001,-1.5724,-1.5322,-1.5285,-1.5027,-1.4563,0.0,0.0,0.0,0.0,0.0,0.0,0.0,0.0,0.0,0.0,0.0,0.0,0.0,0.0,0.0,0.0,0.0,0.0,0.0,0.0,0.0,0.0,0.1121,0.0993,0.0799,-0.0219,-0.1256,-0.2304,-0.3952,-0.4874,-0.5185,-0.53,-0.4488,-0.2837,-0.1597,-0.0825,-0.0262,0.1066,0.2149,0.3045,0.4153,0.0,0.0,0.0,0.0,0.0,0.0,0.0,0.0,0.0222,-0.1109,-0.2443,-0.3857,0.0,0.0,0.0,0.0,0.0,-1.2116,-1.2802,-1.3162,-1.2491,-1.3348,-1.459,-1.567,-1.6979,-1.8194,-1.9067,-1.9798,-2.0581,-2.1503,-2.1778,-2.228,-2.361,-2.6894,-2.9745,-3.102,-3.1433,-3.1359,-3.0716,-2.8421,-2.6515,-2.5541,-2.4311,-2.328,-2.2573,-2.2068,-2.1617,-2.1167,-2.0695,-2.0426,-2.0304,-1.9711,-1.9295,-1.9132,-1.7894,-1.724,-1.7199,-1.6735,-1.6735,-1.7157,-1.696,-1.696,-1.7157,-1.6918,-1.6693,-1.6522,-1.6522,-1.612,-1.5603,-1.5901,-1.5412,-1.4549,-1.425,-1.3917,-1.3527,0.0,0.0,0.0,0.0,0.0,0.0,0.0,0.0,0.0,0.0,0.0,0.0,0.0,0.0,0.0,0.0,0.0,0.0,0.0,0.0,0.0,0.0491,0.0111,-0.0167,-0.0437,-0.1332,-0.2525,-0.4069,-0.5052,-0.5459,-0.538,-0.5101,-0.4336,-0.3187,-0.2609,-0.2234,-0.1959,-0.0726,0.0199,0.0892,0.0,0.0,0.0,0.0,0.0,0.0,0.0,0.0,0.0,0.0,-0.3057,-0.4303,-0.5587,0.0,0.0,0.0,0.0,0.0,-1.345,-1.4355,-1.5129,-1.5473,-1.6222,-1.7061,-1.7906,-1.9439,-2.0681,-2.0707,-2.1145,-2.1712,-2.2329,-2.2765,-2.3806,-2.6109,-2.6835,-2.751,-2.8622,-2.825,-2.7565,-2.6812,-2.5511,-2.4536,-2.4113,-2.3375,-2.2756,-2.2368,-2.1998,-2.1617,-2.1215,-2.0677,-2.0357,-2.0304,-1.966,-1.9207,-1.8997,-1.8108,-1.7639,-1.7625,-1.7031,-1.6947,-1.7352,-1.6905,-1.6863,-1.7199,-1.682,-1.6607,-1.6479,-1.6293,-1.5944,-1.5468,-1.5277,-1.4777,-1.4165,-1.3836,-1.3418,-1.2943,0.0,0.0,0.0,0.0,0.0,0.0,0.0,0.0,0.0,0.0,0.0,0.0,0.0,0.0,0.0,0.0,0.0,0.0,0.0,0.0,0.0333,-0.0054,-0.0599,-0.1039,-0.142,-0.2286,-0.3592,-0.5397,-0.5686,-0.5643,-0.5217,-0.454,-0.3958,-0.3444,-0.3262,-0.3197,-0.3169,-0.225,-0.1597,-0.1113,0.0,0.0,0.0,0.0,0.0,0.0,0.0,0.0,0.0,0.0,0.0,0.0,0.0,0.0,0.0,-1.1084,-1.2342,-1.351,-1.4452,-1.527,-1.6184,-1.741,-1.8135,-1.8808,-1.9803,-2.1363,-2.2501,-2.2261,-2.2555,-2.2915,-2.32,-2.3894,-2.5105,-2.7075,-2.642,-2.5865,-2.6481,-2.5691,-2.4693,-2.3738,-2.3519,-2.332,-2.301,-2.2825,-2.2517,-2.2124,-2.1911,-2.1617,-2.1215,-2.0644,-2.0304,-2.0304,-1.9588,-1.9072,-1.8808,-1.8266,-1.7948,-1.7787,-1.7199,-1.7086,-1.7365,-1.6765,-1.6735,-1.7115,-1.6693,-1.6446,-1.6291,-1.6071,-1.5696,-1.5159,-1.4687,-1.4168,-1.3663,-1.3455,-1.2962,-1.2512,0.0,0.0,0.0,0.0,0.0,0.0,0.0,0.0,0.0,0.0,0.0,0.0,0.0,0.0,0.0,0.0,0.0,0.0,0.0,0.0,-0.056,-0.0615,-0.0684,-0.1168,-0.213,-0.3221,-0.4313,-0.5311,-0.5816,-0.5607,-0.4763,-0.4189,-0.3794,-0.3558,-0.3574,-0.3688,-0.3895,-0.3558,-0.3423,-0.3297,-0.2609,0.0,0.0,0.0,0.0,0.0,0.0,0.0,0.0,0.0,0.0,0.0,0.0,0.0,-1.1135,-1.1977,-1.3224,-1.4393,-1.4861,-1.5521,-1.6248,-1.6979,-1.7776,-1.8983,-2.1151,-2.1805,-2.2319,-2.349,-2.377,-2.3884,-2.4219,-2.4936,-2.5244,-2.4535,-2.5999,-2.6842,-2.5755,-2.6198,-2.6081,-2.4513,-2.4196,-2.3823,-2.3063,-2.2825,-2.2517,-2.2124,-2.1911,-2.1617,-2.1215,-2.0644,-2.0304,-2.0304,-1.9588,-1.9095,-1.8893,-1.8291,-1.776,-1.724,-1.7002,-1.6918,-1.6918,-1.665,-1.665,-1.6918,-1.6607,-1.6233,-1.5752,-1.5911,-1.535,-1.441,-1.4461,-1.3768,-1.2706,-1.266,-1.2421,-1.2088,0.0,0.0,0.0,0.0,0.0,0.0,0.0,0.0,0.0,0.0,0.0,0.0,0.0,0.0,0.0,0.0,0.0,0.0,0.0,0.0,-0.1429,-0.1264,-0.1463,-0.1887,-0.2483,-0.3074,-0.3755,-0.4696,-0.4857,-0.4577,-0.3953,-0.3897,-0.3749,-0.3571,-0.4059,-0.4411,-0.4684,-0.4791,-0.4796,-0.4684,-0.4465,-0.426,0.0,0.0,0.0,0.0,0.0,0.0,0.0,0.0,-0.8577,-0.9213,-0.9923,-1.0663,-1.141,-1.2401,-1.3364,-1.4306,-1.4994,-1.5667,-1.6493,-1.7924,-1.8311,-1.8997,-2.1537,-2.2834,-2.3831,-2.4932,-2.5135,-2.5002,-2.456,-2.4822,-2.4931,-2.4377,-2.4974,-2.5193,-2.4144,-2.427,-2.4064,-2.2914,-2.2745,-2.2542,-2.2096,-2.201,-2.1911,-2.1748,-2.154,-2.1356,-2.1215,-2.0711,-2.0407,-2.0304,-1.9904,-1.942,-1.8846,-1.85,-1.7948,-1.7199,-1.7002,-1.696,-1.7073,-1.6693,-1.6448,-1.6337,-1.609,-1.5693,-1.5189,-1.5133,-1.4712,-1.3986,-1.3358,-1.2889,-1.2538,-1.2574,-1.2642,-1.2785,0.0,0.0,0.0,0.0,0.0,0.0,0.0,0.0,0.0,0.0,0.0,0.0,0.0,0.0,0.0,0.0,0.0,0.0,0.0,-0.2015,-0.1975,-0.1779,-0.2007,-0.2326,-0.267,-0.2655,-0.3199,-0.4302,-0.4055,-0.368,-0.3267,-0.3614,-0.3739,-0.3755,-0.4588,-0.5179,-0.5555,-0.5887,-0.607,-0.6186,-0.6186,-0.6162,0.0,0.0,0.0,0.0,0.0,0.0,0.0,0.0,-1.0021,-1.0429,-1.0758,-1.1153,-1.1641,-1.2602,-1.3591,-1.455,-1.5391,-1.6083,-1.7089,-1.9142,-1.9121,-1.9343,-2.2283,-2.3587,-2.4577,-2.6004,-2.5905,-2.5268,-2.435,-2.4275,-2.4237,-2.3875,-2.389,-2.365,-2.2819,-2.2598,-2.2311,-2.162,-2.1584,-2.1554,-2.1354,-2.1462,-2.1462,-2.1339,-2.1246,-2.1151,-2.1071,-2.0662,-2.0392,-2.0304,-1.9869,-1.9325,-1.8707,-1.8344,-1.7828,-1.7199,-1.7011,-1.6928,-1.6989,-1.6735,-1.6346,-1.5883,-1.5774,-1.5279,-1.4651,-1.4538,-1.4128,-1.3522,-1.2797,-1.2498,-1.2503,-1.2746,-1.3047,-1.3299,0.0,0.0,0.0,0.0,0.0,0.0,0.0,0.0,0.0,0.0,0.0,0.0,0.0,0.0,0.0,0.0,0.0,0.0,-0.2015,-0.2127,-0.2184,-0.2183,-0.2221,-0.2353,-0.2675,-0.219,-0.2663,-0.4291,-0.3602,-0.3118,-0.281,-0.3232,-0.3666,-0.4233,-0.5175,-0.5887,-0.6411,-0.6794,-0.7283,-0.7925,-0.7925,-0.8178,-0.8495,0.0,0.0,0.0,0.0,0.0,0.0,0.0,-1.1277,-1.1125,-1.1333,-1.1586,-1.1957,-1.2614,-1.3938,-1.5344,-1.6088,-1.6819,-1.8007,-2.0464,-2.0127,-2.0102,-2.3598,-2.3873,-2.4113,-2.665,-2.5901,-2.4501,-2.3558,-2.3376,-2.3197,-2.2562,-2.2769,-2.2684,-2.1903,-2.1491,-2.1229,-2.1039,-2.1166,-2.1197,-2.0991,-2.1291,-2.1339,-2.0926,-2.1087,-2.1071,-2.0794,-2.0475,-2.0304,-2.0304,-1.9347,-1.8707,-1.85,-1.7828,-1.7393,-1.7186,-1.7076,-1.6846,-1.6509,-1.6778,-1.6459,-1.568,-1.568,-1.5092,-1.411,-1.4218,-1.3789,-1.3006,-1.2908,-1.2668,-1.2475,-1.3133,-1.3466,-1.3524,0.0,0.0,0.0,0.0,0.0,0.0,0.0,0.0,0.0,0.0,0.0,0.0,0.0,0.0,0.0,0.0,0.0,0.0,0.0,-0.2577,-0.2662,-0.2597,-0.2724,-0.2853,-0.3141,-0.2538,-0.2301,-0.2311,-0.2372,-0.2521,-0.2766,-0.3477,-0.4186,-0.4937,-0.5873,-0.6691,-0.732,-0.7771,-0.8196,-0.856,-0.8928,-0.9013,-0.8933,0.0,0.0,0.0,0.0,0.0,0.0,0.0,0.0,0.0,-1.1671,-1.1968,-1.233,-1.2849,-1.3692,-1.4588,-1.5287,-1.6052,-1.7219,-1.9435,-1.9121,-1.9275,-2.3102,-2.3239,-2.2985,-2.4482,-2.4396,-2.3887,-2.3485,-2.2283,-2.1433,-2.1625,-2.158,-2.1344,-2.0811,-2.0663,-2.0579,-2.0512,-2.0545,-2.0579,-2.0512,-2.0579,-2.0613,-2.0494,-2.0628,-2.0628,-2.0475,-2.0426,-2.0204,-1.9747,-1.9457,-1.8997,-1.8383,-1.8028,-1.7504,-1.6784,-1.7128,-1.697,-1.6342,-1.5994,-1.5415,-1.4713,-1.4613,-1.4136,-1.3448,-1.3095,-1.2758,-1.2396,-1.1842,-1.1836,-1.2087,-1.1737,-1.2048,-1.2658,0.0,0.0,0.0,0.0,0.0,0.0,0.0,0.0,0.0,0.0,0.0,0.0,0.0,0.0,0.0,0.0,0.0,0.0,0.0,0.0,-0.3109,-0.3204,-0.3307,-0.3391,-0.3398,-0.3037,-0.2519,-0.1761,-0.1777,-0.2128,-0.2819,-0.3836,-0.483,-0.5857,-0.6697,-0.7454,-0.8158,-0.8273,-0.8588,-0.9034,-0.9283,-0.9494,-0.9758,0.0,0.0,0.0,0.0,0.0,0.0,0.0,0.0,0.0,-1.2034,-1.247,-1.2938,-1.291,-1.3642,-1.4519,-1.4759,-1.5858,-1.7472,-1.9774,-1.9744,-1.9956,-2.2894,-2.3615,-2.3676,-2.3702,-2.3585,-2.3158,-2.2153,-2.0882,-2.0188,-2.0756,-2.0512,-2.0235,-2.0296,-2.003,-1.9833,-1.9854,-1.9925,-1.996,-1.9889,-2.0115,-2.027,-2.02,-2.022,-2.0204,-2.01,-1.9995,-1.9747,-1.9347,-1.9147,-1.8808,-1.8305,-1.8082,-1.7745,-1.7259,-1.6842,-1.6537,-1.6353,-1.5606,-1.4901,-1.4277,-1.3882,-1.3463,-1.3012,-1.2484,-1.219,-1.2058,-1.1762,-1.1729,-1.1847,-1.2171,-1.2127,-1.202,0.0,0.0,0.0,0.0,0.0,0.0,0.0,0.0,0.0,0.0,0.0,0.0,0.0,0.0,0.0,0.0,0.0,0.0,0.0,0.0,-0.3566,-0.3852,-0.4009,-0.3941,-0.3653,-0.3679,-0.3249,-0.244,-0.1973,-0.2274,-0.3326,-0.4334,-0.5582,-0.6935,-0.7508,-0.8154,-0.8813,-0.844,-0.871,-0.9321,-0.9167,-0.9722,-1.0677,-1.0733,0.0,0.0,0.0,0.0,0.0,0.0,0.0,0.0,-1.2603,-1.3058,-1.3668,-1.2962,-1.3747,-1.4807,-1.4572,-1.5994,-1.8167,-2.0826,-2.1417,-2.1642,-2.2933,-2.4475,-2.5217,-2.3722,-2.3127,-2.2228,-2.0171,-1.9383,-1.9269,-1.9935,-1.9484,-1.93,-2.0027,-1.9447,-1.9029,-1.9169,-1.9332,-1.9369,-1.9169,-1.9782,-2.0096,-1.9919,-1.9818,-1.9752,-1.9752,-1.9347,-1.9101,-1.9026,-1.8592,-1.8277,-1.8182,-1.7947,-1.7892,-1.8001,-1.6417,-1.5874,-1.6292,-1.5359,-1.4683,-1.4152,-1.3481,-1.3012,-1.272,-1.2295,-1.2031,-1.1901,-1.2279,-1.2108,-1.1828,-1.3607,-1.3089,-1.1621,0.0,0.0,0.0,0.0,0.0,0.0,0.0,0.0,0.0,0.0,0.0,0.0,0.0,0.0,0.0,0.0,0.0,0.0,0.0,0.0,-0.3854,-0.446,-0.4674,-0.4741,-0.4588,-0.4422,-0.4267,-0.4178,-0.3661,-0.4093,-0.5526,-0.5724,-0.6482,-0.7688,-0.7975,-0.8528,-0.9182,-0.9059,-0.9175,-0.9484,-0.9984,-1.0211,-1.0346,-1.1109,-1.1454,0.0,0.0,0.0,0.0,0.0,0.0,0.0,-1.4092,-1.41,-1.4036,-1.4031,-1.3846,-1.3895,-1.4911,-1.5698,-1.6937,-1.9962,-2.1776,-2.2904,-2.3226,-2.3528,-2.3446,-2.2279,-2.1545,-2.0853,-1.996,-1.8729,-1.8108,-1.8833,-1.8392,-1.8137,-1.8669,-1.8418,-1.8352,-1.8841,-1.8921,-1.8921,-1.8898,-1.9049,-1.9184,-1.9369,-1.931,-1.9258,-1.9317,-1.9369,-1.9109,-1.85,-1.863,-1.825,-1.7293,-1.7229,-1.6739,-1.5894,-1.6578,-1.6171,-1.4733,-1.4164,-1.3736,-1.343,-1.3283,-1.2943,-1.2484,-1.2389,-1.2031,-1.1591,-1.1665,-1.2079,-1.2666,-1.3083,-1.2509,-1.1727,0.0,0.0,0.0,0.0,0.0,0.0,0.0,0.0,0.0,0.0,0.0,0.0,0.0,0.0,0.0,0.0,0.0,0.0,0.0,0.0,0.0,-0.518,-0.5502,-0.564,-0.5677,-0.5756,-0.5861,-0.5989,-0.6143,-0.6272,-0.6468,-0.6777,-0.754,-0.8572,-0.8701,-0.9054,-0.9553,-0.924,-0.921,-0.9434,-0.9768,-1.0161,-1.0651,-1.1277,-1.193,-1.2483,-1.3083,0.0,0.0,0.0,0.0,0.0,0.0,0.0,-1.435,-1.3963,-1.3609,-1.3518,-1.4096,-1.5336,-1.714,-1.9997,-2.1239,-2.1935,-2.2503,-2.241,-2.2021,-2.1167,-2.0548,-1.9771,-1.8539,-1.7523,-1.7104,-1.7817,-1.7331,-1.7122,-1.7793,-1.7511,-1.7473,-1.8059,-1.8201,-1.8305,-1.8422,-1.8447,-1.8511,-1.865,-1.8606,-1.8595,-1.864,-1.8697,-1.8517,-1.8135,-1.8015,-1.7633,-1.7,-1.6715,-1.6455,-1.6215,-1.6354,-1.5618,-1.4099,-1.3828,-1.3514,-1.3223,-1.3569,-1.3361,-1.2765,-1.3073,-1.281,-1.2187,-1.236,-1.2516,-1.2708,-1.2861,-1.2892,-1.2944,0.0,0.0,0.0,0.0,0.0,0.0,0.0,0.0,0.0,0.0,0.0,0.0,0.0,0.0,0.0,0.0,0.0,0.0,0.0,0.0,0.0,0.0,-0.6315,-0.6532,-0.6759,-0.7177,-0.7523,-0.7744,-0.8648,-0.8512,-0.7462,-0.7971,-0.8656,-0.942,-0.9409,-0.9588,-0.9849,-0.9316,-0.9208,-0.9368,-0.9368,-1.0076,-1.1117,-1.1509,-1.2328,-1.3336,-1.3814,-1.3945,-1.3916,-1.4291,0.0,0.0,0.0,0.0,-1.4635,-1.3885,-1.3618,-1.3506,-1.3565,-1.5505,-1.7974,-1.9978,-2.0207,-2.0227,-2.1368,-2.1109,-2.0533,-2.0285,-1.9853,-1.8966,-1.7085,-1.639,-1.6279,-1.6903,-1.638,-1.6207,-1.7005,-1.665,-1.6525,-1.7184,-1.7327,-1.7505,-1.7828,-1.7841,-1.7907,-1.8027,-1.7936,-1.7882,-1.7962,-1.7936,-1.7882,-1.7842,-1.7338,-1.6984,-1.6851,-1.6254,-1.6212,-1.6754,-1.5717,-1.4782,-1.398,-1.3814,-1.3591,-1.3408,-1.3946,-1.3815,-1.3291,-1.3748,-1.3591,-1.3009,-1.3231,-1.3116,-1.2829,-1.3003,-1.3519,-1.4147,0.0,0.0,0.0,0.0,0.0,0.0,0.0,0.0,0.0,0.0,0.0,0.0,0.0,0.0,0.0,0.0,0.0,0.0,0.0,0.0,0.0,-0.693,-0.7044,-0.7328,-0.7802,-0.8052,-0.8462,-0.9119,-1.006,-1.0505,-1.04,-0.972,-0.9587,-0.9996,-0.9799,-0.9759,-0.9818,-0.9545,-0.9527,-0.9771,-1.005,-1.0503,-1.1096,-1.1897,-1.2466,-1.2979,-1.3652,-1.4027,-1.4257,-1.4923,-1.5081,0.0,0.0,0.0,-1.4848,-1.5434,-1.4614,-1.3855,-1.5509,-1.7272,-1.8683,-1.8732,-1.8937,-1.939,-2.0284,-1.9333,-1.8544,-1.9656,-1.9316,-1.8442,-1.7179,-1.6273,-1.5784,-1.6118,-1.5595,-1.5387,-1.6017,-1.5552,-1.5518,-1.6569,-1.6323,-1.6355,-1.7229,-1.7047,-1.7131,-1.7707,-1.7488,-1.7447,-1.772,-1.7895,-1.7855,-1.7557,-1.7413,-1.6978,-1.624,-1.5616,-1.5094,-1.4716,-1.4351,-1.4213,-1.4232,-1.3752,-1.3693,-1.3984,-1.3791,-1.3744,-1.3795,-1.3593,-1.3426,-1.3303,-1.3064,-1.3456,-1.4122,-1.3729,-1.3584,-1.3591,0.0,0.0,0.0,0.0,0.0,0.0,0.0,0.0,0.0,0.0,0.0,0.0,0.0,0.0,0.0,0.0,0.0,0.0,0.0,0.0,0.0,-0.8046,-0.8283,-0.8382,-0.843,-0.8888,-0.9412,-0.9894,-1.0685,-1.1223,-1.1505,-1.1073,-1.0847,-1.0705,-1.0629,-1.0485,-1.0312,-1.0225,-1.0147,-1.0195,-1.0671,-1.1116,-1.1551,-1.2592,-1.3203,-1.3559,-1.4205,-1.4597,-1.4831,-1.4938,-1.5211,-1.5593,-1.5678,0.0,0.0,0.0,-1.4925,-1.459,-1.6228,-1.6401,-1.6611,-1.8838,-1.8754,-1.8506,-2.0022,-1.9271,-1.8254,-1.819,-1.7751,-1.722,-1.6559,-1.5927,-1.5507,-1.555,-1.533,-1.5129,-1.5053,-1.4884,-1.4843,-1.5203,-1.5145,-1.5209,-1.5595,-1.5595,-1.5714,-1.6007,-1.6511,-1.6842,-1.6909,-1.724,-1.7461,-1.7516,-1.6831,-1.6349,-1.6118,-1.5168,-1.4511,-1.4084,-1.371,-1.3583,-1.3672,-1.3607,-1.3408,-1.3179,-1.3763,-1.3864,-1.365,-1.4084,-1.4116,-1.3933,-1.3816,-1.4002,-1.4318,-1.386,-1.379,-1.3943,0.0,0.0,0.0,0.0,0.0,0.0,0.0,0.0,0.0,0.0,0.0,0.0,0.0,0.0,0.0,0.0,0.0,0.0,0.0,0.0,0.0,-0.9344,-0.9579,-0.9624,-0.9447,-1.0012,-1.0417,-1.0646,-1.135,-1.1775,-1.1982,-1.2018,-1.1836,-1.1442,-1.133,-1.1094,-1.0753,-1.0715,-1.0611,-1.0545,-1.0944,-1.1424,-1.1961,-1.2918,-1.3555,-1.3932,-1.4552,-1.4913,-1.5101,-1.4834,-1.5253,-1.5788,-1.558,-1.5421,0.0,0.0,0.0,-1.5517,-1.6634,-1.6034,-1.5893,-1.9233,-1.8975,-1.8245,-1.9439,-1.884,-1.7778,-1.693,-1.6238,-1.5796,-1.5786,-1.555,-1.5361,-1.541,-1.5438,-1.5262,-1.4807,-1.4664,-1.4543,-1.4359,-1.423,-1.4181,-1.4237,-1.4405,-1.453,-1.453,-1.554,-1.6086,-1.602,-1.6392,-1.6833,-1.7269,-1.6191,-1.5777,-1.6258,-1.4944,-1.4159,-1.3888,-1.3687,-1.3459,-1.3213,-1.3594,-1.3335,-1.2627,-1.3768,-1.4093,-1.384,-1.4519,-1.464,-1.4373,-1.4373,-1.4373,-1.434,-1.3911,-1.3998,-1.4236,0.0,0.0,0.0,0.0,0.0,0.0,0.0,0.0,0.0,0.0,0.0,0.0,0.0,0.0,-0.8296,-0.8041,0.0,0.0,0.0,0.0,0.0,-1.0846,-1.0766,0.0,-1.1154,-1.1504,-1.1681,-1.1642,-1.2374,-1.2548,-1.221,-1.2389,-1.2318,-1.2041,-1.1726,-1.1345,-1.0981,-1.0791,-1.0725,-1.0777,-1.0611,-1.1162,-1.2124,-1.2562,-1.3083,-1.3584,-1.4136,-1.4439,-1.4654,-1.4886,-1.5193,-1.5512,-1.6083,-1.5855,-1.5475,0.0,0.0,0.0,-1.6995,-1.7705,-1.8549,-1.9405,-1.9489,-1.9128,-1.8093,-1.7156,-1.6483,-1.6384,-1.5116,-1.4303,-1.5164,-1.529,-1.5391,-1.5951,-1.5919,-1.5751,-1.5728,-1.5094,-1.4608,-1.4686,-1.3772,-1.3316,-1.3703,-1.386,-1.397,-1.4111,-1.4776,-1.5153,-1.5153,-1.5355,-1.5876,-1.671,-1.5748,-1.5696,-1.6658,-1.5074,-1.4164,-1.3894,-1.4398,-1.4114,-1.3223,-1.3937,-1.3799,-1.3015,-1.3762,-1.4393,-1.479,-1.4536,-1.443,-1.4373,-1.4373,-1.4373,-1.4373,-1.4082,-1.3999,-1.402,0.0,0.0,0.0,0.0,0.0,0.0,0.0,0.0,0.0,0.0,0.0,0.0,0.0,-0.8542,-0.9089,-0.9614,-1.0761,0.0,0.0,0.0,0.0,-1.2018,-1.1918,-1.1746,-1.1616,-1.1867,-1.19,-1.1692,-1.2239,-1.237,-1.2138,-1.2246,-1.2246,-1.2138,-1.1847,-1.1553,-1.125,-1.1088,-1.1023,-1.102,-1.147,-1.1769,-1.2098,-1.3219,-1.3587,-1.3597,-1.4241,-1.4723,-1.5012,-1.4878,-1.5439,-1.622,-1.6061,-1.6095,-1.6143,-1.6305,-1.604,-1.5887,-1.6872,-1.729,-1.78,-1.9241,-1.9572,-1.9796,-2.0566,-1.8697,-1.5959,-1.3215,-1.3739,-1.4839,-1.5349,-1.5018,-1.4828,-1.5259,-1.5209,-1.5082,-1.5044,-1.4619,-1.4094,-1.3651,-1.3053,-1.2564,-1.2311,-1.2369,-1.2552,-1.2904,-1.363,-1.4261,-1.4674,-1.5051,-1.5579,-1.6398,-1.5891,-1.5698,-1.5933,-1.4835,-1.4238,-1.4162,-1.4123,-1.4065,-1.3907,-1.3856,-1.3709,-1.3551,-1.4081,-1.4226,-1.4138,-1.4345,-1.4373,-1.4373,-1.4373,-1.4373,-1.4373,-1.4114,-1.4244,-1.4501,0.0,0.0,0.0,0.0,0.0,0.0,0.0,0.0,0.0,0.0,0.0,0.0,0.0,0.0,-1.0727,-1.1566,-1.2399,-1.3007,-1.3388,-1.338,-1.3356,-1.3257,-1.3017,-1.2701,-1.2408,-1.2532,-1.2366,-1.1881,-1.2238,-1.2307,-1.2029,-1.2138,-1.2138,-1.2102,-1.1811,-1.1564,-1.1335,-1.1212,-1.1099,-1.1107,-1.1851,-1.2044,-1.2034,-1.3598,-1.3846,-1.3553,-1.4787,-1.5441,-1.5723,-1.5784,-1.6477,-1.7193,-1.649,-1.6435,-1.662,-1.6522,-1.6088,-1.5932,-1.6957,-1.7236,-1.7595,-1.9159,-1.9587,-1.9949,-2.1048,-1.9512,-1.6947,-1.4042,-1.5039,-1.6619,-1.7049,-1.6216,-1.5421,-1.5281,-1.5271,-1.5178,-1.4836,-1.4452,-1.3979,-1.3205,-1.2627,-1.2048,-1.1446,-1.1602,-1.185,-1.2062,-1.2757,-1.3488,-1.4154,-1.4593,-1.5116,-1.5867,-1.6286,-1.5995,-1.4959,-1.4264,-1.4046,-1.429,-1.4222,-1.4225,-1.4275,-1.4074,-1.3919,-1.391,-1.4238,-1.4209,-1.3947,-1.4253,-1.4373,-1.4373,-1.4373,-1.4373,-1.4373,-1.4244,-1.4419,-1.4731,0.0,0.0,0.0,0.0,0.0,0.0,0.0,0.0,0.0,0.0,0.0,0.0,0.0,0.0,0.0,-1.3883,-1.3513,-1.3561,-1.4186,-1.3685,-1.3725,-1.4558,0.0,0.0,0.0,0.0,-1.3129,-1.2189,-1.2563,-1.244,-1.1932,-1.2064,-1.2075,-1.1895,-1.1649,-1.1415,-1.118,-1.1115,-1.104,-1.0961,-1.157,-1.1807,-1.2013,-1.3559,-1.3784,-1.3576,-1.5673,-1.6479,-1.6708,-1.7691,-1.8248,-1.8388,-1.7333,-1.7002,-1.6914,-1.6534,-1.6663,-1.696,0.0,0.0,0.0,-1.9132,-1.9575,-1.9615,-1.9139,-1.9285,-1.9454,-1.9179,-1.9172,-1.9441,-2.0226,-1.8876,-1.7257,-1.6218,-1.6262,-1.6132,-1.521,-1.4731,-1.4201,-1.3457,-1.2555,-1.1813,-1.1268,-1.166,-1.1834,-1.1626,-1.2188,-1.2904,-1.3542,-1.4035,-1.4508,-1.5131,-1.6903,-1.6596,-1.3954,-1.3493,-1.3632,-1.4315,-1.4727,-1.4705,-1.4329,-1.4557,-1.4429,-1.4024,-1.427,-1.4408,-1.4373,-1.4373,-1.4373,-1.4373,-1.4419,-1.4419,-1.4419,-1.4501,-1.4547,-1.4593,0.0,0.0,0.0,0.0,0.0,0.0,0.0,0.0,0.0,0.0,0.0,0.0,-1.2276,-1.3453,-1.4296,-1.4405,-1.4612,-1.4796,-1.4979,-1.4665,-1.454,-1.4662,-1.4384,-1.4186,0.0,0.0,0.0,0.0,0.0,0.0,0.0,0.0,0.0,-1.2476,-1.2312,-1.1855,-1.1212,-1.1147,-1.1212,-1.1378,-1.1799,-1.2335,-1.3108,-1.4309,-1.5174,-1.5828,-1.667,-1.7383,-1.7942,-1.7909,-1.7989,-1.797,-1.7239,-1.6995,-1.6973,-1.6876,-1.6876,-1.696,-1.7295,0.0,0.0,0.0,0.0,0.0,-1.9376,-1.8847,-1.9073,-2.2059,-2.0446,-1.8792,-1.9778,-1.8865,-1.7725,-1.6965,-1.5861,-1.5062,-1.5004,-1.4289,-1.3641,-1.3233,-1.2438,-1.1771,-1.1468,-1.1058,-1.094,-1.113,-1.1807,-1.2606,-1.3558,-1.496,-1.5867,-1.625,-1.6467,-1.611,-1.5066,-1.4654,-1.4526,-1.4727,-1.5134,-1.5073,-1.4588,-1.4021,-1.3861,-1.4013,-1.3939,-1.4067,-1.4373,-1.4373,-1.4373,-1.4419,-1.4686,-1.4777,-1.4777,-1.488,-1.5187,-1.5546,0.0,0.0,0.0,0.0,0.0,0.0,-1.0928,-1.1577,-1.212,0.0,0.0,0.0,-1.3805,-1.4507,-1.4957,-1.5097,-1.5316,-1.5492,-1.5492,-1.5153,-1.4915,-1.4789,-1.4605,-1.4384,-1.414,0.0,0.0,0.0,0.0,0.0,0.0,0.0,0.0,0.0,-1.2658,-1.2294,-1.1702,-1.173,-1.1686,-1.1726,-1.2858,-1.3473,-1.3964,-1.5812,-1.6738,-1.7157,-1.8183,-1.8845,-1.9213,-1.933,-1.8956,-1.8362,-1.7816,-1.7433,-1.7141,-1.7002,-1.696,-1.696,-1.7057,-1.7115,-1.7149,-1.7343,0.0,0.0,-1.9171,-1.9385,-2.0225,-2.3198,-2.2333,-2.1066,-2.1068,-2.0483,-1.9346,-1.7429,-1.5994,-1.4976,-1.4712,-1.3805,-1.2985,-1.2618,-1.1869,-1.1292,-1.1082,-1.0711,-1.0734,-1.1387,-1.1687,-1.2457,-1.3971,-1.5365,-1.6355,-1.6892,-1.6757,-1.6115,-1.5011,-1.498,-1.4977,-1.4968,-1.5001,-1.5134,-1.535,-1.4117,-1.4039,-1.4824,-1.4118,-1.4224,-1.4846,-1.4586,-1.4541,-1.4617,-1.4721,-1.4946,-1.5187,-1.5412,-1.568,-1.5988,0.0,0.0,0.0,-0.929,-0.9987,-1.0765,-1.1908,-1.2657,-1.3208,0.0,0.0,0.0,-1.5267,-1.5317,-1.5435,-1.5788,-1.5748,-1.5671,-1.5715,-1.5334,-1.5062,-1.4915,-1.4754,-1.4441,-1.4114,-1.3915,0.0,0.0,0.0,0.0,0.0,0.0,0.0,0.0,0.0,-1.2869,-1.2564,-1.2653,-1.2579,-1.2522,-1.4365,-1.4955,-1.5004,-1.7728,-1.8428,-1.8254,-1.9967,-2.0496,-2.0516,-2.1069,-2.0388,-1.9231,-1.8642,-1.8002,-1.7395,-1.6999,-1.6969,-1.6965,-1.6786,-1.6778,-1.6834,-1.6546,-1.701,0.0,-1.8584,-2.0106,-2.166,-2.2847,-2.3884,-2.4219,-2.2697,-2.2338,-2.1167,-1.7699,-1.6363,-1.5415,-1.4331,-1.319,-1.2254,-1.1648,-1.091,-1.0391,-1.0332,-1.0409,-1.0824,-1.178,-1.1846,-1.2702,-1.4641,-1.5555,-1.6398,-1.724,-1.737,-1.6512,-1.4558,-1.5065,-1.5299,-1.5234,-1.4827,-1.518,-1.6218,-1.4658,-1.4672,-1.5775,-1.4564,-1.4541,-1.5302,-1.4754,-1.4728,-1.4994,-1.4798,-1.5089,-1.5603,-1.5944,-1.6044,-1.6076,0.0,0.0,-0.8926,-0.9592,-1.0797,-1.1871,-1.255,-1.3399,-1.4082,-1.4337,0.0,-1.5367,-1.5582,-1.584,-1.5978,-1.5944,-1.5691,-1.557,-1.5715,-1.5334,-1.5108,-1.5062,-1.4914,-1.4799,-1.4638,-1.4266,0.0,0.0,0.0,0.0,0.0,0.0,0.0,0.0,0.0,-1.3716,-1.3518,-1.3371,-1.425,-1.5709,-1.5457,-1.6086,-1.7402,-1.9087,-2.0294,-2.1186,-2.1616,-2.1774,-2.1578,-2.059,-1.9956,-1.9378,-1.8474,-1.8029,-1.7689,-1.7058,-1.6979,-1.7055,-1.6827,-1.6818,-1.6749,-1.6426,-1.6175,0.0,-1.7567,-1.811,-1.8829,-2.0607,-2.1444,-2.1503,-2.0224,-2.0291,-1.9952,-1.8175,-1.6475,-1.505,-1.4171,-1.2494,-1.1137,-1.0404,-0.9674,-0.9282,-0.9377,-0.932,-0.976,-1.0789,-1.256,-1.4025,-1.496,-1.6471,-1.7421,-1.7598,-1.7723,-1.7231,-1.6072,-1.65,-1.6467,-1.5991,-1.6389,-1.6451,-1.6202,-1.5324,-1.4732,-1.4418,-1.4169,-1.4254,-1.4522,-1.4246,-1.47,-1.5644,-1.5692,-1.5804,-1.5944,-1.6306,-1.6392,-1.6423,-0.8951,-0.9092,-0.9442,-1.0459,-1.1455,-1.2355,-1.3198,-1.4014,-1.4686,-1.5017,-1.5579,-1.5944,-1.5925,-1.6188,-1.6318,-1.6219,-1.5869,-1.5659,-1.5715,-1.5322,-1.5051,-1.4937,-1.4879,-1.4741,-1.4523,-1.4359,-1.4064,0.0,0.0,0.0,0.0,0.0,0.0,0.0,-1.4189,-1.4094,-1.3835,-1.4063,-1.5029,-1.6495,-1.6898,-1.7977,-1.9528,-2.0938,-2.1791,-2.2271,-2.2314,-2.2189,-2.1866,-2.0831,-2.018,-1.9647,-1.8789,-1.8201,-1.778,-1.7085,-1.6901,-1.6876,-1.6679,-1.6617,-1.6477,-1.5985,-1.6048,0.0,0.0,-1.8259,-1.8523,-1.9413,-2.0315,-2.0543,-1.9206,-1.8561,-1.8111,-1.7578,-1.6978,-1.5846,-1.3865,-1.1962,-1.0415,-0.935,-0.8616,-0.8112,-0.7985,-0.8259,-0.8974,-1.0233,-1.2104,-1.3637,-1.4721,-1.6015,-1.7199,-1.8139,-1.8107,-1.7658,-1.6718,-1.7008,-1.6761,-1.5986,-1.5959,-1.6099,-1.6319,-1.5274,-1.4879,-1.499,-1.462,-1.4742,-1.5107,-1.4676,-1.4979,-1.5724,-1.5299,-1.5281,-1.5488,-1.5652,-1.5869,-1.6107,-0.9749,-0.9703,-1.0081,-1.127,-1.1989,-1.2754,-1.3779,-1.4582,-1.5175,-1.5635,-1.6193,-1.6573,-1.6585,-1.6816,-1.6916,-1.6815,-1.6478,-1.6179,-1.5993,-1.5692,-1.5383,-1.5139,-1.5034,-1.4769,-1.4283,-1.4635,-1.4566,0.0,0.0,0.0,0.0,0.0,0.0,-1.4116,-1.4536,-1.4584,-1.4373,-1.4815,-1.5805,-1.713,-1.8276,-1.953,-2.0927,-2.2671,-2.301,-2.2611,-2.2637,-2.242,-2.1969,-2.1239,-2.0585,-1.9926,-1.8877,-1.8325,-1.7849,-1.6934,-1.6686,-1.6676,-1.6504,-1.6411,-1.6268,-1.5666,-1.6136,-1.6983,0.0,0.0,0.0,-1.8522,-1.9083,-1.9309,-1.8511,-1.7421,-1.6707,-1.686,-1.7397,-1.6825,-1.4064,-1.1972,-1.0086,-0.8417,-0.757,-0.7004,-0.6666,-0.7354,-0.8381,-0.9644,-1.1366,-1.2918,-1.4231,-1.5327,-1.6769,-1.8567,-1.8638,-1.8141,-1.7103,-1.7393,-1.6986,-1.5992,-1.5538,-1.574,-1.6493,-1.5487,-1.5287,-1.573,-1.5268,-1.5338,-1.5728,-1.5161,-1.5095,-1.528,-1.4691,-1.4663,-1.4942,-1.4916,-1.5255,-1.568,-1.1288,-1.1096,-1.1108,-1.1283,-1.2325,-1.3409,-1.437,-1.5074,-1.5724,-1.6293,-1.7055,-1.7655,-1.8034,-1.8343,-1.8461,-1.8286,-1.7996,-1.7579,-1.6979,-1.7002,-1.6783,-1.6246,-1.5908,-1.5405,-1.4564,-1.5725,-1.5691,-1.4326,0.0,0.0,0.0,0.0,0.0,-1.5896,-1.5741,-1.5932,-1.6333,-1.5936,-1.7434,-2.0057,-1.9194,-1.9392,-2.0533,-2.3677,-2.4064,-2.2957,-2.3198,-2.2905,-2.2289,-2.1172,-2.0684,-2.0145,-1.8046,-1.7885,-1.8175,-1.6452,-1.6303,-1.6654,-1.6377,-1.6296,-1.6271,-1.6145,-1.6021,-1.6088,-1.6654,0.0,-1.6784,-1.7505,0.0,-1.5587,-1.7306,0.0,0.0,-1.6925,-1.7089,-1.6848,-1.5652,-1.3195,-1.0392,-0.7499,-0.6475,-0.6005,-0.5991,-0.6918,-0.7919,-0.8797,-1.1028,-1.2888,-1.4,-1.5507,-1.7062,-1.864,-1.945,-1.923,-1.7782,-1.835,-1.7954,-1.6697,-1.7045,-1.6963,-1.6612,-1.71,-1.6448,-1.4944,-1.5468,-1.5401,-1.492,-1.479,-1.4468,-1.4075,-1.4747,-1.5031,-1.5057,-1.4942,-1.5255,-1.5693,-1.2304,-1.2361,-1.2503,-1.2282,-1.2988,-1.3862,-1.4593,-1.5635,-1.6479,-1.6863,-1.7395,-1.7779,-1.7946,-1.8409,-1.8631,-1.8452,-1.8558,-1.838,-1.7768,-1.7555,-1.711,-1.6249,-1.5973,-1.5493,-1.4719,-1.5665,-1.5657,-1.4627,-1.5222,0.0,0.0,0.0,0.0,-1.5468,-1.5715,-1.5723,-1.5545,-1.5696,-1.6574,-1.8036,-1.9841,-2.1205,-2.2285,-2.3772,-2.4106,-2.379,-2.3475,-2.2995,-2.2377,-2.1536,-2.0772,-1.9889,-1.8623,-1.7858,-1.724,-1.6139,-1.5881,-1.5986,-1.6232,-1.6083,-1.5948,-1.6287,-1.6115,-1.6055,-1.6622,-1.6777,-1.681,-1.6758,0.0,0.0,0.0,0.0,0.0,0.0,-1.6756,-1.592,-1.453,-1.3032,-1.1275,-0.9227,-0.7703,-0.6887,-0.7143,-0.6859,-0.7168,-0.8396,-1.0473,-1.2429,-1.4025,-1.6006,-1.7763,-1.92,-2.0085,-2.002,-1.8847,-1.9076,-1.8477,-1.7045,-1.7148,-1.7036,-1.6719,-1.6838,-1.6437,-1.5665,-1.5772,-1.552,-1.5065,-1.4932,-1.4483,-1.3874,-1.4228,-1.4197,-1.402,-1.4311,-1.4777,-1.5254,-1.3784,-1.3781,-1.3785,-1.3256,-1.3823,-1.46,-1.5254,-1.6324,-1.7157,-1.7365,-1.7786,-1.8126,-1.8194,-1.8777,-1.9084,-1.8952,-1.9165,-1.9021,-1.844,-1.8044,-1.7466,-1.6668,-1.652,-1.6033,-1.5226,-1.5901,-1.5856,-1.5121,0.0,0.0,0.0,0.0,0.0,0.0,-1.5894,-1.5825,-1.5311,-1.6157,-1.6731,-1.7367,-2.0499,-2.2792,-2.4261,-2.3982,-2.4202,-2.4527,-2.3879,-2.3187,-2.2483,-2.1774,-2.0887,-1.9904,-1.8775,-1.785,-1.694,-1.5811,-1.5328,-1.528,-1.5775,-1.5755,-1.5724,-1.625,-1.6232,-1.6268,-1.687,-1.7105,-1.707,-1.6585,-1.6993,0.0,0.0,0.0,-1.6718,-1.7468,0.0,-1.5596,-1.4337,-1.3766,-1.2785,-1.0961,-0.9141,-0.8024,-0.7995,-0.7749,-0.7896,-0.8758,-1.0624,-1.2557,-1.4508,-1.6636,-1.8505,-2.0115,-2.1066,-2.0948,-1.9748,-1.9748,-1.8927,-1.7368,-1.7223,-1.7069,-1.6892,-1.6633,-1.6459,-1.6305,-1.6154,-1.5801,-1.5342,-1.4968,-1.4474,-1.3842,-1.3762,-1.3472,-1.3144,-1.3672,-1.4137,-1.4574,-1.6233,-1.5628,-1.4769,-1.3901,-1.4774,-1.5858,-1.6683,-1.7199,-1.757,-1.7842,-1.8536,-1.9183,-1.9482,-2.0196,-2.056,-2.0372,-2.0131,-1.9661,-1.8945,-1.847,-1.8213,-1.8043,-1.8007,-1.7483,-1.6298,-1.6797,-1.6707,-1.5963,-1.6618,0.0,0.0,0.0,0.0,0.0,-1.6732,-1.6757,-1.68,-1.8078,-1.923,-2.022,-2.1239,-2.3389,-2.586,-2.4585,-2.4487,-2.5013,-2.4467,-2.3681,-2.2757,-2.1678,-2.1104,-2.0398,-1.7772,-1.7699,-1.8027,-1.5412,-1.461,-1.4671,-1.4911,-1.5266,-1.5668,-1.5952,-1.6244,-1.6612,-1.7096,-1.7196,-1.7186,-1.7173,-1.7196,-1.7057,-1.6599,-1.649,-1.6815,-1.7741,-1.708,0.0,0.0,-1.62,-1.496,-1.1932,-1.0242,-0.894,-0.7885,-0.9926,-1.098,-1.0084,-1.1904,-1.379,-1.558,-1.7325,-1.9282,-2.1482,-2.2569,-2.2243,-2.0378,-2.0361,-1.9515,-1.7771,-1.7631,-1.7442,-1.7191,-1.7109,-1.6837,-1.6396,-1.6658,-1.6274,-1.5448,-1.4718,-1.4178,-1.3775,-1.3594,-1.3207,-1.2838,-1.3141,-1.3396,-1.3704,-1.6415,-1.6496,-1.6429,-1.6114,-1.6261,-1.68,-1.7913,-1.8513,-1.9214,-2.026,-2.0826,-2.1097,-2.1125,-2.1609,-2.1503,-2.042,-2.0263,-2.0029,-1.9394,-1.8761,-1.8193,-1.7638,-1.7272,-1.6899,-1.6643,-1.6662,-1.6552,-1.6249,-1.6582,0.0,0.0,0.0,0.0,0.0,-1.5545,-1.5174,-1.5077,-1.6237,-1.8859,-2.2344,-2.3683,-2.4697,-2.535,-2.5167,-2.4997,-2.4768,-2.4204,-2.2929,-2.1427,-2.1055,-1.9324,-1.7339,-1.7051,-1.6224,-1.5196,-1.4297,-1.4334,-1.4555,-1.4362,-1.4665,-1.5198,-1.5925,-1.6069,-1.6212,-1.6867,-1.7093,-1.717,-1.7074,-1.7135,-1.7119,-1.6816,-1.6598,-1.6667,-1.7232,-1.7033,-1.6782,0.0,-1.6629,-1.6215,-1.4971,-1.3915,-1.2793,-1.1499,-1.1471,-1.155,-1.1746,-1.3047,-1.4673,-1.6652,-1.9162,-2.1081,-2.2245,-2.317,-2.3145,-2.2059,-2.1435,-2.0525,-1.9332,-1.8743,-1.8298,-1.7975,-1.7636,-1.7278,-1.6896,-1.6601,-1.6174,-1.564,-1.4935,-1.4178,-1.3385,-1.3272,-1.3069,-1.2923,-1.3939,-1.4014,-1.3654,-1.6488,-1.6797,-1.7092,-1.697,-1.715,-1.763,-1.8554,-1.9402,-2.0337,-2.138,-2.1715,-2.1773,-2.1456,-2.148,-2.101,-1.986,-1.9628,-1.9483,-1.9162,-1.8363,-1.7696,-1.723,-1.6939,-1.6721,-1.6607,-1.6731,-1.673,-1.6558,-1.6789,-1.6633,0.0,0.0,0.0,0.0,-1.5101,-1.4588,-1.414,-1.5316,-1.7871,-2.1484,-2.4294,-2.5235,-2.5045,-2.5314,-2.5054,-2.4477,-2.3401,-2.2022,-2.0542,-1.9658,-1.7739,-1.569,-1.5756,-1.4478,-1.3003,-1.3252,-1.3662,-1.4063,-1.3876,-1.427,-1.4891,-1.5695,-1.5852,-1.6001,-1.6754,-1.6941,-1.6941,-1.6818,-1.6992,-1.6979,-1.6647,-1.6554,-1.6552,-1.6705,-1.6812,-1.6794,0.0,-1.6759,-1.6784,-1.6665,-1.6098,-1.5246,-1.4071,-1.3343,-1.3113,-1.3518,-1.4801,-1.638,-1.818,-2.0787,-2.252,-2.3238,-2.3876,-2.384,-2.3105,-2.2493,-2.1548,-2.0262,-1.9685,-1.9075,-1.8469,-1.8048,-1.7676,-1.7337,-1.6706,-1.6151,-1.5625,-1.489,-1.399,-1.3137,-1.302,-1.2779,-1.2627,-1.3717,-1.3877,-1.3472,-1.6623,-1.6726,-1.6725,-1.6644,-1.7529,-1.8417,-1.8691,-1.994,-2.0978,-2.1265,-2.1473,-2.1366,-2.0713,-2.0023,-1.9373,-1.8826,-1.8314,-1.8069,-1.8182,-1.7291,-1.6775,-1.6719,-1.7027,-1.6867,-1.6228,-1.6807,-1.7078,-1.6866,-1.7191,-1.7104,0.0,0.0,0.0,0.0,-1.5473,-1.4942,-1.4014,-1.5265,-1.6558,-1.8189,-2.2995,-2.4961,-2.5012,-2.4934,-2.4673,-2.4115,-2.2273,-2.1009,-1.9866,-1.7635,-1.633,-1.5383,-1.3885,-1.2609,-1.1782,-1.2322,-1.2786,-1.3212,-1.3511,-1.414,-1.4765,-1.5154,-1.5449,-1.593,-1.6699,-1.6708,-1.6544,-1.6464,-1.6634,-1.6642,-1.6094,-1.6256,-1.6416,-1.6312,-1.6441,-1.6582,-1.6718,-1.6718,-1.6761,-1.6931,-1.6688,-1.6231,-1.549,-1.5429,-1.5417,-1.5419,-1.7083,-1.8707,-2.0083,-2.2099,-2.3583,-2.4487,-2.4704,-2.4388,-2.3587,-2.3495,-2.2539,-2.067,-2.0436,-1.9722,-1.8626,-1.8345,-1.8009,-1.7664,-1.6978,-1.6246,-1.5432,-1.4477,-1.3703,-1.3079,-1.2826,-1.2437,-1.1982,-1.2579,-1.298,-1.3208,-1.7162,-1.6884,-1.6979,-1.7744,-1.8795,-1.951,-1.9409,-2.0836,-2.2079,-2.2504,-2.3033,-2.2941,-2.184,-2.1333,-2.0328,-1.8452,-1.7642,-1.7143,-1.6991,-1.6514,-1.6045,-1.5552,-1.5646,-1.5381,-1.4664,-1.5002,-1.5555,-1.6213,-1.5855,-1.5956,-1.6558,0.0,0.0,0.0,-1.4434,-1.38,-1.3283,-1.4212,-1.6175,-1.9027,-2.2098,-2.3664,-2.4066,-2.3375,-2.2803,-2.23,-2.1828,-1.9865,-1.7384,-1.6599,-1.4435,-1.2187,-1.2564,-1.1902,-1.1212,-1.2072,-1.2789,-1.3379,-1.3542,-1.4041,-1.4449,-1.4307,-1.431,-1.4516,-1.5062,-1.6188,-1.6761,-1.5669,-1.5234,-1.5207,-1.5742,-1.579,-1.5954,-1.6522,-1.6693,-1.6863,-1.7044,-1.7086,-1.7128,-1.7267,-1.7196,-1.7057,-1.6765,-1.5358,-1.5199,-1.7011,-1.7648,-1.8862,-2.0965,-2.3212,-2.456,-2.4872,-2.5544,-2.5487,-2.4619,-2.4544,-2.3558,-2.1628,-2.097,-2.0012,-1.8825,-1.8585,-1.8128,-1.7446,-1.6777,-1.6133,-1.5492,-1.4301,-1.3511,-1.2958,-1.2354,-1.2174,-1.2294,-1.2449,-1.3204,-1.3998,-1.7501,-1.7444,-1.7562,-1.7928,-1.9206,-2.0322,-2.0517,-2.1572,-2.2564,-2.3193,-2.3623,-2.3362,-2.1991,-2.0992,-1.9594,-1.7472,-1.6627,-1.6113,-1.5895,-1.5551,-1.5245,-1.4828,-1.461,-1.4337,-1.4064,-1.4227,-1.4641,-1.5351,-1.523,-1.5386,-1.5693,0.0,0.0,0.0,-1.371,-1.3263,-1.3069,-1.4523,-1.6409,-1.868,-2.1193,-2.2474,0.0,-2.2443,-2.1507,-2.0288,-2.0028,-1.8688,-1.6801,-1.4874,-1.2876,-1.1203,-1.1343,-1.1058,-1.0868,-1.1777,-1.2513,-1.3105,-1.3491,-1.3863,-1.4189,-1.414,-1.3924,-1.3705,-1.3842,-1.5012,-1.587,-1.5282,-1.4931,-1.4801,-1.5116,-1.5659,-1.6386,-1.7301,-1.7165,-1.7093,-1.7509,-1.7535,-1.7529,-1.7596,-1.7811,-1.7906,-1.7801,-1.6421,-1.6464,-1.8673,-1.8817,-1.9765,-2.195,-2.3537,-2.4506,-2.4823,-2.5384,-2.5408,-2.4799,-2.4417,-2.3442,-2.1861,-2.1401,-2.0395,-1.8895,-1.8996,-1.84,-1.728,-1.6674,-1.5994,-1.5237,-1.4136,-1.3336,-1.2775,-1.2139,-1.2102,-1.2413,-1.252,-1.3156,-1.3791,-1.7895,-1.8164,-1.8287,-1.785,-1.9182,-2.0682,-2.1662,-2.2188,-2.2685,-2.3329,-2.3413,-2.2855,-2.1316,-1.9598,-1.7932,-1.6321,-1.5443,-1.4963,-1.4821,-1.4513,-1.4278,-1.4222,-1.3758,-1.3588,-1.383,-1.3888,-1.4073,-1.4363,-1.4916,-1.5031,0.0,0.0,0.0,-1.3503,-1.3293,-1.3234,-1.3401,-1.5563,-1.6949,-1.793,-2.027,-2.1349,-2.1513,-2.1694,-2.0577,-1.8792,-1.7907,-1.7626,-1.7035,-1.3342,-1.1927,-1.1552,-1.065,-1.0479,-1.0803,-1.1704,-1.2258,-1.2754,-1.3362,-1.3652,-1.3836,-1.4047,-1.3689,-1.3238,-1.2948,-1.3603,-1.4424,-1.5061,-1.5088,-1.4914,-1.4616,-1.5775,-1.714,-1.813,-1.7696,-1.7394,-1.7931,-1.8,-1.8013,-1.7936,-1.8232,0.0,-1.8696,-1.7963,-1.8193,-1.9894,-2.0251,-2.1098,-2.282,-2.3756,-2.4393,-2.4741,-2.5058,-2.4986,-2.4437,-2.3929,-2.3068,-2.1839,-2.175,-2.0769,-1.9058,-1.9308,-1.8601,-1.7126,-1.657,-1.5836,-1.4937,-1.3979,-1.3157,-1.2484,-1.2057,-1.2116,-1.2473,-1.2683,-1.2951,-1.3116,-1.8906,-1.8795,-1.8743,-1.9269,-1.9299,-1.9876,-2.1747,-2.2604,-2.282,-2.2359,-2.1914,-2.1074,-1.9434,-1.7843,-1.6535,-1.5579,-1.4205,-1.3397,-1.339,-1.3404,-1.3232,-1.2855,-1.3184,-1.3208,-1.2867,-1.285,-1.3158,-1.3705,-1.4081,-1.4611,0.0,0.0,-1.2969,-1.3643,-1.3363,-1.37,-1.4624,-1.5828,-1.7059,-1.8372,-1.9505,-2.0283,-2.0733,-2.0219,-1.9991,-1.9748,-1.8238,-1.6947,-1.5768,-1.4164,-1.2776,-1.1744,-1.1643,-1.15,-1.1603,-1.2522,-1.2677,-1.2648,-1.2996,-1.318,-1.3094,-1.2579,-1.257,-1.2764,-1.2968,-1.3286,-1.3763,-1.441,-1.4543,-1.4697,-1.5198,-1.6073,-1.6948,-1.7683,-1.8125,-1.8144,-1.7473,-1.8148,-1.8526,-1.8026,-1.7535,-1.7908,-1.9632,-1.864,-1.8216,-1.9006,-2.101,-2.2453,-2.2954,-2.5605,-2.6609,-2.5548,-2.6446,-2.6067,-2.4192,-2.4854,-2.4337,-2.2594,-2.1935,-2.0989,-1.9791,-1.8915,-1.7988,-1.6994,-1.6235,-1.5565,-1.4907,-1.3583,-1.2637,-1.2008,-1.1986,-1.2277,-1.2707,-1.2738,-1.2785,-1.2777,-1.91,-1.9107,-1.908,-1.9372,-1.9607,-2.0004,-2.093,-2.1484,-2.1881,-2.2171,-2.1524,-2.0531,-1.9044,-1.7553,-1.6197,-1.5054,-1.3757,-1.2947,-1.2676,-1.2779,-1.2681,-1.2325,-1.2705,-1.2858,-1.2621,-1.2621,-1.2956,-1.3742,-1.4019,-1.44,-1.4945,-1.3784,-1.3385,-1.3584,-1.3741,-1.4338,-1.5343,-1.6495,-1.7572,-1.853,-1.9531,-2.0016,-2.0156,-1.9965,-1.9978,-1.9826,-1.8448,-1.7188,-1.5999,-1.4437,-1.376,-1.339,-1.2675,-1.2417,-1.2414,-1.2934,-1.3054,-1.2996,-1.2812,-1.2677,-1.2482,-1.2003,-1.2248,-1.2667,-1.289,-1.3324,-1.3858,-1.4298,-1.4406,-1.4729,-1.5718,-1.6414,-1.7137,-1.7931,-1.8131,-1.8061,-1.7635,-1.7906,-1.8035,-1.7712,-1.763,-1.813,-1.9483,-1.9156,-1.9111,-1.9754,-2.1044,-2.2125,-2.2767,-2.5086,-2.5985,-2.5093,-2.5913,-2.5523,-2.3806,-2.3967,-2.3524,-2.2479,-2.2162,-2.1411,-2.0294,-1.9784,-1.8785,-1.74,-1.639,-1.5607,-1.4907,-1.363,-1.2719,-1.2187,-1.2339,-1.2584,-1.2836,-1.3052,-1.2981,-1.2766,-1.9287,-1.9375,-1.9432,-1.936,-1.991,-2.0326,-2.0162,-2.0299,-2.0838,-2.1999,-2.1279,-2.0167,-1.8973,-1.7488,-1.6057,-1.4844,-1.3549,-1.26,-1.22,-1.2295,-1.2233,-1.2,-1.2289,-1.2498,-1.2621,-1.2498,-1.292,-1.3761,-1.4069,-1.4399,-1.4725,-1.4486,-1.4145,-1.3736,-1.4194,-1.4946,-1.5928,-1.7019,-1.795,-1.8717,-1.9736,-1.999,-1.9798,-1.9862,-1.9759,-1.9506,-1.8338,-1.748,-1.6548,-1.4732,-1.4531,-1.4791,-1.376,-1.3366,-1.3292,-1.3202,-1.3228,-1.319,-1.253,-1.2187,-1.1999,-1.1756,-1.2092,-1.2511,-1.291,-1.3546,-1.4089,-1.4331,-1.4521,-1.4981,-1.6185,-1.6681,-1.7157,-1.8067,-1.7982,-1.7766,-1.7599,-1.7645,-1.7581,-1.7405,-1.7878,-1.8447,-1.9089,-1.9556,-2.0014,-2.0511,-2.1012,-2.1645,-2.2514,-2.4446,-2.5274,-2.4786,-2.538,-2.5107,-2.3815,-2.3048,-2.2579,-2.2415,-2.2313,-2.1688,-2.0638,-2.0552,-1.9459,-1.761,-1.6678,-1.5683,-1.4645,-1.3776,-1.3057,-1.2567,-1.2704,-1.2844,-1.2988,-1.3285,-1.3141,-1.2838,-1.9869,-1.988,-1.988,-2.0124,-2.0182,-2.0252,-2.0343,-2.0081,-2.0237,-2.1263,-2.0456,-1.9386,-1.8542,-1.6889,-1.5651,-1.5177,-1.3076,-1.1699,-1.1684,-1.1644,-1.1575,-1.1551,-1.1939,-1.2313,-1.256,-1.2313,-1.2421,-1.2887,-1.3942,-1.4657,-1.5084,-1.4706,-1.4547,-1.4475,-1.4389,-1.5158,-1.6613,-1.6818,-1.7774,-1.9178,-1.9636,-1.9833,-1.9695,-1.9028,-1.8975,-1.9092,-1.7635,-1.7022,-1.6653,-1.5268,-1.4762,-1.4689,-1.4834,-1.4641,-1.4193,-1.3338,-1.3082,-1.2822,-1.1792,-1.1687,-1.1763,-1.151,-1.1665,-1.2132,-1.3112,-1.3668,-1.4067,-1.4348,-1.4926,-1.5666,-1.6602,-1.6658,-1.6729,-1.7408,-1.7874,-1.7811,-1.6779,-1.7476,-1.7962,-1.7453,-1.7869,-1.8412,-1.8965,-1.9891,-2.0338,-2.0059,-2.138,-2.2248,-2.2419,-2.5232,-2.6472,-2.5691,-2.6311,-2.6056,-2.4775,-2.3571,-2.3003,-2.3093,-2.2253,-2.1453,-2.0665,-2.0133,-1.8783,-1.6891,-1.6838,-1.5688,-1.3828,-1.3749,-1.3459,-1.3007,-1.2786,-1.2999,-1.3395,-1.3064,-1.288,-1.2803,-1.9145,-1.9238,-1.9492,-2.0316,-2.0053,-1.9858,-2.0434,-1.992,-1.964,-2.0073,-1.9375,-1.8617,-1.783,-1.6321,-1.5103,-1.4562,-1.3096,-1.2004,-1.1626,-1.1931,-1.194,-1.1511,-1.2059,-1.2436,-1.2621,-1.2251,-1.2359,-1.2826,-1.3233,-1.3752,-1.4243,-1.4028,-1.4059,-1.4263,-1.4493,-1.5403,-1.6716,-1.684,-1.7787,-1.9186,-1.9352,-1.9445,-1.9384,-1.9081,-1.8922,-1.8684,-1.7435,-1.6771,-1.6337,-1.5521,-1.465,-1.3991,-1.4518,-1.4085,-1.3376,-1.3107,-1.2754,-1.2267,-1.1516,-1.1642,-1.185,-1.1665,-1.2199,-1.2773,-1.2791,-1.3538,-1.4291,-1.4384,-1.5017,-1.5662,-1.6223,-1.6727,-1.6999,-1.6886,-1.7338,-1.7426,-1.6635,-1.6911,-1.7112,-1.6886,-1.7061,-1.7536,-1.8507,-1.9297,-1.9819,-1.9925,-2.1698,-2.2758,-2.2768,-2.4681,-2.594,-2.6201,-2.5853,-2.5436,-2.4913,-2.3957,-2.3188,-2.2669,-2.2444,-2.2056,-2.1533,-2.0829,-1.9252,-1.7018,-1.6743,-1.5664,-1.4136,-1.4163,-1.3914,-1.3514,-1.3382,-1.3434,-1.3454,-1.3244,-1.3006,-1.2768,-1.8388,-1.8568,-1.8907,-1.9889,-1.962,-1.9427,-1.9695,-1.9703,-1.9487,-1.8889,-1.8193,-1.7591,-1.7115,-1.5817,-1.4714,-1.4101,-1.3032,-1.2201,-1.1724,-1.2164,-1.2178,-1.1662,-1.2174,-1.2498,-1.2621,-1.2189,-1.212,-1.2466,-1.2458,-1.2647,-1.3024,-1.316,-1.3602,-1.4297,-1.4478,-1.5255,-1.6493,-1.6695,-1.749,-1.8638,-1.8809,-1.8992,-1.9162,-1.8742,-1.8536,-1.8195,-1.6912,-1.6224,-1.5785,-1.5314,-1.4283,-1.33,-1.3768,-1.3413,-1.2785,-1.2387,-1.2101,-1.1823,-1.1366,-1.1683,-1.2187,-1.215,-1.3025,-1.3736,-1.3125,-1.3788,-1.4605,-1.4697,-1.5153,-1.5635,-1.6088,-1.6672,-1.6999,-1.6584,-1.6861,-1.6986,-1.6572,-1.6522,-1.6584,-1.6748,-1.7093,-1.7607,-1.827,-1.9463,-2.0152,-2.0127,-2.1894,-2.2705,-2.2076,-2.3876,-2.5192,-2.5719,-2.5376,-2.5122,-2.4999,-2.3952,-2.3039,-2.2248,-2.2309,-2.2152,-2.1743,-2.0811,-1.9346,-1.7484,-1.6632,-1.563,-1.4515,-1.4292,-1.4059,-1.3788,-1.3741,-1.3594,-1.3378,-1.3285,-1.2988,-1.2627,-1.7819,-1.7989,-1.8158,-1.8647,-1.9038,-1.8903,-1.7803,-1.9279,-1.9856,-1.7979,-1.6848,-1.634,-1.6599,-1.5341,-1.4363,-1.3924,-1.2712,-1.2019,-1.2003,-1.2019,-1.2019,-1.2011,-1.2057,-1.2251,-1.256,-1.1934,-1.1622,-1.1622,-1.1531,-1.147,-1.1331,-1.2197,-1.3456,-1.4864,-1.4174,-1.4705,-1.6032,-1.6223,-1.6695,-1.7378,-1.789,-1.8549,-1.9073,-1.7711,-1.7474,-1.7564,-1.5753,-1.5116,-1.5028,-1.4584,-1.3623,-1.2721,-1.2826,-1.2969,-1.285,-1.1047,-1.1073,-1.1628,-1.1217,-1.1855,-1.2675,-1.2939,-1.4031,-1.4965,-1.4463,-1.464,-1.5006,-1.5412,-1.5513,-1.5691,-1.638,-1.6479,-1.6522,-1.6522,-1.6522,-1.6522,-1.6522,-1.6522,-1.6735,-1.73,-1.8554,-1.9144,-1.8559,-2.0772,-2.1811,-2.0762,-2.1995,-2.1931,-1.9963,-2.2995,-2.4522,-2.3961,-2.5216,-2.5664,-2.5213,-2.3473,-2.2446,-2.2096,-2.1688,-2.1354,-2.0975,-1.956,-1.8677,-1.8192,-1.6667,-1.5535,-1.4732,-1.4072,-1.3821,-1.3788,-1.3594,-1.3344,-1.3091,-1.3091,-1.2814,-1.2377,-1.6417,-1.6595,-1.6661,-1.6867,-1.7008,-1.7141,-1.752,-1.7897,-1.787,-1.691,-1.5727,-1.5016,-1.5085,-1.4475,-1.3956,-1.3523,-1.2582,-1.2019,-1.2019,-1.2019,-1.2019,-1.2019,-1.2308,-1.2498,-1.2621,-1.2189,-1.1934,-1.1934,-1.1794,-1.1561,-1.1301,-1.2333,-1.2924,-1.3143,-1.3965,-1.473,-1.5497,-1.5898,-1.6578,-1.7379,-1.7521,-1.8055,-1.865,-1.7606,-1.7254,-1.718,-1.5643,-1.5105,-1.498,-1.4359,-1.3763,-1.3216,-1.2493,-1.1773,-1.123,-1.113,-1.1023,-1.1116,-1.1904,-1.249,-1.3104,-1.4178,-1.4404,-1.4496,-1.4801,-1.4708,-1.4731,-1.5379,-1.5513,-1.5691,-1.6392,-1.6522,-1.6522,-1.6522,-1.6522,-1.6522,-1.6522,-1.6522,-1.6627,-1.699,-1.7614,-1.8004,-1.8173,-1.9624,-2.0448,-2.0093,-2.1732,-2.2374,-2.1599,-2.2878,-2.394,-2.4547,-2.4783,-2.485,-2.4713,-2.3799,-2.272,-2.1495,-2.1493,-2.1301,-2.092,-2.0194,-1.9103,-1.7799,-1.7199,-1.6045,-1.4515,-1.4292,-1.3805,-1.3213,-1.3585,-1.3229,-1.2514,-1.2679,-1.2363,-1.1779,-1.4838,-1.5195,-1.5329,-1.5148,-1.5745,-1.6141,-1.5971,-1.5996,-1.5914,-1.5503,-1.4605,-1.3893,-1.3755,-1.3517,-1.3335,-1.305,-1.2397,-1.2075,-1.221,-1.2091,-1.2075,-1.2218,-1.244,-1.2621,-1.2621,-1.2127,-1.1941,-1.1941,-1.1559,-1.1265,-1.1117,-1.2011,-1.2494,-1.2712,-1.3673,-1.4556,-1.5303,-1.5853,-1.6528,-1.7146,-1.6983,-1.7362,-1.7972,-1.6854,-1.6491,-1.648,-1.5165,-1.4698,-1.4596,-1.4058,-1.3563,-1.3112,-1.2463,-1.1514,-1.0705,-1.099,-1.1057,-1.1217,-1.2135,-1.2803,-1.3467,-1.4414,-1.4563,-1.4484,-1.4915,-1.4616,-1.4419,-1.5142,-1.5367,-1.5691,-1.6207,-1.6436,-1.6522,-1.6522,-1.6522,-1.6522,-1.6522,-1.6607,-1.6812,-1.7329,-1.771,-1.8058,-1.8438,-1.9362,-1.9814,-1.958,-2.0978,-2.1709,-2.1403,-2.2702,-2.3743,-2.4264,-2.4166,-2.4079,-2.4039,-2.3363,-2.2408,-2.1215,-2.1261,-2.1055,-2.0679,-2.0398,-1.9305,-1.7572,-1.7271,-1.6118,-1.436,-1.3938,-1.339,-1.2836,-1.2846,-1.2379,-1.1701,-1.1795,-1.1465,-1.0988,-1.3439,-1.3951,-1.4207,-1.3802,-1.5202,-1.5734,-1.3504,-1.3895,-1.4371,-1.3878,-1.3504,-1.3107,-1.2636,-1.2602,-1.2621,-1.2621,-1.221,-1.2139,-1.2557,-1.2186,-1.2146,-1.2573,-1.2613,-1.256,-1.256,-1.2003,-1.1622,-1.1622,-1.0955,-1.069,-1.0801,-1.1413,-1.2218,-1.3226,-1.3442,-1.4186,-1.5332,-1.5941,-1.6389,-1.662,-1.6331,-1.6554,-1.6938,-1.5604,-1.5326,-1.5536,-1.4417,-1.3973,-1.3915,-1.3668,-1.316,-1.2667,-1.2618,-1.1981,-1.12,-1.0718,-1.1124,-1.176,-1.2021,-1.2812,-1.3716,-1.401,-1.4455,-1.4846,-1.4778,-1.4365,-1.415,-1.4766,-1.5187,-1.5603,-1.5944,-1.625,-1.6522,-1.6522,-1.6522,-1.6522,-1.6522,-1.6748,-1.7196,-1.8047,-1.8571,-1.899,-1.9277,-1.9768,-1.9836,-1.9322,-2.0014,-2.0268,-1.9817,-2.2396,-2.3643,-2.3154,-2.339,-2.34,-2.317,-2.2306,-2.1623,-2.1151,-2.0958,-2.0614,-2.0193,-2.0165,-1.9162,-1.7433,-1.6852,-1.5747,-1.4269,-1.3192,-1.2692,-1.2545,-1.169,-1.1118,-1.0716,-1.0562,-1.0295,-1.0048,-1.3844,-1.3655,-1.3321,-1.2783,-1.3372,-1.3807,-1.3447,-1.3591,-1.3645,-1.3248,-1.3154,-1.2996,-1.2648,-1.2607,-1.2621,-1.2621,-1.2188,-1.1978,-1.2123,-1.1813,-1.1773,-1.2131,-1.2417,-1.2498,-1.2251,-1.2313,-1.212,-1.1622,-1.1425,-1.1232,-1.0991,-1.1669,-1.2079,-1.2325,-1.3434,-1.4052,-1.4369,-1.5226,-1.585,-1.6126,-1.5601,-1.5541,-1.5667,-1.5035,-1.5072,-1.5344,-1.4359,-1.3868,-1.3668,-1.3372,-1.317,-1.3016,-1.2716,-1.2472,-1.2178,-1.156,-1.1751,-1.2178,-1.2618,-1.3314,-1.4057,-1.4547,-1.464,-1.4348,-1.3423,-1.3624,-1.4104,-1.4501,-1.5096,-1.5603,-1.5944,-1.625,-1.6522,-1.6522,-1.6522,-1.6522,-1.6522,-1.6748,-1.7125,-1.7744,-1.8288,-1.875,-1.9161,-1.9555,-1.9919,-2.0217,-2.0184,-2.0332,-2.0764,-2.1182,-2.1447,-2.1531,-2.2368,-2.253,-2.1949,-2.1862,-2.1421,-2.0662,-2.0357,-1.989,-1.9299,-1.8827,-1.7724,-1.6108,-1.5674,-1.4823,-1.3702,-1.3406,-1.2756,-1.1862,-1.1888,-1.1214,-1.0195,-1.0424,-1.0082,-0.9493,-1.2973,-1.2924,-1.262,-1.2098,-1.2403,-1.2764,-1.2783,-1.3111,-1.3171,-1.2624,-1.2879,-1.2957,-1.2661,-1.2621,-1.2621,-1.2621,-1.2193,-1.1879,-1.1654,-1.1697,-1.1813,-1.2011,-1.2248,-1.2375,-1.2313,-1.2189,-1.1872,-1.1373,-1.1498,-1.1392,-1.101,-1.1897,-1.2118,-1.1842,-1.3118,-1.3723,-1.3863,-1.4927,-1.5465,-1.5604,-1.5172,-1.4933,-1.483,-1.4447,-1.4441,-1.4473,-1.3847,-1.3515,-1.3372,-1.3142,-1.3132,-1.316,-1.2967,-1.2967,-1.2967,-1.2638,-1.2579,-1.2667,-1.3064,-1.3563,-1.4067,-1.4419,-1.4165,-1.3803,-1.3395,-1.3545,-1.3962,-1.4373,-1.5006,-1.5558,-1.5736,-1.6163,-1.6522,-1.6522,-1.6522,-1.6522,-1.6663,-1.6876,-1.7282,-1.7988,-1.8383,-1.8846,-1.9369,-1.9353,-1.9441,-1.9758,-1.9586,-1.9568,-1.9823,-1.9894,-2.028,-2.1034,-2.1425,-2.1513,-2.1167,-2.1124,-2.0833,-2.0254,-1.994,-1.9346,-1.855,-1.81,-1.6973,-1.5399,-1.5094,-1.4396,-1.3467,-1.3144,-1.2373,-1.1424,-1.1247,-1.0504,-0.9557,-0.9604,-0.9359,-0.8992,-1.165,-1.1917,-1.2158,-1.174,-1.2004,-1.217,-1.1837,-1.2487,-1.2755,-1.2109,-1.2626,-1.2893,-1.2599,-1.2621,-1.256,-1.2498,-1.2229,-1.1874,-1.1329,-1.1631,-1.1839,-1.1894,-1.1996,-1.2127,-1.2375,-1.1747,-1.131,-1.1122,-1.1373,-1.133,-1.095,-1.1905,-1.204,-1.1462,-1.2638,-1.3223,-1.3382,-1.4638,-1.5094,-1.4959,-1.4606,-1.4297,-1.4012,-1.3876,-1.3699,-1.3515,-1.3266,-1.317,-1.3122,-1.289,-1.2908,-1.3107,-1.3084,-1.3263,-1.346,-1.3507,-1.3303,-1.3165,-1.3307,-1.3606,-1.3875,-1.3893,-1.3564,-1.3318,-1.3763,-1.3768,-1.381,-1.4326,-1.5017,-1.5513,-1.5558,-1.6076,-1.6547,-1.6635,-1.6572,-1.6633,-1.6948,-1.7138,-1.7516,-1.8344,-1.8669,-1.9011,-1.9493,-1.9174,-1.8884,-1.876,-1.8782,-1.8617,-1.8268,-1.8726,-1.9473,-2.0573,-2.0397,-2.0385,-2.058,-2.0284,-2.001,-1.9797,-1.9493,-1.8826,-1.7813,-1.7475,-1.6443,-1.4904,-1.4663,-1.4124,-1.3387,-1.2718,-1.1994,-1.121,-1.0463,-0.9672,-0.8967,-0.8684,-0.86,-0.86,-1.0965,-1.1582,-1.2144,-1.152,-1.173,-1.183,-1.1543,-1.1758,-1.2034,-1.2014,-1.2367,-1.2631,-1.2599,-1.2621,-1.2428,-1.2035,-1.229,-1.2324,-1.1901,-1.1437,-1.1299,-1.159,-1.163,-1.156,-1.131,-1.0933,-1.087,-1.1122,-1.1122,-1.1022,-1.0657,-1.1128,-1.127,-1.1176,-1.1785,-1.2156,-1.2456,-1.3608,-1.4019,-1.3959,-1.2924,-1.2689,-1.2912,-1.3183,-1.3276,-1.3266,-1.3208,-1.3094,-1.2861,-1.2451,-1.2464,-1.2579,-1.2464,-1.2602,-1.2775,-1.2947,-1.3281,-1.3559,-1.3369,-1.3215,-1.313,-1.3441,-1.3414,-1.3278,-1.3188,-1.3548,-1.4057,-1.4408,-1.5051,-1.5603,-1.5856,-1.625,-1.6685,-1.7162,-1.6835,-1.6728,-1.7472,-1.7342,-1.7434,-1.7988,-1.85,-1.8822,-1.8936,-1.9294,-1.9237,-1.8425,-1.8659,-1.8548,-1.799,-1.8044,-1.8207,-1.8384,-1.8998,-1.9367,-1.9546,-1.9391,-1.9161,-1.8893,-1.8717,-1.7932,-1.6577,-1.6159,-1.5296,-1.4067,-1.3621,-1.3377,-1.322,-1.2891,-1.2164,-1.1247,-1.0669,-0.9836,-0.8967,-0.8684,-0.86,-0.86,-1.0593,-1.1256,-1.1706,-1.1306,-1.1385,-1.1378,-1.1236,-1.1457,-1.1605,-1.1496,-1.197,-1.2241,-1.2081,-1.2251,-1.2112,-1.1548,-1.1684,-1.1752,-1.1629,-1.1533,-1.1338,-1.0966,-1.1254,-1.11,-1.0527,-1.0547,-1.0691,-1.0807,-1.0707,-1.0611,-1.0528,-1.0938,-1.0982,-1.0783,-1.1428,-1.1754,-1.1983,-1.2707,-1.3002,-1.2947,-1.2632,-1.247,-1.2395,-1.2842,-1.3046,-1.3045,-1.3045,-1.2968,-1.2812,-1.2383,-1.2606,-1.3042,-1.2772,-1.2901,-1.326,-1.3597,-1.351,-1.3303,-1.3476,-1.3335,-1.3097,-1.2968,-1.3017,-1.3055,-1.2847,-1.3207,-1.3774,-1.4261,-1.4957,-1.5603,-1.5944,-1.625,-1.6609,-1.6873,-1.6685,-1.6739,-1.7351,-1.7284,-1.7328,-1.7628,-1.7908,-1.8134,-1.8284,-1.8129,-1.7927,-1.7817,-1.7836,-1.7692,-1.7421,-1.7706,-1.7882,-1.7882,-1.8397,-1.8808,-1.902,-1.8974,-1.8808,-1.8602,-1.8047,-1.7143,-1.596,-1.5303,-1.4462,-1.3514,-1.3301,-1.3129,-1.2978,-1.2838,-1.2037,-1.0845,-1.0605,-0.9803,-0.8778,-0.8656,-0.86,-0.86,-0.9903,-1.0635,-1.1109,-1.0901,-1.0979,-1.1075,-1.0935,-1.1138,-1.1265,-1.1101,-1.1556,-1.1829,-1.163,-1.1809,-1.1774,-1.1148,-1.1066,-1.1066,-1.1148,-1.145,-1.1327,-1.0721,-1.0919,-1.0753,-1.0167,-1.0235,-1.0335,-1.0335,-1.0224,-1.0222,-1.0208,-1.0516,-1.0512,-1.0217,-1.0727,-1.1091,-1.1343,-1.1648,-1.1791,-1.1913,-1.2339,-1.2286,-1.2049,-1.2438,-1.2685,-1.2783,-1.2783,-1.2783,-1.2716,-1.2326,-1.2759,-1.3382,-1.2983,-1.3159,-1.3565,-1.3805,-1.327,-1.2748,-1.363,-1.339,-1.2904,-1.2872,-1.2817,-1.2794,-1.2915,-1.313,-1.3554,-1.4444,-1.5049,-1.558,-1.602,-1.6349,-1.6559,-1.6697,-1.6609,-1.6688,-1.7297,-1.7173,-1.7076,-1.7281,-1.7237,-1.7264,-1.7461,-1.688,-1.6653,-1.7001,-1.693,-1.691,-1.6871,-1.7342,-1.7585,-1.7585,-1.7973,-1.8319,-1.85,-1.85,-1.8313,-1.7926,-1.7227,-1.6351,-1.5299,-1.4627,-1.3877,-1.3094,-1.3163,-1.3012,-1.2697,-1.2697,-1.1834,-1.0498,-1.0446,-0.9682,-0.86,-0.86,-0.8496,-0.8354,-0.8518,-0.9667,-1.0548,-1.0168,-1.062,-1.0929,-1.0698,-1.0665,-1.079,-1.1031,-1.1219,-1.1346,-1.1589,-1.1622,-1.149,-1.1156,-1.0801,-1.0676,-1.0654,-1.0674,-1.0807,-1.1156,-1.08,-1.0611,-1.0584,-0.9839,-0.9497,-0.9497,-0.9969,-0.9881,-0.9321,-0.9368,-0.9379,-0.9285,-0.9105,-0.9402,-1.0119,-1.0148,-1.0347,-1.0656,-1.1065,-1.1453,-1.1719,-1.1778,-1.2026,-1.2323,-1.2323,-1.2323,-1.2316,-1.2232,-1.2503,-1.2896,-1.2494,-1.2616,-1.2868,-1.2484,-1.2014,-1.1986,-1.3838,-1.303,-1.1953,-1.327,-1.2922,-1.2579,-1.38,-1.3718,-1.3842,-1.5516,-1.552,-1.5489,-1.6293,-1.6466,-1.6685,-1.7237,-1.6873,-1.6827,-1.7787,-1.704,-1.652,-1.7,-1.6743,-1.647,-1.6245,-1.6393,-1.633,-1.5949,-1.6344,-1.6572,-1.6468,-1.6612,-1.6717,-1.6717,-1.7504,-1.7828,-1.7598,-1.7598,-1.7115,-1.6176,-1.6137,-1.544,-1.4208,-1.4134,-1.364,-1.2838,-1.3094,-1.2908,-1.2449,-1.2449,-1.1663,-1.0478,-1.0232,-0.9511,-0.86,-0.86,-0.816,-0.7619,-0.8656,-0.9039,-0.9291,-0.9713,-1.0033,-1.014,-1.0033,-1.004,-1.0066,-1.0207,-1.0402,-1.0551,-1.0446,-1.0781,-1.0756,-1.0274,-1.0458,-1.0461,-1.0226,-1.0454,-1.0688,-1.0814,-1.0657,-1.0343,-0.988,-0.9791,-0.9637,-0.9253,-0.9327,-0.9296,-0.9219,-0.9078,-0.9083,-0.922,-0.9097,-0.9321,-0.9777,-0.9947,-1.0051,-1.0205,-1.0565,-1.0812,-1.1065,-1.204,-1.1917,-1.1282,-1.1931,-1.24,-1.2637,-1.2299,-1.2719,-1.3227,-1.2536,-1.2807,-1.3314,-1.2759,-1.228,-1.2167,-1.3204,-1.2735,-1.2014,-1.2287,-1.2505,-1.2674,-1.2749,-1.3372,-1.4098,-1.4933,-1.5154,-1.5482,-1.6336,-1.6233,-1.6195,-1.676,-1.666,-1.6683,-1.7243,-1.7063,-1.6691,-1.6249,-1.6227,-1.605,-1.5576,-1.5298,-1.5148,-1.5247,-1.5748,-1.587,-1.5488,-1.6188,-1.6611,-1.665,-1.7183,-1.7406,-1.7323,-1.7323,-1.6857,-1.5991,-1.5645,-1.5006,-1.4072,-1.3697,-1.3281,-1.2803,-1.2908,-1.247,-1.1676,-1.1832,-1.1046,-0.9768,-0.9885,-0.9377,-0.8572,-0.8326,-0.806,-0.7786,-0.8371,-0.8557,-0.8722,-0.9253,-0.9562,-0.9686,-0.9686,-0.9686,-0.9719,-0.9806,-1.0055,-1.0089,-0.9761,-1.0255,-1.0356,-0.9787,-1.0265,-1.0474,-1.0199,-1.043,-1.06,-1.0618,-1.0486,-1.0094,-0.9492,-0.9572,-0.9391,-0.886,-0.8699,-0.8669,-0.8772,-0.8615,-0.8665,-0.8955,-0.8955,-0.912,-0.9465,-0.9681,-0.9784,-0.9888,-1.0213,-1.0352,-1.0498,-1.1532,-1.1362,-1.0679,-1.1625,-1.2252,-1.2645,-1.2464,-1.2949,-1.3476,-1.271,-1.285,-1.3193,-1.2944,-1.2443,-1.2029,-1.2316,-1.2124,-1.186,-1.1735,-1.2151,-1.2534,-1.2438,-1.3237,-1.4175,-1.4853,-1.5053,-1.536,-1.6115,-1.5957,-1.5819,-1.6195,-1.6409,-1.6607,-1.6876,-1.6847,-1.6596,-1.5967,-1.5745,-1.5479,-1.505,-1.4507,-1.4299,-1.4462,-1.5007,-1.523,-1.4971,-1.563,-1.614,-1.6455,-1.6425,-1.6615,-1.6976,-1.7073,-1.6615,-1.5656,-1.5452,-1.4803,-1.3821,-1.3478,-1.3103,-1.2662,-1.2627,-1.206,-1.1222,-1.1281,-1.0583,-0.9465,-0.951,-0.9126,-0.8477,-0.8088,-0.7798,-0.7557,-0.726,-0.8279,-0.9072,-0.8676,-0.9194,-0.9679,-0.9679,-0.9679,-0.9786,-1.0074,-1.0114,-1.0036,-0.9806,-1.0295,-1.0358,-0.9837,-1.0295,-1.0624,-1.0624,-1.0629,-1.0602,-1.0611,-1.0199,-0.9905,-0.9704,-0.9093,-0.861,-0.8212,-0.8222,-0.8111,-0.7882,-0.7882,-0.8083,-0.8427,-0.842,-0.8684,-0.9211,-0.9211,-0.9361,-0.9614,-0.9799,-0.9991,-1.0167,-0.9976,-1.0249,-1.0769,-1.1477,-1.1863,-1.2208,-1.2705,-1.32,-1.3538,-1.3072,-1.2595,-1.2298,-1.2748,-1.2225,-1.1448,-1.126,-1.1201,-1.1373,-1.204,-1.2068,-1.2181,-1.3254,-1.3568,-1.4067,-1.5648,-1.5385,-1.5079,-1.5593,-1.5693,-1.5693,-1.5693,-1.6158,-1.6607,-1.6863,-1.6401,-1.6083,-1.627,-1.5306,-1.4615,-1.4615,-1.4238,-1.3881,-1.3527,-1.4171,-1.4741,-1.5095,-1.4839,-1.5103,-1.5977,-1.5153,-1.5259,-1.6454,-1.6735,-1.623,-1.4928,-1.5429,-1.4788,-1.3223,-1.3472,-1.3155,-1.2365,-1.2186,-1.1737,-1.1164,-1.0848,-1.0349,-0.9711,-0.914,-0.8679,-0.8354,-0.7937,-0.7319,-0.6703,-0.8063,-0.8043,-0.8002,-0.8648,-0.8558,-0.8569,-0.926,-0.9091,-0.9131,-0.9714,-0.9505,-0.936,-0.9688,-0.9688,-0.9803,-0.9995,-1.0372,-1.0624,-1.0624,-1.0629,-1.0228,-0.9352,-0.9636,-0.967,-0.9479,-0.9046,-0.8732,-0.8619,-0.8417,-0.8279,-0.8092,-0.7762,-0.7876,-0.837,-0.8156,-0.8387,-0.8956,-0.9106,-0.9263,-0.9309,-0.951,-0.9629,-0.9755,-0.971,-1.0058,-1.0697,-1.1639,-1.2245,-1.2669,-1.2832,-1.3104,-1.329,-1.3219,-1.2393,-1.1625,-1.2247,-1.1787,-1.1088,-1.1185,-1.1292,-1.1485,-1.189,-1.1933,-1.2234,-1.3484,-1.411,-1.4521,-1.5089,-1.5364,-1.5492,-1.5668,-1.5379,-1.5241,-1.563,-1.5831,-1.5986,-1.6027,-1.6395,-1.6478,-1.6134,-1.5892,-1.5645,-1.5203,-1.4848,-1.4456,-1.4108,-1.3747,-1.3932,-1.4827,-1.4541,-1.4484,-1.4734,-1.5073,-1.5054,-1.4677,-1.5752,-1.5862,-1.5118,-1.4655,-1.3915,-1.2906,-1.2804,-1.2434,-1.1813,-1.1487,-1.0895,-1.0201,-0.9859,-0.9316,-0.8671,-0.8489,-0.8228,-0.7908,-0.7383,-0.7014,-0.6807,-0.768,-0.7672,-0.7616,-0.8075,-0.8037,-0.8057,-0.8577,-0.8453,-0.8531,-0.9204,-0.8918,-0.8747,-0.9084,-0.9124,-0.922,-0.9345,-0.965,-0.9875,-0.9875,-0.9926,-0.9748,-0.9191,-0.8915,-0.8809,-0.8826,-0.8639,-0.8487,-0.8283,-0.8009,-0.7809,-0.7725,-0.7553,-0.7708,-0.8064,-0.7956,-0.8234,-0.8781,-0.8811,-0.8847,-0.879,-0.8876,-0.9069,-0.9314,-0.9424,-0.9775,-1.0304,-1.1319,-1.2214,-1.2867,-1.2743,-1.2732,-1.2863,-1.3278,-1.2404,-1.134,-1.2018,-1.1583,-1.0926,-1.0937,-1.1067,-1.1276,-1.1799,-1.198,-1.2276,-1.3106,-1.4011,-1.4723,-1.4977,-1.5374,-1.5693,-1.5693,-1.5349,-1.5184,-1.5643,-1.5757,-1.581,-1.581,-1.6223,-1.6353,-1.586,-1.5695,-1.5555,-1.5347,-1.499,-1.4588,-1.4183,-1.353,-1.3423,-1.4132,-1.3835,-1.3812,-1.4094,-1.4486,-1.4467,-1.3929,-1.4837,-1.5,-1.4393,-1.4004,-1.3383,-1.2536,-1.2384,-1.199,-1.1435,-1.087,-1.0435,-1.0064,-0.9258,-0.8802,-0.8562,-0.8054,-0.781,-0.7647,-0.7026,-0.6786,-0.6725,-0.6649,-0.7167,-0.7542,-0.7265,-0.7618,-0.7868,-0.7773,-0.7723,-0.7901,-0.8488,-0.8331,-0.8221,-0.8222,-0.8597,-0.8715,-0.8238,-0.8482,-0.8655,-0.8655,-0.8912,-0.9188,-0.9571,-0.8331,-0.7717,-0.7951,-0.8133,-0.7964,-0.7497,-0.7212,-0.7083,-0.7105,-0.7335,-0.7533,-0.7654,-0.7829,-0.8194,-0.8718,-0.8445,-0.8315,-0.8233,-0.8233,-0.8455,-0.8813,-0.9158,-0.945,-0.9813,-1.0704,-1.179,-1.2798,-1.2391,-1.2239,-1.2384,-1.315,-1.2392,-1.139,-1.2048,-1.1602,-1.0863,-1.072,-1.0643,-1.0824,-1.1651,-1.2037,-1.2316,-1.245,-1.3504,-1.4566,-1.5028,-1.5447,-1.5756,-1.5665,-1.5447,-1.5323,-1.5611,-1.5812,-1.5959,-1.5928,-1.5964,-1.5869,-1.5558,-1.5034,-1.4825,-1.5175,-1.4853,-1.4393,-1.3939,-1.3454,-1.3153,-1.3153,-1.2912,-1.3104,-1.3905,-1.3638,-1.3673,-1.3987,-1.409,-1.3838,-1.3212,-1.3437,-1.2991,-1.2048,-1.2075,-1.1778,-1.1175,-1.0376,-1.0177,-1.0371,-0.8967,-0.8649,-0.8951,-0.7795,-0.7432,-0.7471,-0.6807,-0.6565,-0.6543,-0.7512,-0.7044,-0.6639,-0.726,-0.673,-0.6513,-0.7262,-0.7024,-0.7022,-0.8006,-0.7834,-0.7794,-0.8131,-0.8153,-0.8213,-0.8325,-0.8437,-0.8462,-0.8462,-0.8591,-0.8664,-0.867,-0.8553,-0.8534,-0.8585,-0.8339,-0.7922,-0.7401,-0.7589,-0.7719,-0.7681,-0.7288,-0.7432,-0.8037,-0.7791,-0.7837,-0.82,-0.8497,-0.8615,-0.8584,-0.8584,-0.8627,-0.8685,-0.9071,-0.9659,-1.0351,-1.0556,-1.1358,-1.2289,-1.2225,-1.2329,-1.2353,-1.1873,-1.1743,-1.1735,-1.1696,-1.1297,-1.0934,-1.1045,-1.0964,-1.0823,-1.0716,-1.1337,-1.2213,-1.3076,-1.358,-1.3969,-1.4265,-1.5377,-1.6123,-1.5438,-1.5447,-1.5529,-1.5323,-1.5587,-1.5662,-1.541,-1.5733,-1.5869,-1.5558,-1.5363,-1.5336,-1.5425,-1.4939,-1.4446,-1.409,-1.3283,-1.2808,-1.2808,-1.2485,-1.2589,-1.3129,-1.3496,-1.3707,-1.3739,-1.3806,-1.3595,-1.3189,-1.2575,-1.2005,-1.1456,-1.1263,-1.1009,-1.0743,-1.023,-0.9823,-0.9506,-0.8721,-0.8263,-0.7958,-0.7329,-0.7107,-0.7077,-0.6543,-0.6368,-0.6368,-0.7081,-0.6693,-0.6321,-0.6613,-0.6208,-0.6003,-0.6575,-0.6388,-0.6409,-0.7058,-0.688,-0.688,-0.7294,-0.7238,-0.732,-0.7628,-0.7576,-0.7507,-0.7507,-0.7459,-0.761,-0.8135,-0.8321,-0.8389,-0.8359,-0.818,-0.7829,-0.7351,-0.7515,-0.7521,-0.7252,-0.6963,-0.7066,-0.7556,-0.7468,-0.7811,-0.84,-0.8414,-0.8454,-0.8587,-0.881,-0.8648,-0.8339,-0.9116,-0.9723,-1.0222,-1.0434,-1.1122,-1.1986,-1.2378,-1.2533,-1.2453,-1.2104,-1.1949,-1.1887,-1.1867,-1.1568,-1.1214,-1.1081,-1.0991,-1.0908,-1.094,-1.1168,-1.1659,-1.2478,-1.3359,-1.4104,-1.4381,-1.5531,-1.6293,-1.5709,-1.5575,-1.5618,-1.5575,-1.5434,-1.5305,-1.5317,-1.5413,-1.5367,-1.5017,-1.4971,-1.5051,-1.5187,-1.4725,-1.435,-1.4177,-1.3309,-1.2814,-1.2814,-1.2641,-1.2628,-1.2889,-1.3434,-1.3466,-1.2986,-1.3215,-1.2922,-1.2084,-1.1863,-1.1497,-1.0954,-1.051,-1.0343,-1.0437,-0.979,-0.9621,-0.9685,-0.8787,-0.8296,-0.8071,-0.729,-0.6927,-0.6777,-0.6429,-0.6315,-0.6276,-0.6328,-0.6245,-0.6087,-0.5835,-0.5751,-0.5735,-0.5715,-0.5696,-0.5747,-0.595,-0.5888,-0.5959,-0.6245,-0.6333,-0.6438,-0.6688,-0.6524,-0.6421,-0.6421,-0.6377,-0.6678,-0.7583,-0.7776,-0.7872,-0.7919,-0.7836,-0.7616,-0.7248,-0.7255,-0.7024,-0.6612,-0.6529,-0.6566,-0.6713,-0.7014,-0.762,-0.8486,-0.8143,-0.8247,-0.8616,-0.8944,-0.8731,-0.8226,-0.9086,-0.9509,-0.9683,-1.0089,-1.0822,-1.172,-1.2512,-1.2673,-1.2606,-1.2635,-1.2404,-1.2089,-1.2194,-1.1963,-1.1582,-1.1058,-1.0884,-1.0923,-1.1228,-1.1103,-1.1077,-1.1562,-1.2967,-1.4241,-1.4499,-1.5526,-1.625,-1.5901,-1.568,-1.5635,-1.5724,-1.5266,-1.5006,-1.5244,-1.4926,-1.4631,-1.4362,-1.4373,-1.4479,-1.4665,-1.4417,-1.4237,-1.4237,-1.3507,-1.302,-1.302,-1.2944,-1.2933,-1.302,-1.3423,-1.3249,-1.2421,-1.273,-1.2244,-1.0964,-1.1345,-1.1214,-1.0534,-1.0056,-1.001,-1.0244,-0.9609,-0.9612,-1.0012,-0.8887,-0.8413,-0.8295,-0.7324,-0.6807,-0.6565,-0.6337,-0.6253,-0.6214,-0.6267,-0.5678,-0.5121,-0.5277,-0.4951,-0.4738,-0.4875,-0.478,-0.4798,-0.5032,-0.5466,-0.5711,-0.5702,-0.6018,-0.6257,-0.6262,-0.6234,-0.6215,-0.6215,-0.6569,-0.6707,-0.6416,-0.7133,-0.7681,-0.7883,-0.767,-0.7379,-0.6945,-0.7052,-0.694,-0.6619,-0.6292,-0.6216,-0.6272,-0.6393,-0.675,-0.7244,-0.7547,-0.829,-0.9273,-0.9156,-0.9121,-0.916,-0.8741,-0.8735,-0.9048,-0.9209,-1.0102,-1.1298,-1.2025,-1.2529,-1.2714,-1.2008,-1.2233,-1.2694,-1.2324,-1.2141,-1.195,-1.1249,-1.0837,-1.0498,-1.0206,-1.0606,-1.1176,-1.1535,-1.2453,-1.3343,-1.363,-1.475,-1.5599,-1.513,-1.5534,-1.568,-1.4812,-1.4915,-1.4915,-1.4455,-1.4137,-1.3982,-1.4061,-1.4244,-1.4266,-1.3916,-1.4169,-1.4367,-1.4367,-1.3893,-1.3587,-1.3587,-1.3129,-1.3096,-1.3576,-1.342,-1.3332,-1.3237,-1.3091,-1.2389,-1.1247,-1.1308,-1.0985,-1.0371,-1.0596,-1.0566,-1.0293,-1.0537,-1.0147,-0.9301,-0.8793,-0.8222,-0.7575,-0.6909,-0.6626,-0.6565,-0.6176,-0.6029,-0.599,-0.5667,-0.537,-0.5065,-0.4966,-0.4678,-0.457,-0.4667,-0.4633,-0.4636,-0.4772,-0.4965,-0.5232,-0.5414,-0.5894,-0.6178,-0.6178,-0.6178,-0.6178,-0.6178,-0.6391,-0.6549,-0.6588,-0.6977,-0.7186,-0.7194,-0.7388,-0.7239,-0.6733,-0.7128,-0.7182,-0.6883,-0.6712,-0.659,-0.646,-0.6742,-0.6795,-0.6782,-0.7983,-0.8636,-0.8882,-0.9608,-0.9447,-0.8877,-0.9152,-0.9096,-0.8997,-0.9888,-1.0606,-1.1244,-1.2263,-1.2725,-1.2812,-1.2469,-1.2616,-1.2842,-1.2646,-1.2588,-1.2396,-1.1593,-1.1258,-1.1029,-1.0615,-1.0794,-1.1213,-1.1862,-1.2321,-1.2879,-1.3715,-1.4654,-1.5209,-1.4949,-1.504,-1.4994,-1.4593,-1.4189,-1.4022,-1.4329,-1.3902,-1.3737,-1.419,-1.4109,-1.4013,-1.4067,-1.4264,-1.4373,-1.4373,-1.4187,-1.4033,-1.3906,-1.3781,-1.3584,-1.3329,-1.3352,-1.3052,-1.2394,-1.2267,-1.1768,-1.0924,-1.0924,-1.0705,-1.0283,-1.004,-0.9972,-1.001,-0.9758,-0.9509,-0.9219,-0.863,-0.8095,-0.7603,-0.6884,-0.6374,-0.6006,-0.5765,-0.5578,-0.5414]},{"header":{"parameterUnit":"m.s-1","parameterCategory":1,"la1":30.6,"la2":28.766,"lo1":-90.7593,"lo2":-88.6598,"dy":0.0162,"dx":0.0183,"nx":116,"ny":114,"refTime":"2023-05-18T00:00:00:Z","depth":0,"parameterNumber":3,"parameterNumberName":"V-component_of_WINDS"},"data":[0.0,0.0,0.0,0.0,0.0,0.0,0.0,0.0,0.0,0.0,0.0,0.0,0.0,0.0,0.0,0.0,0.0,0.0,0.0,0.0,0.0,0.0,0.0,0.0,0.0,0.0,0.0,0.0,0.0,0.0,0.0,0.0,0.0,0.0,0.0,0.0,0.0,0.0,0.0,0.0,0.0,0.0,0.0,0.0,0.0,0.0,0.0,0.0,0.0,0.0,0.0,0.0,0.0,0.0,0.0,0.0,0.0,0.0,0.0,0.0,0.0,0.0,0.0,0.0,0.0,0.0,0.0,0.0,0.0,0.0,0.0,0.0,0.0,0.0,0.0,0.0,0.0,0.0,0.0,0.0,0.0,0.0,0.0,0.0,0.0,0.0,0.0,0.0,0.0,0.0,0.0,0.0,0.0,0.0,0.0,0.0,0.0,0.0,0.0,0.0,0.0,0.0,0.0,0.0,0.0,0.0,0.0,0.0,0.0,0.0,0.0,0.0,0.0,0.0,0.0,0.0,0.0,0.0,0.0,0.0,0.0,0.0,0.0,0.0,0.0,0.0,0.0,0.0,0.0,0.0,0.0,0.0,0.0,0.0,0.0,0.0,0.0,0.0,0.0,0.0,0.0,0.0,0.0,0.0,0.0,0.0,0.0,0.0,0.0,0.0,0.0,0.0,0.0,0.0,0.0,0.0,0.0,0.0,0.0,0.0,0.0,0.0,0.0,0.0,0.0,0.0,0.0,0.0,0.0,0.0,0.0,0.0,0.0,0.0,0.0,0.0,0.0,0.0,0.0,0.0,0.0,0.0,0.0,0.0,0.0,0.0,0.0,0.0,0.0,0.0,0.0,0.0,0.0,0.0,0.0,0.0,0.0,0.0,0.0,0.0,0.0,0.0,0.0,0.0,0.0,0.0,0.0,0.0,0.0,0.0,0.0,0.0,0.0,0.0,0.0,0.0,0.0,0.0,0.0,0.0,0.0,0.0,0.0,0.0,0.0,0.0,0.0,0.0,0.0,0.0,0.0,0.0,0.0,0.0,0.0,0.0,0.0,0.0,0.0,0.0,0.0,0.0,0.0,0.0,0.0,0.0,0.0,0.0,0.0,0.0,0.0,0.0,0.0,0.0,0.0,0.0,0.0,0.0,0.0,0.0,0.0,0.0,0.0,0.0,0.0,0.0,0.0,0.0,0.0,0.0,0.0,0.0,0.0,0.0,0.0,0.0,0.0,0.0,0.0,0.0,0.0,0.0,0.0,0.0,0.0,0.0,0.0,0.0,0.0,0.0,0.0,0.0,0.0,0.0,0.0,0.0,0.0,0.0,0.0,0.0,0.0,0.0,0.0,0.0,0.0,0.0,0.0,0.0,0.0,0.0,0.0,0.0,0.0,0.0,0.0,0.0,0.0,0.0,0.0,0.0,0.0,0.0,0.0,0.0,0.0,0.0,0.0,0.0,0.0,0.0,0.0,0.0,0.0,0.0,0.0,0.0,0.0,0.0,0.0,0.0,0.0,0.0,0.0,0.0,0.0,0.0,0.0,0.0,0.0,0.0,0.0,0.0,0.0,0.0,0.0,0.0,0.0,0.0,0.0,0.0,0.0,0.0,0.0,0.0,0.0,0.0,0.0,0.0,0.0,0.0,0.0,0.0,0.0,0.0,0.0,0.0,0.0,0.0,0.0,0.0,0.0,0.0,0.0,0.0,0.0,0.0,0.0,0.0,0.0,0.0,0.0,0.0,0.0,0.0,0.0,0.0,0.0,0.0,0.0,0.0,0.0,0.0,0.0,0.0,0.0,0.0,0.0,0.0,0.0,0.0,0.0,0.0,0.0,0.0,0.0,0.0,0.0,0.0,0.0,0.0,0.0,0.0,0.0,0.0,0.0,0.0,0.0,0.0,0.0,0.0,0.0,0.0,0.0,0.0,0.0,0.0,0.0,0.0,0.0,0.0,0.0,0.0,0.0,0.0,0.0,0.0,0.0,0.0,0.0,0.0,0.0,0.0,0.0,0.0,0.0,0.0,0.0,0.0,0.0,0.0,0.0,0.0,0.0,0.0,0.0,0.0,0.0,0.0,0.0,0.0,0.0,0.0,0.0,0.0,0.0,0.0,0.0,0.0,0.0,0.0,0.0,0.0,0.0,0.0,0.0,0.0,0.0,0.0,0.0,0.0,0.0,0.0,0.0,0.0,0.0,0.0,0.0,0.0,0.0,0.0,0.0,0.0,0.0,0.0,0.0,0.0,0.0,0.0,0.0,0.0,0.0,0.0,0.0,0.0,0.0,0.0,0.0,0.0,0.0,0.0,0.0,0.0,0.0,0.0,0.0,0.0,0.0,0.0,0.0,0.0,0.0,0.0,0.0,0.0,0.0,0.0,0.0,0.0,0.0,0.0,0.0,0.0,0.0,0.0,0.0,0.0,0.0,0.0,0.0,0.0,0.0,0.0,0.0,0.0,0.0,0.0,0.0,0.0,0.0,0.0,0.0,0.0,0.0,0.0,0.0,0.0,0.0,0.0,0.0,0.0,0.0,0.0,0.0,0.0,0.0,0.0,0.0,0.0,0.0,0.0,0.0,0.0,0.0,0.0,0.0,0.0,0.0,0.0,0.0,0.0,0.0,0.0,0.0,0.0,0.0,0.0,0.0,0.0,0.0,0.0,0.0,0.0,0.0,0.0,0.0,0.0,0.0,0.0,0.0,0.0,0.0,0.0,0.0,0.0,0.0,0.0,0.0,0.0,0.0,0.0,0.0,0.0,0.0,0.0,0.0,0.0,0.0,0.0,0.0,0.0,0.0,0.0,0.0,0.0,0.0,0.0,0.0,0.0,0.0,0.0,0.0,0.0,0.0,0.0,0.0,0.0,0.0,0.0,0.0,0.0,0.0,0.0,0.0,0.0,0.0,0.0,0.0,0.0,0.0,0.0,0.0,0.0,0.0,0.0,0.0,0.0,0.0,0.0,0.0,0.0,0.0,0.0,0.0,0.0,0.0,0.0,0.0,0.0,0.0,0.0,0.0,0.0,0.0,0.0,0.0,0.0,0.0,0.0,0.0,0.0,0.0,0.0,0.0,0.0,0.0,0.0,0.0,0.0,0.0,0.0,0.0,0.0,0.0,0.0,0.0,0.0,0.0,0.0,0.0,0.0,0.0,0.0,0.0,0.0,0.0,0.0,0.0,0.0,0.0,0.0,0.0,0.0,0.0,0.0,0.0,0.0,0.0,0.0,0.0,0.0,0.0,0.0,0.0,0.0,0.0,0.0,0.0,0.0,0.0,0.0,0.0,0.0,0.0,0.0,0.0,0.0,0.0,0.0,0.0,0.0,0.0,0.0,0.0,0.0,0.0,0.0,0.0,0.0,0.0,0.0,0.0,0.0,0.0,0.0,0.0,0.0,0.0,0.0,0.0,0.0,0.0,0.0,0.0,0.0,0.0,0.0,0.0,0.0,0.0,0.0,0.0,0.0,0.0,0.0,0.0,0.0,0.0,0.0,0.0,0.0,0.0,0.0,0.0,0.0,0.0,0.0,0.0,0.0,0.0,0.0,0.0,0.0,0.0,0.0,0.0,0.0,0.0,0.0,0.0,0.0,0.0,0.0,0.0,0.0,0.0,0.0,0.0,0.0,0.0,0.0,0.0,0.0,0.0,0.0,0.0,0.0,0.0,0.0,0.0,0.0,0.0,0.0,0.0,0.0,0.0,0.0,0.0,0.0,0.0,0.0,0.0,0.0,0.0,0.0,0.0,0.0,0.0,0.0,0.0,0.0,0.0,0.0,0.0,0.0,0.0,0.0,0.0,0.0,0.0,0.0,0.0,0.0,0.0,0.0,0.0,0.0,0.0,0.0,0.0,0.0,0.0,0.0,0.0,0.0,0.0,0.0,0.0,0.0,0.0,0.0,0.0,0.0,0.0,0.0,0.0,0.0,0.0,0.0,0.0,0.0,0.0,0.0,0.0,0.0,0.0,0.0,0.0,0.0,0.0,0.0,0.0,0.0,0.0,0.0,0.0,0.0,0.0,0.0,0.0,0.0,0.0,0.0,0.0,0.0,0.0,0.0,0.0,0.0,0.0,0.0,0.0,0.0,0.0,0.0,0.0,0.0,0.0,0.0,0.0,0.0,0.0,0.0,0.0,0.0,0.0,0.0,0.0,0.0,0.0,0.0,0.0,0.0,0.0,0.0,0.0,0.0,0.0,0.0,0.0,0.0,0.0,0.0,0.0,0.0,0.0,0.0,0.0,0.0,0.0,0.0,0.0,0.0,0.0,0.0,0.0,0.0,0.0,0.0,0.0,0.0,0.0,0.0,0.0,0.0,0.0,0.0,0.0,0.0,0.0,0.0,0.0,0.0,0.0,0.0,0.0,0.0,0.0,0.0,0.0,0.0,0.0,0.0,0.0,0.0,0.0,0.0,0.0,0.0,0.0,0.0,0.0,0.0,0.0,0.0,0.0,0.0,0.0,0.0,0.0,0.0,0.0,0.0,0.0,0.0,0.0,0.0,0.0,0.0,0.0,0.0,0.0,0.0,0.0,0.0,0.0,0.0,0.0,0.0,0.0,0.0,0.0,0.0,0.0,0.0,0.0,0.0,0.0,0.0,0.0,0.0,0.0,0.0,0.0,0.0,0.0,0.0,0.0,0.0,0.0,0.0,0.0,0.0,0.0,0.0,0.0,0.0,0.0,0.0,0.0,0.0,0.0,0.0,0.0,0.0,0.0,0.0,0.0,0.0,0.0,0.0,0.0,0.0,0.0,0.0,0.0,0.0,0.0,0.0,0.0,0.0,0.0,0.0,0.0,0.0,0.0,0.0,0.0,0.0,0.0,0.0,0.0,0.0,0.0,0.0,0.0,0.0,0.0,0.0,0.0,0.0,0.0,0.0,0.0,0.0,0.0,0.0,0.0,0.0,0.0,0.0,0.0,0.0,0.0,0.0,0.0,0.0,0.0,0.0,0.0,0.0,0.0,0.0,0.0,0.0,0.0,0.0,0.0,0.0,0.0,0.0,0.0,0.0,0.0,0.0,0.0,0.0,0.0,0.0,0.0,0.0,0.0,0.0,0.0,0.0,0.0,0.0,0.0,0.0,0.0,0.0,0.0,0.0,0.0,0.0,0.0,0.0,0.0,0.0,0.0,0.0,0.0,0.0,0.0,0.0,0.0,0.0,0.0,0.0,0.0,0.0,0.0,0.0,0.0,0.0,0.0,0.0,0.0,0.0,0.0,0.0,0.0,0.0,0.0,0.0,0.0,0.0,0.0,0.0,0.0,0.0,0.0,0.0,0.0,0.0,0.0,0.0,0.0,0.0,0.0,0.0,0.0,0.0,0.0,0.0,0.0,0.0,0.0,0.0,0.0,0.0,0.0,0.0,0.0,0.0,0.0,0.0,0.0,0.0,0.0,0.0,0.0,0.0,0.0,0.0,0.0,0.0,0.0,0.0,0.0,0.0,0.0,0.0,0.0,0.0,0.0,0.0,0.0,0.0,0.0,0.0,0.0,0.0,0.0,0.0,0.0,0.0,0.0,0.0,0.0,0.0,0.0,0.0,0.0,0.0,0.0,0.0,0.0,0.0,0.0,0.0,0.0,0.0,0.0,0.0,0.0,0.0,0.0,0.0,0.0,0.0,0.0,0.0,0.0,0.0,0.0,0.0,0.0,0.0,0.0,0.0,0.0,0.0,0.0,0.0,0.0,0.0,0.0,0.0,0.0,0.0,0.0,0.0,0.0,0.0,0.0,0.0,0.0,0.0,0.0,0.0,0.0,0.0,0.0,0.0,0.0,0.0,0.0,0.0,0.0,0.0,0.0,0.0,0.0,0.0,0.0,0.0,0.0,0.0,0.0,0.0,0.0,0.0,0.0,0.0,0.0,0.0,0.0,0.0,0.0,0.0,0.0,0.0,0.0,0.0,0.0,0.0,0.0,0.0,0.0,0.0,0.0,0.0,0.0,0.0,0.0,0.0,0.0,0.0,0.0,0.0,0.0,0.0,0.0,0.0,0.0,0.0,0.0,0.0,0.0,0.0,0.0,0.0,0.0,0.0,0.0,0.0,0.0,0.0,0.0,0.0,0.0,0.0,0.0,0.0,0.0,0.0,0.0,0.0,0.0,0.0,-0.8049,-0.6977,0.0,0.0,0.0,0.0,0.0,0.0,0.0,0.0,0.0,0.0,0.0,0.0,0.0,0.0,0.0,0.0,0.0,0.0,0.0,0.0,0.0,0.0,0.0,0.0,0.0,0.0,0.0,0.0,0.0,0.0,0.0,0.0,0.0,0.0,0.0,0.0,0.0,0.0,0.0,0.0,0.0,0.0,0.0,0.0,0.0,0.0,0.0,0.0,0.0,0.0,0.0,0.0,0.0,0.0,0.0,0.0,0.0,0.0,0.0,0.0,0.0,0.0,0.0,0.0,0.0,0.0,0.0,0.0,0.0,0.0,0.0,0.0,0.0,0.0,0.0,0.0,0.0,0.0,0.0,0.0,0.0,0.0,0.0,0.0,0.0,0.0,0.0,0.0,0.0,0.0,0.0,0.0,0.0,0.0,0.0,0.0,0.0,0.0,0.0,0.0,0.0,0.0,0.0,0.0,0.0,0.0,0.0,0.0,0.0,0.0,0.0,0.0,0.0,0.0,-0.9132,-0.8806,0.0,0.0,0.0,0.0,0.0,0.0,0.0,0.0,0.0,0.0,0.0,0.0,0.0,0.0,0.0,0.0,0.0,0.0,0.0,0.0,0.0,0.0,0.0,0.0,0.0,0.0,0.0,0.0,0.0,0.0,0.0,0.0,0.0,0.0,0.0,0.0,0.0,0.0,0.0,0.0,0.0,0.0,0.0,0.0,0.0,0.0,0.0,0.0,0.0,0.0,0.0,0.0,0.0,0.0,0.0,0.0,0.0,0.0,0.0,0.0,0.0,0.0,0.0,0.0,0.0,0.0,0.0,0.0,0.0,0.0,0.0,0.0,0.0,0.0,0.0,0.0,0.0,0.0,0.0,0.0,0.0,0.0,0.0,0.0,0.0,0.0,0.0,0.0,0.0,0.0,0.0,0.0,0.0,0.0,0.0,0.0,0.0,0.0,0.0,0.0,0.0,0.0,0.0,0.0,0.0,0.0,0.0,0.0,-0.7951,-0.8301,-0.8697,-1.0135,-1.0826,-1.0883,-1.034,-1.0953,-1.2196,-1.0594,0.0,0.0,0.0,0.0,0.0,0.0,0.0,0.0,0.0,0.0,0.0,0.0,0.0,0.0,0.0,0.0,0.0,0.0,0.0,0.0,0.0,0.0,0.0,0.0,0.0,0.0,0.0,0.0,0.0,0.0,0.0,0.0,0.0,0.0,0.0,0.0,0.0,0.0,-0.5325,-0.7088,-0.9358,-1.2106,-1.4673,0.0,0.0,0.0,0.0,0.0,0.0,0.0,0.0,0.0,0.0,0.0,0.0,0.0,0.0,0.0,0.0,0.0,0.0,0.0,0.0,0.0,0.0,0.0,0.0,0.0,0.0,0.0,0.0,0.0,0.0,0.0,0.0,0.0,0.0,0.0,0.0,0.0,0.0,0.0,0.0,0.0,0.0,0.0,-0.4093,-0.562,0.0,0.0,0.0,0.0,0.0,0.0,0.0,0.0,0.0,0.0,0.0,0.0,0.0,-0.6726,-0.6612,-0.8198,-0.9349,-0.9911,-1.1309,-1.206,-1.2336,-1.2744,-1.3127,-1.3442,-1.4101,0.0,-1.2401,-1.2963,0.0,0.0,0.0,0.0,0.0,0.0,0.0,0.0,0.0,0.0,0.0,0.0,0.0,0.0,0.0,0.0,0.0,0.0,0.0,0.0,0.0,0.0,0.0,0.0,0.0,0.0,0.0,0.0,0.0,0.0,0.0,0.0,0.0,0.0,0.0,0.0,-0.3435,-0.2752,-0.3008,-0.5397,-0.8235,-1.1433,-1.4122,-1.5854,-1.6922,-1.801,0.0,0.0,0.0,0.0,0.0,0.0,0.0,0.0,0.0,0.0,0.0,0.0,0.0,0.0,0.0,0.0,0.0,0.0,0.0,0.0,0.0,0.0,0.0,0.0,0.0,0.0,0.0,0.0,0.0,0.0,0.0,0.0,0.0,0.0,0.0,0.0,0.0,0.0,0.0,-0.1695,-0.2374,-0.4285,-0.5117,-0.5963,0.0,0.0,0.0,0.0,0.0,0.0,0.0,0.0,0.0,-0.7279,-0.786,-0.8582,-0.9449,-1.0178,-1.086,-1.1686,-1.2347,-1.3095,-1.3834,-1.4112,-1.4523,-1.5004,-1.5547,-1.5573,-1.5177,-1.4697,-1.4756,-1.4989,0.0,0.0,0.0,0.0,-1.2577,-1.2181,0.0,0.0,0.0,0.0,0.0,0.0,0.0,0.0,0.0,0.0,0.0,0.0,0.0,0.0,0.0,-1.6421,0.0,0.0,0.0,0.0,0.0,0.0,0.0,0.0,0.0,0.0,0.0,-0.1298,-0.1309,-0.1347,-0.1579,-0.4563,-0.7795,-1.1255,-1.4005,-1.5994,-1.7335,-1.8563,-1.8852,0.0,0.0,0.0,0.0,0.0,0.0,0.0,0.0,0.0,0.0,0.0,0.0,0.0,0.0,0.0,0.0,0.0,0.0,0.0,0.0,0.0,0.0,0.0,0.0,0.0,0.0,0.0,0.0,0.0,0.0,0.0,0.0,0.0,0.0,0.0,0.0,0.0,0.0,0.0975,-0.0444,-0.283,-0.3702,-0.4829,0.0,0.0,0.0,0.0,0.0,0.0,-0.7098,-0.7522,-0.8285,-0.9314,-0.9597,-1.0533,-1.207,-1.1867,-1.2264,-1.3253,-1.3394,-1.3976,-1.5042,-1.5325,-1.5869,-1.6648,-1.6857,-1.7448,-1.8092,-1.6492,-1.6321,-1.698,-1.56,-1.5106,-1.5153,-1.4729,-1.4212,-1.3924,0.0,0.0,0.0,0.0,0.0,0.0,0.0,0.0,0.0,0.0,0.0,0.0,0.0,0.0,-1.0762,-1.1145,-1.4032,-1.6179,0.0,0.0,0.0,0.0,0.0,0.0,0.0,0.0,0.0,0.0684,0.0274,-0.0656,-0.2204,-0.5173,-0.8105,-1.1051,-1.457,-1.6613,-1.7466,-1.8936,-1.9487,-1.9345,0.0,0.0,0.0,0.0,0.0,0.0,0.0,0.0,0.0,0.0,0.0,0.0,0.0,0.0,0.0,0.0,0.0,0.0,0.0,0.0,0.0,0.0,0.0,0.0,0.0,0.0,0.0,0.0,0.0,0.0,0.0,0.0,0.0,0.0,0.0,0.0,0.0,0.0,0.0,-0.1492,-0.2903,0.0,0.0,0.0,0.0,-0.7598,-0.8067,-0.8179,-0.7673,-0.9653,-1.0697,-1.0533,-1.1595,-1.2418,-1.3119,-1.3105,-1.3665,-1.4807,-1.5155,-1.5791,-1.6495,-1.6816,-1.7671,-1.884,-1.8877,-1.9469,-2.0292,-1.8506,-1.8193,-1.878,-1.803,-1.77,-1.7645,-1.6906,-1.6327,-1.5961,0.0,0.0,0.0,0.0,0.0,0.0,0.0,0.0,0.0,0.0,0.0,0.0,0.0,-0.8694,-0.7196,-0.8081,-1.1242,-1.421,-1.6608,0.0,0.0,0.0,0.0,0.0,0.0,0.0,-0.0926,-0.0315,-0.0438,-0.1527,-0.3594,-0.6106,-0.8917,-1.1985,-1.4587,-1.66,-1.8123,-1.9556,-2.0063,-1.9875,-2.0026,-2.0133,0.0,0.0,0.0,0.0,0.0,0.0,0.0,0.0,0.0,0.0,0.0,0.0,0.0,0.0,0.0,0.0,0.0,0.0,0.0,0.0,0.0,0.0,0.0,0.0,0.0,0.0,0.0,0.0,0.0,0.0,0.0,0.0,0.0,0.0,0.0,0.0,0.0,0.0558,-0.1048,0.0,-0.6591,-0.7507,-0.8377,-0.9501,-1.0256,-1.0785,-1.0872,-1.1579,-1.1893,-1.17,-1.2202,-1.2592,-1.2813,-1.3233,-1.3754,-1.4503,-1.5166,-1.6094,-1.7259,-1.7352,-1.7998,-1.9149,-1.8874,-1.9156,-1.9799,-1.9143,-1.9329,-1.9961,-1.9325,-1.8931,-1.8767,-1.8507,-1.7781,-1.6936,0.0,0.0,0.0,0.0,0.0,0.0,0.0,0.0,0.0,0.0,0.0,-0.877,-0.5668,-0.3218,-0.2527,-0.4379,-0.8757,-1.2791,-1.6064,0.0,0.0,0.0,0.0,0.0,0.0,-0.2691,-0.0368,-0.0267,-0.0924,-0.2568,-0.5136,-0.7626,-1.0281,-1.3167,-1.5549,-1.7196,-1.8306,-2.0027,-2.0906,-2.1181,-2.1555,-2.1707,-2.1697,0.0,0.0,0.0,0.0,0.0,0.0,0.0,0.0,0.0,0.0,0.0,0.0,0.0,0.0,0.0,0.0,0.0,0.0,0.0,0.0,0.0,0.0,0.0,0.0,0.0,0.0,0.0,0.0,0.0,0.0,0.0,0.0,0.0,0.0,0.5107,0.4483,0.2122,0.0198,-0.239,-0.5914,-0.7981,-0.976,-1.1171,-1.2053,-1.2659,-1.2949,-1.2949,-1.2869,-1.2725,-1.2713,-1.2826,-1.3164,-1.3685,-1.4258,-1.478,-1.5538,-1.6517,-1.7624,-1.7698,-1.8462,-1.975,-1.9427,-1.957,-2.011,-1.9924,-2.0163,-2.0587,-1.9873,-1.9504,-1.9333,-1.9159,-1.844,-1.7528,0.0,0.0,0.0,0.0,0.0,0.0,0.0,0.0,0.0,0.0,-0.7774,-0.2841,0.322,0.4413,0.3404,-0.0046,-0.6702,-1.2119,-1.5411,-1.8978,0.0,0.0,0.0,0.0,-0.3951,-0.1899,-0.032,0.0833,-0.1123,-0.3655,-0.6735,-0.9658,-1.2223,-1.4484,-1.7459,-1.8464,-1.8038,-2.0351,-2.2062,-2.3324,-2.3996,-2.4389,-2.4497,0.0,0.0,0.0,0.0,0.0,0.0,0.0,0.0,0.0,0.0,0.0,0.0,0.0,0.0,0.0,0.0,0.0,0.0,0.0,0.0,0.0,0.0,0.0,0.0,0.0,0.0,0.0,0.0,0.0,0.0,0.0,0.0,0.0,0.6552,0.5784,0.4711,0.3132,0.0549,-0.254,-0.6363,-0.9087,-1.1131,-1.2586,-1.3289,-1.3631,-1.3615,-1.3538,-1.3531,-1.3453,-1.3135,-1.3361,-1.4304,-1.4715,-1.51,-1.5634,-1.6403,-1.709,-1.7636,-1.8025,-1.9063,-2.0607,-2.0583,-2.0925,-2.1393,-2.092,-2.0693,-2.0589,-1.9735,-1.942,-1.9368,-1.8827,-1.8333,-1.782,0.0,0.0,0.0,0.0,0.0,0.0,0.0,0.0,0.0,0.0,-0.5479,0.0091,0.5138,0.7258,0.576,-0.0556,-0.6032,-1.1776,-1.7982,0.0,0.0,0.0,0.0,0.0,-0.2677,-0.0151,0.0618,-0.0426,-0.3001,-0.5758,-0.875,-1.1603,-1.3967,-1.5905,-1.7776,-1.9003,-1.9782,-2.1354,-2.2929,-2.4345,-2.4206,-2.4559,-2.5152,0.0,0.0,0.0,0.0,0.0,0.0,0.0,0.0,0.0,0.0,0.0,0.0,0.0,0.0,0.0,0.0,0.0,0.0,0.0,0.0,0.0,0.0,0.0,0.0,0.0,0.0,0.0,0.0,0.0,0.0,0.0,0.6735,0.8075,0.739,0.7121,0.6392,0.4604,0.1677,-0.159,-0.5159,-0.8024,-1.0677,-1.3114,-1.3697,-1.4026,-1.4202,-1.4186,-1.3852,-1.3119,-1.3123,-1.3332,-1.3838,-1.4397,-1.4997,-1.5623,-1.6441,-1.7369,-1.8342,-1.8364,-1.9126,-2.0318,-1.9927,-1.9904,-2.0263,-2.01,-2.0037,-2.0024,-1.9758,-1.9759,-1.9798,-1.9356,-1.8524,-1.7512,0.0,0.0,0.0,0.0,0.0,0.0,0.0,0.0,0.0,0.0,-0.3261,0.1946,0.7172,0.9104,0.6961,-0.0575,-0.5662,-1.1254,-1.7803,0.0,0.0,0.0,0.0,-0.523,-0.1489,0.0101,-0.0252,-0.2582,-0.531,-0.8283,-1.1468,-1.3765,-1.5718,-1.7367,-1.8595,-1.9734,-2.0803,-2.1977,-2.3237,-2.4503,-2.4869,-2.5276,-2.5702,-2.6158,-2.6016,-2.5633,-2.5679,-2.572,-2.5651,-2.4784,0.0,0.0,0.0,0.0,0.0,0.0,0.0,0.0,0.0,0.0,0.0,0.0,0.0,0.0,0.0,0.0,0.0,0.0,0.0,0.0,0.0,0.0,0.0,0.0,0.8142,0.9205,0.8382,0.8054,0.7199,0.5343,0.2073,-0.1342,-0.4745,-0.7883,-1.0686,-1.3114,-1.3915,-1.4401,-1.4753,-1.4454,-1.3991,-1.3435,-1.3474,-1.3721,-1.4013,-1.4674,-1.5168,-1.5517,-1.6215,-1.702,-1.8014,-1.7968,-1.864,-1.9875,-1.9556,-1.9565,-1.9798,-1.9798,-1.9798,-1.9811,0.0,0.0,0.0,0.0,-1.8906,-1.7969,0.0,0.0,0.0,0.0,0.0,0.0,0.0,0.0,0.0,0.0,0.0,0.2947,0.9158,1.008,0.7323,0.0073,-0.5356,-1.0754,0.0,0.0,0.0,-1.0781,-0.8265,-0.4914,-0.0395,-0.0601,-0.2233,-0.5341,-0.8064,-1.1069,-1.4281,-1.6015,-1.7453,-1.8654,-1.9668,-2.0584,-2.1422,-2.2322,-2.3254,-2.4264,-2.5633,-2.6135,-2.6143,-2.6812,-2.6561,-2.593,-2.6517,-2.6549,-2.6231,-2.6002,0.0,0.0,0.0,0.0,0.0,0.0,0.0,0.0,0.0,0.0,0.0,0.0,0.0,0.0,0.0,0.0,0.0,0.0,0.0,0.0,0.0,0.0,0.0,0.0,0.9283,1.0289,0.926,0.8439,0.7265,0.5387,0.2084,-0.1371,-0.4751,-0.8042,-1.083,-1.2711,-1.37,-1.4449,-1.4951,-1.4461,0.0,0.0,0.0,-1.4189,-1.4529,-1.52,-1.5561,-1.5536,-1.6039,-1.6646,-1.7424,-1.7424,-1.8201,-1.9473,-1.9473,-1.9565,-1.9798,-1.9798,-1.985,-1.9952,-2.0308,-2.0472,-2.0395,-1.9969,-1.9433,-1.8756,0.0,0.0,0.0,0.0,0.0,0.0,0.0,0.0,0.0,-0.4721,-0.1135,0.3303,1.0445,0.9992,0.7293,0.2556,-0.4279,-1.1054,0.0,0.0,-1.5557,-0.8542,-0.6984,-0.4274,0.0048,-0.1456,-0.4156,-0.7965,-1.1558,-1.3965,-1.5217,-1.8063,-1.9098,-1.8668,-2.0195,-2.1423,-2.2359,-2.2591,-2.3605,-2.5066,-2.537,-2.5894,-2.6622,-2.7747,-2.8111,-2.808,-2.867,-2.8989,-2.8947,-2.7772,-2.757,-2.754,-2.6218,-2.5051,0.0,0.0,0.0,0.0,0.0,0.0,0.0,0.0,0.0,0.0,0.0,0.0,0.0,0.0,0.0,0.0,0.0,0.0,0.0,0.6356,0.8343,0.946,0.8505,0.7399,0.6043,0.4443,0.1876,-0.0965,-0.4003,-0.6604,-0.9087,-1.1414,-1.2373,-1.3145,-1.3736,-1.398,-1.4081,-1.4013,-1.3985,-1.4309,-1.4911,-1.5046,-1.5566,-1.6524,-1.686,0.0,-1.8655,-1.8869,-1.9239,-1.9708,-1.9708,-1.9759,-1.9798,-1.9798,-2.0194,-2.0795,-2.0845,-2.0894,-2.0828,-2.0604,-1.994,-1.9081,0.0,0.0,0.0,0.0,0.0,0.0,0.0,0.0,0.0,0.0,-0.4425,-0.0574,0.4002,0.4408,0.2819,-0.097,-0.6818,0.0,0.0,-1.4608,-1.0786,-0.3889,-0.2982,-0.1141,0.2088,-0.09,-0.4941,-0.9941,-1.3406,-1.6014,-1.7783,-1.957,-2.0234,-1.9993,-2.0858,-2.1808,-2.2749,-2.2789,-2.362,-2.4955,-2.4946,-2.5317,-2.5976,-2.7121,-2.7841,-2.8338,-2.9049,-2.9581,-2.9833,-2.9129,-2.8896,-2.8735,-2.7917,-2.6955,-2.5873,0.0,0.0,0.0,0.0,0.0,0.0,0.0,0.0,0.0,0.0,0.0,0.0,0.0,0.0,-0.2504,-0.0238,0.0,0.3413,0.5123,0.6647,0.7159,0.5823,0.487,0.4088,0.3498,0.1387,-0.1084,-0.3939,-0.6188,-0.8442,-1.0814,-1.1769,-1.2699,-1.3713,-1.3913,-1.4031,-1.401,-1.4309,-1.4675,-1.497,-1.5644,-1.6105,-1.6467,-1.7066,-1.7835,-1.8632,-1.8489,-1.8931,-1.9786,-1.9522,-1.9409,-1.9409,-1.9598,-2.0348,-2.1299,-2.1299,-2.1444,-2.1568,-2.1162,-2.0433,-1.952,0.0,0.0,0.0,0.0,0.0,0.0,0.0,0.0,0.0,0.0,-0.8283,-0.5337,-0.3258,-0.2025,-0.2815,0.0,0.0,0.0,0.0,-0.9675,-0.526,0.0512,0.083,0.1729,0.3592,-0.0575,-0.5543,-1.1221,-1.436,-1.7114,-1.9437,-2.0175,-2.0533,-2.0544,-2.0994,-2.1654,-2.2443,-2.2502,-2.3206,-2.4282,-2.4294,-2.455,-2.4995,-2.5817,-2.6757,-2.7707,-2.8511,-2.9113,-2.9536,-2.9533,-2.934,-2.9055,-2.8978,-2.8446,-2.7454,-2.5366,-2.4871,0.0,0.0,0.0,0.0,0.0,0.0,0.0,0.0,-0.8017,-0.6578,-0.4893,-0.4378,-0.331,-0.0441,0.0319,0.1156,0.3259,0.4102,0.392,0.2251,0.1337,0.0832,0.0979,-0.0319,-0.2299,-0.5153,-0.6764,-0.8471,-1.064,-1.1439,-1.236,-1.3605,-1.3874,-1.401,-1.413,-1.4666,-1.5088,-1.5196,-1.6236,-1.6646,-1.64,-1.7216,-1.7913,-1.8436,-1.8007,-1.8473,-1.9623,-1.9095,-1.8869,-1.8955,-1.9378,-2.0213,-2.1274,-2.1492,-2.1652,-2.1777,-2.1316,-2.0564,-1.9692,0.0,0.0,0.0,0.0,0.0,0.0,0.0,0.0,0.0,0.0,0.0,0.0,0.0,0.0,0.0,0.0,0.0,0.0,-1.03,-0.5866,-0.1704,0.1932,0.1432,0.1458,0.2303,-0.2118,-0.6695,-1.1291,-1.4637,-1.6496,-1.7037,-1.8978,-1.9126,-1.7823,-1.9688,-2.0602,-2.0789,-2.1098,-2.1978,-2.3181,-2.3231,-2.3639,-2.422,-2.4406,-2.5332,-2.666,-2.7474,-2.781,-2.7874,-2.7876,-2.7878,-2.7874,-2.775,-2.8076,-2.7842,-2.4472,-2.4376,-2.4714,-2.1938,-2.0666,-1.9796,-1.8224,-1.5987,-1.3682,0.0,-0.9373,-0.7349,-0.638,-0.4398,-0.2628,-0.1917,-0.1042,-0.0203,0.0329,0.0064,-0.0608,-0.1705,-0.3382,-0.4826,-0.5795,-0.5022,-0.5744,-0.9066,-0.8712,-0.9,-1.0651,-1.1017,-1.145,-1.2166,-1.3363,-1.413,-1.441,-1.4784,-1.5313,-1.5999,-1.6107,-1.6566,-1.7357,-1.792,-1.8464,-1.891,-1.8855,-1.8958,-1.9083,-1.853,-1.8469,-1.8784,-1.9166,-1.9615,-2.0083,-2.0966,-2.1046,-2.0583,-2.0526,-2.0049,-1.9362,0.0,0.0,0.0,0.0,0.0,0.0,0.0,0.0,0.0,0.0,0.0,0.0,0.0,0.0,0.0,0.0,0.0,0.0,-0.6865,-0.2733,0.1605,0.6248,0.5375,0.4341,0.3468,-0.1024,-0.5732,-1.0547,-1.3357,-1.5372,-1.6627,-1.8112,-1.8528,-1.804,-1.9277,-1.9957,-2.0157,-2.0297,-2.0966,-2.1949,-2.1968,-2.238,-2.2959,-2.3217,-2.3749,-2.4514,-2.5625,-2.6395,0.0,0.0,-2.6805,-2.6921,-2.7148,-2.7222,-2.6857,-2.4724,-2.4269,-2.3931,-2.175,-2.0067,-1.8574,-1.7224,-1.5487,-1.3502,-1.1224,-0.9319,-0.7826,-0.6921,-0.606,-0.5415,-0.4957,-0.4556,-0.424,-0.4203,-0.4237,-0.4589,-0.5627,-0.6988,-0.8765,-1.1027,-1.0637,-1.0142,-1.004,-1.0131,-1.0497,-1.1439,-1.164,-1.2081,-1.2834,-1.3752,-1.4478,-1.4874,-1.5362,-1.5941,-1.6524,-1.7073,-1.7405,-1.7534,-1.8469,-1.8731,-1.8518,-1.8388,-1.8223,-1.8053,-1.7827,-1.8214,-1.9035,-1.887,-1.9334,-2.0184,-2.0609,-2.0386,-1.9922,-2.0639,-2.0288,-1.9348,0.0,0.0,0.0,0.0,0.0,0.0,0.0,0.0,0.0,0.0,0.0,0.0,0.0,0.0,0.0,0.0,0.0,0.0,0.0,-0.0243,0.4123,0.9168,0.7925,0.6261,0.4339,-0.0181,-0.4683,-0.9151,-1.1546,-1.379,-1.5781,-1.6658,-1.7263,-1.7566,-1.8268,-1.8841,-1.9266,-1.9324,-1.995,-2.0829,-2.0715,-2.1051,-2.1647,-2.2014,-2.2324,-2.2744,-2.4136,-2.5095,0.0,0.0,-2.5597,-2.5595,-2.5975,-2.5892,-2.5426,-2.4181,-2.3385,-2.257,-2.0968,-1.9477,-1.7959,-1.6398,-1.5081,-1.3506,-1.1129,-0.998,-0.9233,-0.8498,-0.8559,-0.8623,-0.8518,-0.8388,-0.8308,-0.8427,-0.8257,-0.8421,-0.9228,-1.039,-1.205,-1.4287,-1.4717,-1.4042,-1.1824,-1.1833,-1.1982,-1.2104,-1.2258,-1.252,-1.3078,-1.3983,-1.4706,-1.5177,-1.5816,-1.64,-1.6976,-1.7663,-1.7878,-1.77,-1.8577,-1.8738,-1.8181,-1.7848,-1.7526,-1.727,-1.727,-1.793,-1.89,-1.8457,-1.8933,-1.9894,-2.0063,-1.974,-1.9263,-2.0372,-2.0091,-1.9137,0.0,0.0,0.0,0.0,0.0,0.0,0.0,0.0,0.0,0.0,0.0,0.0,0.0,0.0,0.0,0.0,0.0,0.0,0.0,0.1564,0.5507,0.9154,0.7537,0.5738,0.4054,-0.0389,-0.4129,-0.7116,-0.9442,-1.1666,-1.369,-1.4242,-1.4744,-1.5163,-1.6152,-1.7015,-1.7699,-1.7938,-1.8809,-1.9919,-1.9523,-1.9768,-2.0393,-2.067,-2.1157,-2.1938,-2.34,0.0,0.0,-2.4368,-2.4065,-2.3619,-2.375,-2.3914,-2.3743,-2.2081,-2.1306,-2.0725,-1.9501,-1.8796,-1.7932,-1.598,-1.5016,-1.4059,-1.2467,-1.2183,-1.2179,-1.1827,-1.1633,-1.1706,-1.2315,-1.1917,-1.1592,-1.188,-1.1922,-1.2034,-1.2327,-1.3754,-1.4774,-1.4985,-1.6333,-1.681,-1.5618,-1.4197,-1.3124,-1.2504,-1.2389,-1.2212,-1.2042,-1.3623,-1.4706,-1.5177,-1.5816,-1.657,-1.7468,-1.749,-1.7711,-1.8084,-1.8171,-1.8229,-1.8169,-1.7656,-1.7251,-1.7018,-1.7018,-1.7406,-1.8043,-1.8029,-1.8256,-1.863,-1.9193,-1.9053,-1.8616,-1.9207,-1.9053,-1.8545,0.0,0.0,0.0,0.0,0.0,0.0,0.0,0.0,0.0,0.0,0.0,0.0,0.0,0.0,0.0,0.0,-1.4104,0.0,0.0,-0.1011,0.2514,0.5525,0.6074,0.5144,0.2708,-0.0359,-0.3182,-0.5751,-0.7844,-0.9688,-1.1258,-1.2641,-1.3461,-1.3787,-1.5137,-1.5928,-1.6319,-1.6688,-1.7443,-1.833,-1.7821,-1.8049,-1.8677,-1.8844,-1.9409,-2.0206,0.0,0.0,0.0,-2.1562,-2.1607,-2.2076,-2.2008,-2.1995,-2.1876,-2.1222,-2.0775,-2.0336,-1.9534,-1.8733,-1.7824,-1.6479,-1.5479,-1.46,-1.3932,-1.3459,-1.3328,-1.4107,-1.3544,-1.3301,-1.4578,-1.4398,-1.41,-1.4307,-1.4946,-1.5224,-1.4771,-1.5372,-1.5853,-1.5698,-1.5978,-1.6146,-1.5986,-1.5847,-1.5226,-1.3914,-1.3537,-1.3364,-1.3338,-1.3752,-1.4569,-1.5911,-1.6332,-1.6965,-1.7865,-1.792,-1.7858,-1.7845,-1.7519,-1.7433,-1.7669,-1.7314,-1.6944,-1.668,-1.7131,-1.7462,-1.7679,-1.7908,-1.8214,-1.8531,-1.8703,-1.8661,-1.8531,-1.8885,-1.8969,-1.8936,0.0,0.0,0.0,0.0,0.0,0.0,0.0,0.0,0.0,0.0,0.0,0.0,0.0,0.0,0.0,0.0,0.0,-1.1761,0.0,0.0,-0.1139,0.2037,0.2751,0.2108,0.01,-0.198,-0.4151,-0.6378,-0.7769,-0.911,-1.0438,-1.1714,-1.2461,-1.2852,-1.4053,-1.4824,-1.5216,-1.5552,-1.6154,-1.6966,-1.6783,-1.701,-1.7496,-1.8101,-1.8781,0.0,0.0,0.0,-2.1399,-2.0293,-2.0361,-2.0904,-2.0693,-2.0615,-2.0629,-2.0844,-2.0682,-2.0325,-1.9739,-1.8946,-1.8032,-1.6806,-1.588,-1.5195,-1.4944,-1.4693,-1.4802,-1.595,-1.5411,-1.516,-1.6407,-1.6726,-1.6548,-1.5904,-1.6646,-1.682,-1.5448,-1.5263,-1.5269,-1.5209,-1.5235,-1.5342,-1.5661,-1.6322,-1.6083,-1.4519,-1.4094,-1.3923,-1.3881,-1.4112,-1.4855,-1.6255,-1.6626,-1.7104,-1.7863,-1.7917,-1.7926,-1.7716,-1.7169,-1.6967,-1.7061,-1.7004,-1.6964,-1.6892,-1.731,-1.7639,-1.7841,-1.7962,-1.8214,-1.8517,-1.8517,-1.8542,-1.8606,-1.886,-1.9109,-1.9258,0.0,0.0,0.0,0.0,0.0,0.0,0.0,0.0,0.0,0.0,0.0,0.0,0.0,0.0,0.0,0.0,0.0,0.0,0.0,0.0,0.0,-0.1317,-0.213,-0.2962,-0.3559,-0.5099,-0.6775,-0.8616,-0.8894,-0.9746,-1.1116,-1.1445,-1.1825,-1.2228,-1.3055,-1.3838,-1.4472,-1.4511,-1.5073,-1.5903,-1.6397,-1.6683,-1.6951,-1.8288,0.0,0.0,0.0,0.0,-2.0544,-2.037,-2.0048,-1.972,-1.9691,-1.9632,-1.9798,-2.0889,-2.1022,-2.0683,-2.0152,-1.9479,-1.8546,-1.6931,-1.6292,-1.5975,-1.5599,-1.5909,-1.6543,-1.7369,-1.7193,-1.7193,-1.7987,-1.8887,-1.8806,-1.6815,-1.7177,-1.6943,-1.4602,-1.3737,-1.336,-1.3591,-1.4139,-1.4672,-1.4902,-1.569,-1.5728,-1.4382,-1.4172,-1.4001,-1.3803,-1.4697,-1.5555,-1.627,-1.6591,-1.695,-1.7399,-1.7622,-1.7769,-1.7761,-1.7149,-1.6744,-1.6552,-1.6879,-1.7214,-1.7516,-1.7557,-1.7935,-1.8478,-1.8161,-1.8254,-1.8517,-1.8517,-1.8644,-1.886,-1.9132,-1.9369,-1.9566,0.0,0.0,0.0,0.0,0.0,0.0,0.0,0.0,0.0,0.0,0.0,0.0,0.0,0.0,0.0,0.0,0.0,0.0,0.0,0.0,0.0,0.0,0.0,0.0,0.0,0.0,0.0,-0.8586,-0.9466,-1.0223,-1.0895,-1.1518,-1.1968,-1.2244,-1.3086,-1.3811,-1.4358,-1.4887,-1.567,-1.6535,0.0,-1.6703,-1.7162,0.0,0.0,0.0,0.0,-1.8783,-2.001,-1.8414,-1.6407,-1.4937,-1.7389,-1.7503,-1.7527,-2.1434,-2.2325,-2.193,-2.1441,-2.0543,-1.9453,-1.8373,-1.772,-1.729,-1.7199,-1.7549,-1.812,-1.9127,-1.8182,-1.7782,-1.967,-2.0252,-1.9841,-1.8044,-1.8737,-1.8306,-1.479,-1.3624,-1.2991,-1.2466,-1.3082,-1.3691,-1.3992,-1.4834,-1.542,-1.5584,-1.5371,-1.5187,-1.5148,-1.5361,-1.5843,-1.6548,-1.6857,-1.7042,-1.712,-1.7111,-1.7131,-1.7125,-1.6764,-1.6764,-1.7118,-1.7297,-1.7571,-1.7961,-1.8344,-1.8436,-1.8358,-1.8514,-1.863,-1.876,-1.8921,-1.9147,-1.9369,-1.9788,-2.0104,-2.0345,0.0,0.0,0.0,0.0,0.0,0.0,0.0,0.0,0.0,0.0,0.0,0.0,0.0,0.0,0.0,0.0,0.0,0.0,0.0,0.0,0.0,0.0,0.0,0.0,0.0,0.0,0.0,0.0,0.0,0.0,-1.1539,-1.2138,-1.2413,-1.2499,-1.3113,-1.3659,-1.4219,-1.467,0.0,0.0,0.0,0.0,0.0,0.0,0.0,0.0,-1.8406,-1.8732,-1.8873,-1.6446,-1.4675,-1.3655,-1.4875,-1.5589,-1.6634,-2.0078,-2.1882,-2.271,-2.2447,-2.1647,-2.0687,-1.9677,-1.8972,-1.8475,-1.8152,-1.8229,-1.8586,-1.9477,-1.8568,-1.8281,-2.0469,-1.8143,-1.6864,-1.975,-1.6604,-1.4056,-1.4856,-1.2711,-1.1138,-1.141,-1.1727,-1.2472,-1.3923,-1.4647,-1.542,-1.6218,-1.5833,-1.5766,-1.6083,-1.6177,-1.6364,-1.6707,-1.6956,-1.7047,-1.6979,-1.6718,-1.6786,-1.7111,-1.6698,-1.671,-1.7188,-1.7503,-1.7828,-1.8198,-1.8577,-1.863,-1.8539,-1.8669,-1.8745,-1.8822,-1.9184,-1.9442,-1.9696,-2.0174,-2.053,-2.0763,0.0,0.0,0.0,0.0,0.0,0.0,0.0,0.0,0.0,0.0,0.0,0.0,0.0,0.0,0.0,0.0,0.0,0.0,0.0,0.0,0.0,0.0,0.0,0.0,0.0,0.0,0.0,0.0,-1.3564,0.0,0.0,0.0,0.0,0.0,0.0,0.0,0.0,0.0,0.0,0.0,0.0,0.0,0.0,0.0,0.0,0.0,-1.9493,-1.9091,-1.7921,-1.5044,-1.3987,-1.3702,-1.2812,-1.3981,-1.6126,-1.8308,-2.0898,-2.306,-2.3171,-2.2736,-2.1996,-2.1036,-2.0215,-1.9572,-1.9104,-1.873,-1.8627,-1.912,-1.8609,-1.868,-2.0802,-1.5861,-1.3915,-2.148,-1.3864,-0.8945,-1.4616,-1.1074,-0.8459,-1.0134,-1.0223,-1.1279,-1.3965,-1.4815,-1.5575,-1.6492,-1.6073,-1.614,-1.692,-1.7134,-1.7093,-1.6766,-1.6815,-1.6884,-1.6946,-1.6465,-1.661,-1.7262,-1.6804,-1.6752,-1.7146,-1.7666,-1.8108,-1.85,-1.8655,-1.8745,-1.8822,-1.8769,-1.8808,-1.8936,-1.9442,-1.9767,-2.0,-2.0514,-2.0795,-2.1007,0.0,0.0,0.0,0.0,0.0,0.0,0.0,0.0,0.0,0.0,-2.0012,-1.9805,0.0,0.0,0.0,0.0,0.0,0.0,0.0,0.0,0.0,0.0,0.0,0.0,0.0,-1.5235,-1.5162,-1.5141,-1.5319,-1.4999,0.0,0.0,0.0,0.0,0.0,0.0,0.0,0.0,0.0,0.0,0.0,0.0,0.0,0.0,0.0,0.0,-2.0255,-1.9984,-1.8829,-1.5945,-1.2982,-1.0918,-1.3034,-1.3201,-1.3738,-1.9589,-2.1963,-2.2839,-2.3494,-2.3265,-2.2905,-2.3206,-2.1955,-2.0793,-2.1337,-2.0388,-1.9399,-1.9446,-1.8767,-1.892,-2.1317,-2.1129,-2.0967,-2.2032,-1.7787,-1.4107,-1.3359,-0.8575,-0.5925,-0.8006,-0.9382,-1.0871,-1.2655,-1.4154,-1.5488,-1.6637,-1.6888,-1.7157,-1.7678,-1.8116,-1.7955,-1.7199,-1.642,-1.6187,-1.6573,-1.6485,-1.6529,-1.6672,-1.6846,-1.7271,-1.7907,-1.8133,-1.8693,-1.9457,-1.9325,-1.9176,-1.9064,-1.9427,-1.9515,-1.9442,-2.0139,-2.0514,-2.0763,-2.1071,-2.1214,-2.1246,0.0,0.0,0.0,0.0,0.0,0.0,0.0,-2.0314,-2.0359,-2.0344,-2.0276,-2.0153,-1.9984,-1.9844,-1.9637,0.0,0.0,0.0,0.0,0.0,0.0,0.0,0.0,0.0,0.0,-1.7486,-1.72,-1.6439,0.0,-1.6406,-1.5106,-1.5029,-1.4845,-1.4596,-1.4483,-1.4894,-1.5708,-1.6072,0.0,-1.7642,-1.8143,-1.8503,0.0,0.0,0.0,0.0,0.0,-1.9729,-1.8979,-1.6801,-1.4192,-1.1749,-1.137,-1.2294,-1.4088,-1.7175,-2.0011,-2.2303,-2.2812,-2.3101,-2.3426,-2.4104,-2.2972,-2.1747,-2.1947,-2.0916,-1.9748,-1.9201,-1.896,-1.9458,-2.1527,-1.8153,-1.6781,-2.2116,-1.4828,-0.9384,-1.2184,-0.8133,-0.542,-0.6833,-0.8501,-1.0454,-1.2663,-1.4204,-1.5642,-1.6888,-1.7335,-1.7667,-1.7963,-1.7739,-1.7475,-1.7302,-1.6332,-1.6013,-1.6522,-1.6522,-1.6522,-1.6522,-1.6837,-1.7325,-1.7974,-1.8305,-1.8846,-1.9545,-1.9545,-1.945,-1.9288,-1.9767,-1.9839,-1.9732,-2.0326,-2.0697,-2.0926,-2.1039,-2.1183,-2.1309,0.0,0.0,0.0,0.0,0.0,0.0,0.0,-2.0302,-2.0399,-2.0424,-2.0472,-2.0444,-2.0283,-2.0096,-1.9984,0.0,0.0,0.0,0.0,0.0,0.0,0.0,0.0,0.0,0.0,0.0,0.0,-1.795,-1.832,0.0,0.0,0.0,0.0,0.0,-1.5206,-1.5441,-1.6123,-1.6568,-1.7149,0.0,0.0,-1.875,0.0,0.0,0.0,0.0,0.0,-1.9494,-1.9195,-1.7518,-1.6017,-1.4311,-1.1062,-1.224,-1.4819,-1.4884,-1.7883,-2.1291,-2.176,-2.2565,-2.3536,-2.4627,-2.3744,-2.251,-2.2169,-2.1078,-1.982,-1.8768,-1.8784,-1.9462,-2.1078,-1.5352,-1.3195,-2.1808,-1.2312,-0.577,-1.1352,-0.7969,-0.519,-0.6,-0.7826,-1.004,-1.2723,-1.4321,-1.5722,-1.7,-1.7623,-1.7972,-1.8032,-1.7168,-1.6814,-1.7123,-1.6317,-1.6088,-1.6522,-1.6522,-1.6522,-1.6522,-1.6837,-1.7325,-1.7868,-1.8383,-1.8898,-1.9487,-1.9617,-1.9617,-1.9508,-1.9995,-2.0085,-2.0,-2.0429,-2.0745,-2.0974,-2.0926,-2.1071,-2.1309,0.0,0.0,0.0,0.0,0.0,0.0,0.0,-2.0248,-2.0346,-2.0458,-2.0496,-2.0494,-2.0464,-2.0357,-2.0494,0.0,0.0,0.0,0.0,0.0,0.0,0.0,0.0,0.0,0.0,0.0,0.0,-2.0389,-1.953,0.0,0.0,0.0,0.0,0.0,0.0,-1.6562,-1.7678,-1.7608,0.0,0.0,0.0,0.0,0.0,0.0,0.0,0.0,0.0,-2.0001,-2.0198,-1.7863,-1.769,-1.7964,-1.5261,-1.4161,-1.4129,-1.5678,-1.7609,-1.9491,-2.056,-2.1652,-2.3043,-2.5311,-2.4531,-2.3141,-2.2792,-2.1275,-1.9562,-1.8314,-1.7809,-1.8029,-1.9462,-1.9204,-1.9311,-2.0984,-1.6115,-1.19,-1.1398,-0.6835,-0.4024,-0.5329,-0.759,-0.9988,-1.2176,-1.3973,-1.553,-1.6726,-1.759,-1.7986,-1.7838,-1.7275,-1.6857,-1.6667,-1.6317,-1.6275,-1.6522,-1.6522,-1.6522,-1.6522,-1.6837,-1.7394,-1.8066,-1.8447,-1.8997,-1.969,-1.969,-1.9711,-1.9788,-2.0273,-2.0478,-2.0563,-2.0763,-2.1039,-2.1246,-2.1007,-2.1071,-2.1309,0.0,0.0,0.0,0.0,0.0,0.0,-2.0184,-2.0253,-2.0328,-2.0434,-2.0441,-2.0461,-2.05,-2.0881,-2.1224,-2.1456,0.0,0.0,0.0,0.0,0.0,0.0,0.0,0.0,0.0,0.0,-2.179,-2.1555,-2.1066,0.0,0.0,0.0,0.0,0.0,0.0,-1.7058,-1.794,-1.7678,0.0,0.0,0.0,0.0,0.0,0.0,0.0,0.0,0.0,0.0,-1.9154,-1.8776,-1.8556,-1.8377,-1.8243,-1.7408,-1.6193,-1.4725,-1.5641,-1.7204,-1.7487,-1.9125,-2.1484,-2.4468,-2.3957,-2.2871,-2.3548,-2.1751,-1.9739,-1.9,-1.8809,-1.8937,-1.9409,-1.9202,-1.8811,-1.8433,-1.5028,-1.1511,-0.8798,-0.6089,-0.4359,-0.4092,-0.651,-0.9075,-1.1235,-1.2925,-1.4619,-1.6353,-1.6972,-1.7198,-1.7097,-1.7027,-1.6882,-1.6596,-1.6337,-1.6318,-1.6522,-1.6522,-1.6595,-1.6795,-1.7131,-1.7693,-1.8408,-1.8745,-1.9199,-1.969,-1.969,-1.9818,-2.003,-2.0342,-2.0613,-2.0795,-2.0861,-2.1071,-2.1277,-2.1007,-2.1071,-2.1309,0.0,0.0,0.0,0.0,0.0,-2.0069,-2.0186,-2.0242,-2.0288,-2.0355,-2.0585,-2.0651,-2.0492,-2.1648,-2.232,-2.2049,-2.3215,0.0,0.0,0.0,0.0,0.0,0.0,0.0,0.0,0.0,-2.2885,-2.2751,-2.2353,-2.1469,0.0,0.0,-1.8972,-1.7924,0.0,0.0,0.0,0.0,0.0,0.0,0.0,0.0,0.0,0.0,0.0,0.0,0.0,0.0,0.0,0.0,0.0,-1.9159,-2.0266,-1.9804,-1.8166,-1.4896,-1.4814,-1.575,-1.5453,-1.7182,-1.9818,-2.2934,-2.2984,-2.2487,-2.3291,-2.1718,-1.9957,-1.9447,-1.9299,-1.9269,-1.928,-1.8557,-1.7641,-1.6658,-1.3917,-1.0856,-0.7929,-0.6366,-0.5254,-0.4413,-0.6549,-0.8785,-1.0665,-1.2436,-1.423,-1.5966,-1.6493,-1.6629,-1.6402,-1.665,-1.6646,-1.6356,-1.6264,-1.6318,-1.6522,-1.6522,-1.668,-1.6993,-1.7297,-1.7868,-1.863,-1.8898,-1.9273,-1.9711,-1.9797,-1.996,-2.0239,-2.0512,-2.0778,-2.1007,-2.0926,-2.1071,-2.1246,-2.0909,-2.1007,-2.1277,0.0,0.0,0.0,0.0,0.0,0.0,-2.0188,-2.0203,-2.0231,-2.0294,-2.0981,-2.1203,-2.0485,-2.2668,-2.3844,-2.3057,-2.3734,0.0,0.0,0.0,0.0,0.0,0.0,0.0,0.0,0.0,-2.2685,-2.4282,-2.3289,-2.2685,-2.2439,-2.1508,-2.0503,-1.9424,0.0,0.0,0.0,0.0,0.0,0.0,0.0,0.0,0.0,0.0,0.0,0.0,0.0,0.0,0.0,0.0,0.0,0.0,0.0,-2.0736,-1.9466,-1.6837,-1.5861,-1.5504,-1.5119,-1.622,-1.8153,-2.0682,-2.178,-2.2074,-2.1621,-2.0929,-2.0173,-1.9356,-1.8667,-1.8334,-1.8743,-1.7869,-1.6923,-1.6371,-1.3645,-1.1104,-0.9764,-0.7909,-0.6737,-0.6845,-0.8235,-0.9557,-1.0598,-1.2934,-1.4754,-1.5536,-1.6267,-1.6484,-1.5921,-1.6079,-1.6067,-1.5816,-1.6069,-1.6318,-1.6522,-1.6522,-1.668,-1.6993,-1.7201,-1.776,-1.863,-1.8831,-1.9207,-1.9711,-1.996,-2.0239,-2.0527,-2.0811,-2.1039,-2.1277,-2.1007,-2.1071,-2.1246,-2.0679,-2.086,-2.1246,0.0,0.0,0.0,0.0,0.0,0.0,0.0,-2.0231,-2.0223,-2.0292,-2.1001,-2.1416,-2.1174,-2.2936,-2.4056,-2.3844,-2.4606,0.0,0.0,0.0,0.0,0.0,0.0,0.0,0.0,0.0,-2.4308,-2.478,-2.4449,-2.3639,-2.2341,-2.1975,-2.0968,-1.9482,-1.8974,-1.938,0.0,0.0,0.0,0.0,0.0,0.0,-1.8489,0.0,0.0,0.0,0.0,0.0,0.0,0.0,0.0,0.0,0.0,0.0,0.0,-1.9854,-1.7887,-1.6292,-1.5762,-1.684,-1.8645,-2.0865,-2.1425,-2.1496,-2.1675,-2.0827,-1.99,-1.9604,-1.9246,-1.8983,-1.8906,-1.8012,-1.7073,-1.641,-1.4112,-1.1868,-1.0236,-0.8476,-0.718,-0.6859,-0.872,-1.0372,-1.1276,-1.2666,-1.4004,-1.519,-1.5279,-1.5471,-1.5875,-1.5602,-1.5554,-1.5804,-1.6057,-1.6318,-1.6522,-1.6522,-1.6765,-1.7338,-1.7544,-1.8094,-1.8936,-1.9139,-1.942,-1.9711,-1.996,-2.0239,-2.0527,-2.0811,-2.0958,-2.1039,-2.0926,-2.0844,-2.0745,-2.0778,-2.0877,-2.1039,0.0,0.0,0.0,0.0,0.0,0.0,0.0,-2.0268,-2.0238,-2.0292,-2.1012,-2.1515,-2.1529,-2.3072,-2.4134,-2.423,-2.5013,0.0,0.0,0.0,0.0,0.0,0.0,0.0,0.0,-2.4715,-2.4547,-2.4167,-2.4483,-2.3717,-2.1991,-2.1895,-2.1264,-2.019,-1.9618,-2.0168,0.0,0.0,0.0,0.0,0.0,0.0,-1.8249,0.0,0.0,0.0,0.0,0.0,0.0,0.0,0.0,0.0,0.0,0.0,0.0,0.0,-1.9598,-1.7767,-1.647,-1.7115,-1.8533,-2.0133,-2.0506,-2.0572,-2.09,-2.0159,-1.9405,-1.9289,-1.9104,-1.885,-1.8527,-1.7666,-1.668,-1.5855,-1.4063,-1.2298,-1.0966,-0.9285,-0.8072,-0.7542,-0.9085,-1.0491,-1.1295,-1.2236,-1.3274,-1.4502,-1.4604,-1.4871,-1.5566,-1.5383,-1.5424,-1.5792,-1.5969,-1.6262,-1.668,-1.6752,-1.7131,-1.7787,-1.8094,-1.8577,-1.9213,-1.9398,-1.9581,-1.9711,-1.996,-2.0204,0.0,-2.0646,-2.0745,-2.0745,-2.0745,-2.0646,-2.0527,-2.0563,-2.073,-2.0893,0.0,0.0,0.0,0.0,0.0,0.0,0.0,-2.0314,-2.0308,-2.0301,-2.1055,-2.1625,-2.1683,-2.3187,-2.4242,-2.4374,0.0,0.0,0.0,0.0,0.0,0.0,0.0,0.0,0.0,-2.4182,-2.3792,-2.291,-2.3705,-2.322,-2.1507,-2.15,-2.1435,-2.1293,-2.0354,-2.0747,0.0,0.0,0.0,0.0,0.0,0.0,0.0,0.0,0.0,0.0,0.0,0.0,0.0,0.0,0.0,0.0,0.0,0.0,0.0,0.0,0.0,0.0,0.0,-1.724,-1.8004,-1.8732,-1.9165,-1.9448,-1.9496,-1.9117,0.0,-1.8511,-1.8299,-1.8064,-1.7704,-1.6857,-1.5876,-1.488,-1.3603,-1.248,-1.1831,-1.0341,-0.9184,-0.869,-0.9365,-1.0149,-1.0681,-1.1621,-1.2655,-1.3688,-1.4252,-1.4746,-1.5085,-1.5334,-1.5558,-1.5792,-1.5836,-1.6207,-1.6993,-1.7229,-1.7639,-1.8305,-1.8703,-1.9072,-1.9376,-1.9581,-1.969,-1.969,-1.996,-2.01,-2.01,-2.0392,-2.0494,-2.0494,-2.0494,-2.0494,-2.046,-2.0204,-2.0478,-2.0861,0.0,0.0,0.0,0.0,0.0,0.0,0.0,0.0,0.0,0.0,-2.1661,-2.2566,-2.2516,-2.4064,-2.5112,0.0,0.0,0.0,0.0,0.0,0.0,0.0,0.0,0.0,0.0,-2.4915,-2.4796,-2.3874,-2.469,-2.3866,-2.1581,-2.2143,-2.1775,-2.0651,-2.101,-2.161,0.0,0.0,0.0,0.0,0.0,0.0,0.0,0.0,0.0,0.0,-1.9118,-1.9456,0.0,0.0,0.0,0.0,0.0,0.0,0.0,0.0,-2.0971,-2.0231,-1.8688,0.0,-1.9139,-1.907,-1.885,-1.8647,0.0,-1.8497,-1.8345,-1.8281,-1.8071,-1.7716,-1.7107,-1.6213,-1.5427,-1.5224,-1.3893,-1.2758,-1.2282,-1.0802,-0.9614,-0.9113,-0.9537,-0.9958,-1.0314,-1.1077,-1.2001,-1.3183,-1.3834,-1.4424,-1.5074,-1.5153,-1.5379,-1.5792,-1.6032,-1.6454,-1.6993,-1.7449,-1.7908,-1.8305,-1.8703,-1.8983,-1.9176,-1.9376,-1.9487,-1.9487,-1.9732,-1.9945,-2.01,-2.0392,-2.0494,-2.0494,-2.0273,-2.0323,-2.0494,-2.0426,-2.0613,-2.0926,0.0,0.0,0.0,0.0,0.0,0.0,0.0,0.0,0.0,0.0,0.0,0.0,0.0,0.0,0.0,0.0,0.0,0.0,0.0,0.0,0.0,0.0,0.0,0.0,-2.4316,-2.5141,-2.4952,-2.3651,-2.3991,-2.329,-2.1604,-2.1978,-2.1939,-2.1598,-2.285,-2.3084,0.0,0.0,0.0,0.0,-1.9973,0.0,0.0,0.0,0.0,0.0,-2.0103,-2.0266,0.0,-2.0917,-2.1357,-2.1757,0.0,0.0,0.0,0.0,-1.9905,-1.9292,-1.8302,-1.8491,-1.8855,-1.8431,-1.8196,-1.7997,-1.7699,-1.7753,-1.78,-1.7533,-1.7353,-1.7021,-1.6355,-1.5813,-1.5266,-1.4638,-1.4297,-1.3652,-1.2357,-1.0976,-0.9806,-0.9056,-0.9679,-1.0162,-1.0241,-1.1066,-1.2007,-1.3074,-1.358,-1.4165,-1.5062,-1.5289,-1.5525,-1.5792,-1.6497,-1.6964,-1.7214,-1.7868,-1.8344,-1.8669,-1.9058,-1.9273,-1.925,-1.945,-1.9487,-1.9413,-1.9639,-1.9818,-1.994,-2.0065,-2.022,-2.0323,-2.015,-2.0239,-2.0494,-2.0494,-2.0679,-2.0958,0.0,0.0,0.0,0.0,0.0,0.0,0.0,0.0,0.0,0.0,0.0,0.0,0.0,0.0,0.0,0.0,0.0,0.0,0.0,0.0,0.0,0.0,0.0,-2.52,-2.4321,-2.5147,-2.4785,-2.316,-2.2941,-2.2384,-2.152,-2.1585,-2.2149,-2.3164,-2.4508,-2.4332,0.0,-2.3404,-2.2592,-2.1042,-2.0848,0.0,0.0,0.0,0.0,0.0,0.0,0.0,0.0,-2.0566,-2.0858,-2.1318,-2.0463,0.0,0.0,0.0,0.0,0.0,-1.7133,-1.7271,-1.759,-1.7221,-1.7265,-1.7262,-1.6755,-1.6963,-1.7163,-1.669,-1.6491,-1.6188,-1.5697,-1.544,-1.4923,-1.3907,-1.4484,-1.4328,-1.2221,-1.1002,-0.9965,-0.8991,-0.9796,-1.037,-1.0164,-1.1129,-1.214,-1.2968,-1.3362,-1.4035,-1.4971,-1.5468,-1.5792,-1.5792,-1.685,-1.7393,-1.7434,-1.8266,-1.8822,-1.9101,-1.9508,-1.9581,-1.9376,-1.9545,-1.9545,-1.9376,-1.9581,-1.969,-1.969,-1.969,-1.9889,-2.015,-2.0115,-2.0308,-2.0613,-2.0469,-2.0588,-2.0895,0.0,0.0,0.0,0.0,0.0,0.0,0.0,0.0,0.0,0.0,0.0,0.0,0.0,0.0,0.0,0.0,0.0,0.0,0.0,0.0,0.0,0.0,-2.5679,-2.5273,-2.4401,-2.5136,-2.5007,-2.3932,-2.3617,-2.2685,-2.1191,-2.1867,-2.2825,-2.3973,-2.3579,-2.3638,-2.4022,-2.3257,-2.2319,-2.1327,-2.1119,0.0,0.0,0.0,0.0,0.0,0.0,0.0,0.0,-2.035,-2.0321,-2.0263,-1.9843,0.0,0.0,0.0,0.0,0.0,-1.6449,-1.5669,-1.5343,-1.5844,-1.5978,-1.6062,-1.6227,-1.6325,-1.6454,-1.6648,-1.6176,-1.5721,-1.5694,-1.469,-1.399,-1.4327,-1.3556,-1.2703,-1.2219,-1.1054,-1.0113,-0.9685,-0.9786,-0.9782,-0.9486,-1.0508,-1.148,-1.2129,-1.3064,-1.3905,-1.4616,-1.5244,-1.5603,-1.5792,-1.6466,-1.6921,-1.7076,-1.8369,-1.9064,-1.9101,-1.9508,-1.9508,-1.9139,-1.9339,-1.9339,-1.9139,-1.9376,-1.9545,-1.969,-1.969,-1.9995,-2.0426,-2.017,-2.0545,-2.107,-2.0351,-2.0249,-2.0535,0.0,0.0,0.0,0.0,0.0,0.0,0.0,0.0,0.0,0.0,0.0,0.0,0.0,0.0,0.0,0.0,0.0,0.0,0.0,0.0,0.0,-2.5015,-2.5449,-2.5507,-2.5055,-2.4397,-2.4028,-2.3993,-2.3266,-2.231,-2.1183,-2.2095,-2.3112,-2.4205,-2.4313,-2.4312,-2.4218,-2.3758,-2.2753,-2.1505,0.0,0.0,0.0,0.0,0.0,0.0,0.0,0.0,0.0,0.0,-1.9864,-1.9612,-1.9326,0.0,0.0,0.0,0.0,0.0,-1.5404,-1.4481,-1.4047,-1.4877,-1.5394,-1.5841,-1.6336,-1.6456,-1.645,-1.6324,-1.5718,-1.5132,-1.492,-1.4503,-1.4304,-1.4697,-1.3673,-1.2682,-1.2297,-1.1414,-1.065,-1.0158,-1.0372,-1.0478,-1.0422,-1.115,-1.1909,-1.2463,-1.3218,-1.3905,-1.4581,-1.53,-1.5691,-1.5792,-1.6497,-1.6993,-1.7256,-1.8187,-1.8669,-1.8655,-1.925,-1.9325,-1.8936,-1.9362,-1.9398,-1.9101,-1.9435,-1.9617,-1.9726,-1.9854,-2.0135,-2.0527,-2.0646,-2.1007,-2.1401,-2.1103,-2.1163,-2.1434,0.0,0.0,0.0,0.0,0.0,0.0,0.0,0.0,0.0,0.0,0.0,0.0,0.0,0.0,0.0,0.0,0.0,0.0,0.0,0.0,-2.5408,-2.4726,-2.4954,-2.5057,-2.4999,-2.3738,-2.3338,-2.385,-2.2596,-2.1821,-2.1525,-2.2316,-2.3339,-2.4505,-2.52,-2.5129,-2.4483,-2.4487,-2.3579,-2.216,0.0,0.0,0.0,0.0,0.0,0.0,0.0,0.0,0.0,0.0,0.0,0.0,0.0,0.0,0.0,-1.7068,-1.6305,-1.561,-1.4578,-1.3689,-1.3223,-1.4098,-1.4817,-1.5504,-1.6324,-1.6467,-1.6348,-1.5879,-1.5285,-1.4739,-1.4287,-1.4499,-1.4641,-1.4396,-1.3753,-1.3037,-1.2348,-1.1776,-1.1188,-1.0693,-1.1029,-1.1311,-1.141,-1.1819,-1.2353,-1.2967,-1.3362,-1.3905,-1.4581,-1.5345,-1.5792,-1.5792,-1.6582,-1.7173,-1.7462,-1.8028,-1.8344,-1.85,-1.9101,-1.9228,-1.895,-1.9457,-1.9508,-1.9176,-1.9545,-1.96,-1.9501,-1.9934,-2.0181,-2.0393,-2.0975,-2.1305,-2.1447,-2.1532,-2.1787,-2.2004,0.0,0.0,0.0,0.0,0.0,0.0,0.0,0.0,0.0,0.0,0.0,0.0,0.0,0.0,0.0,0.0,0.0,0.0,0.0,0.0,-2.5677,-2.5618,-2.4111,-2.3252,-2.3184,-2.3668,-2.3851,-2.3709,-2.1897,-2.1487,-2.2409,-2.2603,-2.3623,-2.5318,-2.5434,-2.5437,-2.5307,-2.5318,-2.4745,-2.3836,-2.3822,0.0,0.0,0.0,0.0,0.0,0.0,0.0,0.0,0.0,0.0,0.0,0.0,0.0,-1.8351,-1.6791,-1.6258,-1.5845,-1.4414,-1.3433,-1.2924,-1.3385,-1.3826,-1.4435,-1.558,-1.5843,-1.5628,-1.5182,-1.507,-1.4925,-1.4337,-1.4543,-1.4282,-1.2636,-1.3247,-1.3529,-1.2285,-1.2077,-1.1817,-1.1301,-1.1606,-1.1748,-1.1436,-1.1819,-1.2353,-1.2967,-1.3362,-1.3905,-1.4581,-1.5345,-1.5792,-1.5792,-1.6582,-1.7118,-1.7312,-1.7974,-1.8553,-1.9064,-1.9302,-1.9376,-1.9376,-1.9581,-1.9581,-1.9376,-1.9617,-1.9346,-1.8856,-1.9737,-2.0004,-1.9925,-2.0846,-2.1101,-2.0939,-2.0966,-2.1086,-2.1257,0.0,0.0,0.0,0.0,0.0,0.0,0.0,0.0,0.0,0.0,0.0,0.0,0.0,0.0,0.0,0.0,0.0,0.0,0.0,0.0,-2.5174,-2.4127,-2.392,-2.3322,-2.2225,-2.1875,-2.2145,-2.3082,-2.2369,-2.2249,-2.2705,-2.3289,-2.367,-2.3895,-2.4925,-2.5341,-2.5273,-2.5233,-2.4675,-2.3821,-2.3803,-2.2987,0.0,0.0,0.0,0.0,0.0,0.0,0.0,0.0,-1.8499,-1.8278,-1.7902,-1.7746,-1.7486,-1.6382,-1.5786,-1.5208,-1.4105,-1.3263,-1.277,-1.3143,-1.2941,-1.3117,-1.4802,-1.49,-1.4603,-1.4394,-1.4512,-1.4508,-1.418,-1.4115,-1.3962,-1.3512,-1.3844,-1.3893,-1.3246,-1.3178,-1.3066,-1.2767,-1.2868,-1.2949,-1.3016,-1.316,-1.3362,-1.3589,-1.3988,-1.4337,-1.4581,-1.5255,-1.5659,-1.5792,-1.6262,-1.6808,-1.7421,-1.7787,-1.8344,-1.9101,-1.9302,-1.9339,-1.9213,-1.9545,-1.9343,-1.8794,-1.9006,-1.8702,-1.8182,-1.9282,-1.9435,-1.9074,-1.9897,-2.0527,-2.0971,-2.0927,-2.125,-2.1597,0.0,0.0,0.0,0.0,0.0,0.0,0.0,0.0,0.0,0.0,0.0,0.0,0.0,0.0,0.0,0.0,0.0,0.0,0.0,-2.5604,-2.5098,-2.3938,-2.4155,-2.3616,-2.2144,-2.1241,-2.1403,-2.2662,-2.2707,-2.2909,-2.3248,-2.3829,-2.3948,-2.3708,-2.4754,-2.5176,-2.5056,-2.5,-2.4574,-2.392,-2.392,-2.3199,0.0,0.0,0.0,0.0,0.0,0.0,0.0,0.0,-1.8361,-1.8155,-1.7642,-1.7256,-1.686,-1.613,-1.5566,-1.5001,-1.4166,-1.3376,-1.2761,-1.273,-1.2006,-1.1796,-1.3389,-1.3755,-1.3834,-1.4119,-1.4138,-1.4079,-1.3917,-1.3734,-1.3643,-1.3646,-1.3932,-1.4071,-1.3711,-1.3848,-1.3941,-1.3973,-1.3884,-1.3931,-1.4201,-1.4071,-1.4071,-1.4258,-1.4466,-1.4673,-1.4754,-1.5289,-1.5647,-1.5792,-1.6306,-1.6947,-1.7598,-1.7948,-1.8461,-1.9101,-1.9059,-1.9133,-1.9288,-1.9508,-1.9224,-1.8515,-1.8634,-1.8208,-1.746,-1.8607,-1.892,-1.8783,-1.9612,-2.0196,-2.0605,-2.08,-2.0981,-2.1077,0.0,0.0,0.0,0.0,0.0,0.0,0.0,0.0,0.0,0.0,0.0,0.0,0.0,0.0,0.0,0.0,0.0,0.0,-2.5604,-2.5595,-2.561,-2.5591,-2.4764,-2.3888,-2.3029,-2.2236,-2.2086,-2.2604,-2.2744,-2.3288,-2.4193,-2.414,-2.4532,-2.5293,-2.5157,-2.5,-2.479,-2.4708,-2.4588,-2.4389,-2.4389,-2.4264,-2.3989,0.0,0.0,0.0,0.0,0.0,0.0,0.0,-1.8676,-1.8607,-1.7535,-1.7016,-1.6686,-1.6145,-1.5754,-1.5344,-1.4677,-1.3864,-1.2963,-1.2054,-1.0985,-1.0409,-1.1319,-1.2428,-1.3504,-1.432,-1.4063,-1.3651,-1.3533,-1.3496,-1.3258,-1.2635,-1.3412,-1.3969,-1.3488,-1.3956,-1.4387,-1.4663,-1.4479,-1.4433,-1.4698,-1.4294,-1.4258,-1.4858,-1.4697,-1.4754,-1.5108,-1.557,-1.5792,-1.5792,-1.6892,-1.7598,-1.7787,-1.8461,-1.8898,-1.9087,-1.8473,-1.8709,-1.9675,-1.9472,-1.9102,-1.8687,-1.8687,-1.7906,-1.6741,-1.7715,-1.8466,-1.9192,-2.0261,-2.0274,-1.9772,-2.0418,-2.0153,-1.9404,0.0,0.0,0.0,0.0,0.0,0.0,0.0,0.0,0.0,0.0,0.0,0.0,0.0,0.0,0.0,0.0,0.0,0.0,0.0,-2.5593,-2.5329,-2.4708,-2.438,-2.4109,-2.3857,-2.3653,-2.3363,-2.295,-2.3553,-2.3989,-2.4276,-2.4737,-2.4687,-2.4268,-2.4702,-2.4756,-2.4516,-2.4459,-2.432,-2.4174,-2.404,-2.3633,-2.3119,0.0,0.0,0.0,0.0,0.0,0.0,0.0,0.0,0.0,-1.6981,-1.6701,-1.6436,-1.6009,-1.5476,-1.491,-1.4193,-1.3291,-1.2453,-1.2204,-1.0984,-1.0303,-1.1962,-1.165,-1.146,-1.2949,-1.3109,-1.3105,-1.3423,-1.3389,-1.3393,-1.3711,-1.4283,-1.4738,-1.5051,-1.522,-1.5367,-1.5457,-1.5412,-1.5367,-1.5457,-1.5367,-1.5322,-1.5513,-1.5334,-1.5334,-1.557,-1.5603,-1.5856,-1.6423,-1.6765,-1.7256,-1.7908,-1.8266,-1.8365,-1.8237,-1.8049,-1.8198,-1.8634,-1.8238,-1.7733,-1.7151,-1.7262,-1.6847,-1.6098,-1.6686,-1.748,-1.8378,-1.8323,-1.8489,-1.8792,-1.8967,-1.9187,-1.9399,0.0,0.0,0.0,0.0,0.0,0.0,0.0,0.0,0.0,0.0,0.0,0.0,0.0,0.0,0.0,0.0,0.0,0.0,0.0,0.0,-2.5318,-2.4754,-2.4701,-2.4513,-2.4176,-2.387,-2.3478,-2.3019,-2.3918,-2.4321,-2.427,-2.4921,-2.4847,-2.4164,-2.4147,-2.4006,-2.3693,-2.3363,-2.3125,-2.2933,-2.2833,-2.2641,-2.2443,0.0,0.0,0.0,0.0,0.0,0.0,0.0,0.0,0.0,-1.6871,-1.6624,-1.6561,-1.6085,-1.5625,-1.5167,-1.4823,-1.3968,-1.3226,-1.34,-1.204,-1.0891,-1.1855,-1.1903,-1.1999,-1.2669,-1.3006,-1.3169,-1.2919,-1.2985,-1.3236,-1.3935,-1.4496,-1.511,-1.5644,-1.6076,-1.6349,-1.6293,-1.6207,-1.6163,-1.625,-1.6001,-1.5836,-1.5925,-1.5869,-1.5856,-1.5988,-1.612,-1.6423,-1.6892,-1.7089,-1.7462,-1.7988,-1.824,-1.8215,-1.7951,-1.7593,-1.7426,-1.7384,-1.7408,-1.7066,-1.6496,-1.6398,-1.6188,-1.5926,-1.627,-1.6855,-1.7545,-1.7604,-1.772,-1.7899,-1.8129,-1.8323,-1.851,0.0,0.0,0.0,0.0,0.0,0.0,0.0,0.0,0.0,0.0,0.0,0.0,0.0,0.0,0.0,0.0,0.0,0.0,0.0,0.0,-2.5376,-2.5393,-2.5309,-2.4885,-2.408,-2.3226,-2.2757,-2.274,-2.3746,-2.4171,-2.4048,-2.4582,-2.4669,-2.4385,-2.3456,-2.2867,-2.2516,-2.1844,-2.1422,-2.1184,-2.1337,-2.1583,-2.189,-2.1885,0.0,0.0,0.0,0.0,0.0,0.0,0.0,0.0,-1.7109,-1.6789,-1.6879,-1.6368,-1.6025,-1.5809,-1.5973,-1.5378,-1.4777,-1.5131,-1.371,-1.212,-1.1434,-1.2877,-1.405,-1.3082,-1.342,-1.3555,-1.224,-1.2468,-1.2997,-1.351,-1.4352,-1.5079,-1.5576,-1.6536,-1.7133,-1.7034,-1.6879,-1.6837,-1.7034,-1.638,-1.6057,-1.6275,-1.6337,-1.6355,-1.6355,-1.6892,-1.7199,-1.7282,-1.772,-1.7961,-1.7946,-1.8263,-1.8207,-1.7767,-1.7,-1.6438,-1.608,-1.6761,-1.6816,-1.6424,-1.5995,-1.5926,-1.6136,-1.6316,-1.656,-1.6917,-1.7701,-1.77,-1.7371,-1.7894,-1.777,-1.7393,0.0,0.0,0.0,0.0,0.0,0.0,0.0,0.0,0.0,0.0,0.0,0.0,0.0,0.0,0.0,0.0,0.0,0.0,0.0,0.0,-2.4681,-2.5293,-2.4619,-2.4109,-2.388,-2.3017,-2.2211,-2.1492,-2.2477,-2.2919,-2.2797,-2.2748,-2.2605,-2.2327,-2.206,-2.1789,-2.15,-2.1341,-2.1227,-2.1176,-2.1657,-2.1529,-2.1096,-2.1455,-2.1095,0.0,0.0,0.0,0.0,0.0,0.0,0.0,-1.7716,-1.7181,-1.6727,-1.6501,-1.6069,-1.5636,-1.5576,-1.5094,-1.4723,-1.518,-1.4482,-1.3491,-1.2808,-1.3584,-1.388,-1.2097,-1.2565,-1.3031,-1.2172,-1.2574,-1.3156,-1.362,-1.4369,-1.5151,-1.5944,-1.6439,-1.689,-1.734,-1.7338,-1.7338,-1.7393,-1.7227,-1.7047,-1.6837,-1.6934,-1.6964,-1.6866,-1.6837,-1.7131,-1.7787,-1.7679,-1.7624,-1.7674,-1.7763,-1.7259,-1.6173,-1.601,-1.5616,-1.5123,-1.5525,-1.5802,-1.5935,-1.583,-1.5983,-1.6344,-1.6367,-1.6945,-1.7764,-1.7458,-1.7908,-1.869,-1.8257,-1.8372,-1.8858,0.0,0.0,0.0,0.0,0.0,0.0,0.0,0.0,0.0,0.0,0.0,0.0,0.0,0.0,0.0,0.0,0.0,0.0,0.0,0.0,0.0,-2.3858,-2.3365,-2.305,-2.2981,-2.2458,-2.1683,-2.0714,-2.1076,-2.1344,-2.1489,-2.166,-2.1592,-2.1351,-2.0877,-2.0577,-2.0371,-2.0043,-1.9863,-1.9779,-2.0139,-2.0381,-2.057,-2.0769,-2.0874,-2.0982,-2.1142,0.0,0.0,0.0,0.0,0.0,0.0,0.0,-1.7178,-1.6864,-1.6219,-1.5551,-1.5587,-1.5269,-1.4965,-1.5069,-1.536,-1.5359,-1.4405,-1.4763,-1.4854,-1.3485,-1.3472,-1.3335,-1.2155,-1.2499,-1.3065,-1.3548,-1.4287,-1.5016,-1.5673,-1.6617,-1.7246,-1.7288,-1.7731,-1.7988,-1.7868,-1.7814,-1.772,-1.7544,-1.7733,-1.7801,-1.7612,-1.7666,-1.7882,-1.8214,-1.7781,-1.7556,-1.7604,-1.7309,-1.6745,-1.5935,-1.5793,-1.5483,-1.5053,-1.5224,-1.5477,-1.5829,-1.6099,-1.6499,-1.694,-1.727,-1.7876,-1.8588,-1.8238,-1.8556,-1.9109,-1.8367,-1.8583,-1.9281,0.0,0.0,0.0,0.0,0.0,0.0,0.0,0.0,0.0,0.0,0.0,0.0,0.0,0.0,0.0,0.0,0.0,0.0,0.0,0.0,0.0,0.0,-2.2023,-2.1878,-2.1768,-2.1448,-2.0811,-1.9914,-1.9539,-1.9577,-1.9959,-2.0497,-2.0641,-2.0433,-1.9726,-1.9335,-1.9226,-1.8685,-1.8368,-1.8287,-1.8484,-1.9152,-2.0055,-2.0035,-2.0619,-2.1446,-2.1374,-2.0773,-2.006,-2.0035,0.0,0.0,0.0,0.0,-1.7753,-1.7456,-1.6668,-1.6025,-1.6383,-1.6197,-1.5762,-1.5191,-1.6073,-1.6823,-1.5812,-1.6124,-1.6479,-1.5848,-1.5097,-1.4034,-1.247,-1.252,-1.2949,-1.3325,-1.4052,-1.4721,-1.5177,-1.6578,-1.749,-1.7259,-1.8021,-1.8527,-1.8461,-1.8394,-1.8302,-1.8185,-1.8492,-1.8599,-1.8358,-1.8574,-1.868,-1.8556,-1.7875,-1.7511,-1.745,-1.6831,-1.6354,-1.5968,-1.5717,-1.5509,-1.5323,-1.5342,-1.5566,-1.5979,-1.6547,-1.7136,-1.7718,-1.8327,-1.8879,-1.9378,-1.9251,-1.9353,-1.9474,-1.8744,-1.8954,-1.9561,0.0,0.0,0.0,0.0,0.0,0.0,0.0,0.0,0.0,0.0,0.0,0.0,0.0,0.0,0.0,0.0,0.0,0.0,0.0,0.0,0.0,-2.198,-2.1204,-2.0694,-2.0457,-1.956,-1.8895,-1.8391,-1.7871,-1.7658,-1.7743,-1.828,-1.8416,-1.8219,-1.8237,-1.8258,-1.8272,-1.8239,-1.8205,-1.8186,-1.8901,-1.9144,-1.9123,-1.951,-1.9662,-1.9703,-2.0146,-2.0125,-1.9987,-2.0446,-2.0013,0.0,0.0,0.0,-1.7932,-1.8231,-1.8047,-1.7975,-1.8982,-1.8849,-1.7963,-1.614,-1.596,-1.6271,-1.6352,-1.7408,-1.8302,-1.8011,-1.657,-1.4934,-1.3543,-1.3236,-1.3185,-1.2994,-1.3616,-1.4286,-1.487,-1.5688,-1.6641,-1.7691,-1.8208,-1.8649,-1.8968,-1.9184,-1.9109,-1.8577,-1.8836,-1.8874,-1.8592,-1.845,-1.8489,-1.8745,-1.772,-1.7052,-1.6817,-1.6171,-1.5562,-1.4975,-1.5057,-1.5241,-1.5463,-1.5476,-1.5891,-1.6592,-1.6955,-1.7592,-1.8389,-1.8708,-1.9354,-2.0098,-1.9459,-1.9949,-2.0936,-2.0259,-2.0427,-2.1029,0.0,0.0,0.0,0.0,0.0,0.0,0.0,0.0,0.0,0.0,0.0,0.0,0.0,0.0,0.0,0.0,0.0,0.0,0.0,0.0,0.0,-2.0824,-2.0373,-1.9867,-1.9272,-1.8633,-1.8177,-1.7941,-1.7436,-1.7118,-1.6977,-1.7215,-1.7358,-1.7469,-1.7516,-1.7625,-1.7772,-1.78,-1.7844,-1.7929,-1.867,-1.9157,-1.9513,-1.986,-2.0234,-2.0584,-2.0572,-2.0464,-2.0319,-2.0095,-1.9914,-1.9691,-1.9448,0.0,0.0,0.0,-1.8349,-1.8017,-1.8423,-1.8295,-1.7892,-1.7111,-1.7719,-1.8506,-1.8508,-1.9782,-2.0906,-2.0651,-1.9628,-1.7989,-1.5577,-1.4215,-1.3421,-1.334,-1.3622,-1.4047,-1.4664,-1.5548,-1.6413,-1.7034,-1.7811,-1.8368,-1.8504,-1.9088,-1.9318,-1.9076,-1.9417,-1.9546,-1.9281,-1.9064,-1.8889,-1.8784,-1.7658,-1.693,-1.6691,-1.5707,-1.5093,-1.4907,-1.5093,-1.5286,-1.5521,-1.6144,-1.641,-1.642,-1.7303,-1.8067,-1.8787,-1.9654,-2.0349,-2.0852,-2.0483,-2.0758,-2.1228,-2.0548,-2.0736,-2.1266,0.0,0.0,0.0,0.0,0.0,0.0,0.0,0.0,0.0,0.0,0.0,0.0,0.0,0.0,0.0,0.0,0.0,0.0,0.0,0.0,0.0,-2.0038,-1.997,-1.9623,-1.8947,-1.8633,-1.8319,-1.7983,-1.7478,-1.7052,-1.6644,-1.6617,-1.6747,-1.7043,-1.7117,-1.7248,-1.7462,-1.7486,-1.7572,-1.7725,-1.8488,-1.9202,-1.9906,-2.0278,-2.0773,-2.125,-2.0783,-2.0526,-2.0315,-1.9685,-1.961,-1.976,-1.9326,-1.9128,0.0,0.0,0.0,-1.8493,-1.7683,-1.7652,-1.7806,-1.7547,-1.8728,-1.9998,-2.0218,-2.1768,-2.3065,-2.2776,-2.2146,-2.0867,-1.816,-1.5963,-1.4513,-1.4433,-1.446,-1.4674,-1.5133,-1.6074,-1.673,-1.6812,-1.773,-1.8316,-1.8223,-1.903,-1.9547,-1.9547,-1.998,-2.0222,-2.005,-1.9797,-1.945,-1.9011,-1.7747,-1.7067,-1.6909,-1.5679,-1.5051,-1.509,-1.5403,-1.5551,-1.5607,-1.6863,-1.7068,-1.653,-1.7943,-1.8873,-1.9493,-2.0544,-2.1103,-2.1309,-2.1309,-2.1309,-2.126,-2.0819,-2.0949,-2.1306,0.0,0.0,0.0,0.0,0.0,0.0,0.0,0.0,0.0,0.0,0.0,0.0,0.0,0.0,-2.0029,-2.0154,0.0,0.0,0.0,0.0,0.0,-2.0291,-2.0355,0.0,-2.0123,-1.9925,-1.9344,-1.8451,-1.792,-1.7271,-1.6501,-1.6367,-1.6421,-1.6649,-1.6825,-1.706,-1.732,-1.7439,-1.7502,-1.7586,-1.8659,-1.9333,-1.9784,-2.05,-2.0636,-2.0427,-2.0001,-1.9783,-1.9624,-1.94,-1.9186,-1.9155,-1.9597,-1.9405,-1.911,0.0,0.0,0.0,-1.7987,-1.8254,-1.8794,-1.7093,-1.7702,-1.9045,-2.045,-2.2459,-2.3983,-2.3838,-2.3276,-2.2452,-2.1259,-1.8882,-1.6944,-1.6445,-1.6557,-1.6744,-1.6793,-1.7364,-1.78,-1.7736,-1.8528,-1.893,-1.8603,-1.9431,-1.9951,-1.9875,-2.0431,-2.0761,-2.0761,-2.0563,-2.0139,-1.9479,-1.8116,-1.7432,-1.7553,-1.6307,-1.5525,-1.5296,-1.592,-1.6094,-1.5829,-1.7365,-1.7821,-1.7509,-1.9116,-2.0178,-2.083,-2.115,-2.1294,-2.1309,-2.1309,-2.1309,-2.1309,-2.1479,-2.1556,-2.1589,0.0,0.0,0.0,0.0,0.0,0.0,0.0,0.0,0.0,0.0,0.0,0.0,0.0,-1.9073,-1.9056,-1.9388,-2.0026,0.0,0.0,0.0,0.0,-2.0711,-2.0746,-2.0552,-2.0018,-1.9848,-1.9325,-1.8442,-1.806,-1.7422,-1.6554,-1.6474,-1.6474,-1.6554,-1.6763,-1.6968,-1.724,-1.7321,-1.7386,-1.755,-1.8902,-1.9588,-1.9937,-2.085,-2.0822,-2.0254,-1.9782,-1.945,-1.9129,-1.8537,-1.8812,-1.9331,-1.9056,-1.9181,-1.9497,-1.9692,-1.9808,-1.9706,-1.8738,-1.846,-1.8352,-1.7942,-1.8331,-1.9201,-2.0837,-2.258,-2.3772,-2.3357,-2.3325,-2.285,-2.1029,-1.905,-1.7593,-1.7324,-1.7342,-1.7427,-1.7537,-1.7893,-1.8285,-1.8617,-1.847,-1.8453,-1.86,-1.8865,-1.9236,-1.9682,-2.0208,-2.0653,-2.1055,-2.0811,-2.0395,-1.9717,-1.8688,-1.7666,-1.6571,-1.5702,-1.5538,-1.6078,-1.6319,-1.6395,-1.6427,-1.8221,-1.8696,-1.823,-2.0016,-2.07,-2.0571,-2.1068,-2.1309,-2.1309,-2.1309,-2.1309,-2.1309,-2.1528,-2.1419,-2.1198,0.0,0.0,0.0,0.0,0.0,0.0,0.0,0.0,0.0,0.0,0.0,0.0,0.0,0.0,-1.9154,-1.9345,-1.9843,-2.0221,-2.0323,-2.1002,-2.1271,-2.1011,-2.1138,-2.1033,-2.0548,-2.045,-1.9887,-1.8831,-1.8577,-1.7824,-1.6633,-1.6554,-1.6554,-1.6581,-1.6789,-1.6984,-1.7207,-1.7265,-1.7338,-1.7518,-1.9057,-1.9558,-1.9541,-2.0839,-2.0722,-1.9812,-1.9623,-1.9412,-1.9159,-1.8728,-1.9292,-2.0042,-1.9307,-1.9328,-1.9632,-1.969,-1.9517,-1.9241,-1.9082,-1.8564,-1.8061,-1.7944,-1.8345,-1.9014,-2.0238,-2.167,-2.2592,-2.1831,-2.2297,-2.2155,-2.0139,-1.9155,-1.8624,-1.8537,-1.8443,-1.8495,-1.882,-1.9092,-1.9417,-1.9951,-1.9443,-1.9095,-1.9144,-1.9027,-1.9149,-1.9684,-2.0218,-2.077,-2.1385,-2.1135,-2.0522,-1.942,-1.8735,-1.7609,-1.6041,-1.5566,-1.5737,-1.6511,-1.68,-1.7028,-1.724,-1.9107,-1.9604,-1.9057,-2.062,-2.1066,-2.0677,-2.1131,-2.1309,-2.1309,-2.1309,-2.1309,-2.1309,-2.1419,-2.1277,-2.1039,0.0,0.0,0.0,0.0,0.0,0.0,0.0,0.0,0.0,0.0,0.0,0.0,0.0,0.0,0.0,-2.0106,-1.9388,-1.9188,-1.9797,-2.0194,-2.0638,-2.1183,0.0,0.0,0.0,0.0,-2.1114,-1.9698,-1.9438,-1.8443,-1.6727,-1.6681,-1.6697,-1.6753,-1.6949,-1.7084,-1.7216,-1.7281,-1.7329,-1.7541,-1.9161,-1.9268,-1.8677,-2.0584,-2.034,-1.9033,-1.9528,-1.9726,-1.9737,-1.9996,-2.0625,-2.1152,-2.0385,-1.982,-1.9457,-1.9705,-1.9596,-1.9339,0.0,0.0,0.0,-1.7076,-1.7548,-1.8372,-1.8644,-1.9796,-2.05,-1.9517,-2.0203,-2.0486,-1.8861,-1.9376,-2.0116,-2.0117,-1.9904,-2.001,-2.0744,-2.1039,-2.1354,-2.1853,-2.1528,-2.0986,-2.0328,-1.9993,-1.9891,-2.0035,-2.0589,-2.1161,-2.1777,-2.1509,-2.0528,-1.8685,-1.8127,-1.7261,-1.6052,-1.601,-1.6174,-1.6541,-1.7473,-1.7999,-1.8176,-2.0036,-2.0511,-1.9936,-2.086,-2.1261,-2.1309,-2.1309,-2.1309,-2.1309,-2.1277,-2.1277,-2.1277,-2.1198,-2.1166,-2.1135,0.0,0.0,0.0,0.0,0.0,0.0,0.0,0.0,0.0,0.0,0.0,0.0,-1.9551,-1.9667,-1.9767,-1.9736,-2.002,-2.0272,-2.0429,-2.0655,-2.0863,-2.1135,-2.1325,-2.1433,0.0,0.0,0.0,0.0,0.0,0.0,0.0,0.0,0.0,-1.7491,-1.7583,-1.7494,-1.7265,-1.733,-1.7265,-1.7273,-1.9066,-1.9837,-1.9992,-2.1516,-2.1372,-2.035,-2.0403,-2.0085,-1.9666,-2.0065,-2.0333,-2.0401,-1.9744,-1.9465,-1.9354,-1.9413,-1.9413,-1.9339,-1.904,0.0,0.0,0.0,0.0,0.0,-1.8793,-1.9432,-1.9838,-1.9516,-2.0268,-2.0688,-1.9692,-1.9793,-2.0123,-2.0489,-2.0671,-2.102,-2.1729,-2.2322,-2.3042,-2.3996,-2.3027,-2.2255,-2.2148,-2.1129,-2.0683,-2.1267,-2.1191,-2.1294,-2.1698,-2.0781,-1.9947,-1.928,-1.7971,-1.705,-1.6659,-1.6346,-1.6564,-1.7243,-1.8278,-1.8781,-1.8841,-1.9747,-2.0074,-1.992,-2.0376,-2.0855,-2.1309,-2.1309,-2.1309,-2.1277,-2.1071,-2.1007,-2.1007,-2.0958,-2.0712,-2.0444,0.0,0.0,0.0,0.0,0.0,0.0,-2.2159,-2.2004,-2.1754,0.0,0.0,0.0,-1.9899,-1.9515,-1.9493,-1.9853,-2.0325,-2.0559,-2.0559,-2.0761,-2.0909,-2.1023,-2.1151,-2.1325,-2.1464,0.0,0.0,0.0,0.0,0.0,0.0,0.0,0.0,0.0,-1.8246,-1.8141,-1.7597,-1.7555,-1.7326,-1.7062,-1.8796,-1.9511,-1.9668,-2.1271,-2.1424,-2.0813,-2.0917,-2.0746,-2.0513,-2.0911,-2.0777,-2.0393,-2.0226,-1.9704,-1.9205,-1.9302,-1.9339,-1.9339,-1.928,-1.9176,-1.8962,-1.8276,0.0,0.0,-1.8272,-1.8557,-1.8777,-1.8619,-1.95,-2.0078,-1.939,-1.9867,-2.0387,-2.0406,-2.0938,-2.1487,-2.1811,-2.2418,-2.3306,-2.45,-2.3676,-2.3025,-2.3105,-2.1961,-2.1295,-2.1529,-2.1413,-2.136,-2.1411,-2.0483,-1.9752,-1.9347,-1.8049,-1.7206,-1.6892,-1.642,-1.6634,-1.7525,-1.7957,-1.8606,-1.9385,-1.9341,-1.9591,-2.0034,-1.9702,-2.0034,-2.0814,-2.0639,-2.0767,-2.1071,-2.0543,-2.0477,-2.0712,-2.0545,-2.0342,-2.01,0.0,0.0,0.0,-2.3735,-2.2833,-2.2195,-2.2514,-2.2258,-2.1982,0.0,0.0,0.0,-2.0726,-1.9783,-1.9492,-2.0208,-2.0339,-2.0423,-2.0388,-2.0628,-2.0827,-2.0909,-2.1071,-2.131,-2.1528,-2.1634,0.0,0.0,0.0,0.0,0.0,0.0,0.0,0.0,0.0,-1.8812,-1.8026,-1.782,-1.7393,-1.6999,-1.847,-1.8801,-1.8611,-2.0484,-2.1013,-2.0724,-2.1225,-2.1504,-2.162,-2.2009,-2.1579,-2.0896,-2.1164,-2.0348,-1.9319,-1.9383,-1.9435,-1.9516,-1.9568,-1.9472,-1.9112,-1.8296,-1.8241,0.0,-1.7558,-1.7478,-1.754,-1.7452,-1.841,-1.9093,-1.871,-1.985,-2.062,-2.0094,-2.085,-2.1512,-2.1549,-2.2061,-2.2926,-2.4284,-2.394,-2.3616,-2.362,-2.2709,-2.1949,-2.1473,-2.1481,-2.1351,-2.1007,-2.0364,-1.9717,-1.9064,-1.8224,-1.7476,-1.6821,-1.6369,-1.6551,-1.7372,-1.7208,-1.8011,-1.9587,-1.8761,-1.8949,-1.9921,-1.881,-1.8951,-1.9942,-1.9403,-1.9813,-2.0732,-1.9907,-1.9933,-2.0426,-2.0135,-2.008,-2.003,0.0,0.0,-2.3874,-2.3741,-2.3024,-2.2444,-2.2296,-2.1866,-2.1479,-2.1356,0.0,-2.0579,-2.0491,-2.0093,-1.9908,-2.0135,-2.0357,-2.0475,-2.0388,-2.0628,-2.0794,-2.0827,-2.1006,-2.1135,-2.1199,-2.1451,0.0,0.0,0.0,0.0,0.0,0.0,0.0,0.0,0.0,-1.9317,-1.8352,-1.7584,-1.7286,-1.7446,-1.8339,-1.9086,-1.9757,-2.0922,-2.1292,-2.1186,-2.1335,-2.1397,-2.1484,-2.1792,-2.1874,-2.1711,-2.0607,-2.074,-2.1081,-1.9797,-1.9968,-2.0415,-1.9789,-1.9178,-1.8848,-1.9233,-1.8444,0.0,-1.8033,-1.7489,-1.7179,-1.8151,-1.8559,-1.9024,-2.0048,-2.0202,-2.0126,-2.0009,-2.0436,-2.1197,-2.2351,-2.3374,-2.4437,-2.5751,-2.5366,-2.4992,-2.4915,-2.4121,-2.3419,-2.3006,-2.1976,-2.1189,-2.0877,-1.963,-1.8846,-1.8707,-1.7493,-1.6712,-1.6355,-1.6864,-1.6978,-1.6705,-1.7964,-1.8512,-1.8394,-1.7863,-1.7951,-1.8454,-1.7654,-1.7761,-1.8421,-1.7592,-1.848,-2.0296,-2.0085,-2.0047,-2.0135,-1.9869,-1.9797,-1.9747,-2.5278,-2.4646,-2.3969,-2.4055,-2.3228,-2.2405,-2.1965,-2.1477,-2.1071,-2.086,-2.0395,-2.0135,-2.02,-1.999,-1.9884,-1.994,-2.022,-2.0407,-2.0388,-2.0613,-2.0811,-2.0941,-2.1054,-2.1151,-2.123,-2.1389,-2.135,0.0,0.0,0.0,0.0,0.0,0.0,0.0,-1.9892,-1.931,-1.8359,-1.706,-1.6692,-1.7006,-1.7729,-1.8616,-1.9528,-2.0575,-2.1043,-2.1135,-2.1175,-2.1334,-2.1582,-2.2048,-2.2119,-2.1916,-2.1424,-2.1595,-2.1665,-2.0542,-2.0593,-2.084,-1.9966,-1.9456,-1.9292,-1.9652,-1.9041,0.0,0.0,-1.8339,-1.8044,-1.8584,-1.911,-1.958,-2.0062,-2.0344,-2.0381,-2.0044,-2.0504,-2.1221,-2.2082,-2.3102,-2.4096,-2.5008,-2.5023,-2.4965,-2.4945,-2.4505,-2.4002,-2.3535,-2.2409,-2.151,-2.0927,-1.9954,-1.9101,-1.8458,-1.7716,-1.6831,-1.5864,-1.6211,-1.6186,-1.5778,-1.6383,-1.6817,-1.7121,-1.6308,-1.638,-1.7093,-1.6166,-1.6372,-1.7302,-1.6588,-1.7232,-1.8574,-1.8395,-1.8537,-1.8872,-1.8736,-1.8912,-1.9196,-2.5233,-2.4475,-2.375,-2.4032,-2.3154,-2.2203,-2.1628,-2.1119,-2.0697,-2.0376,-2.0086,-1.9927,-1.9942,-1.9952,-1.9894,-1.9775,-2.0258,-2.0522,-2.047,-2.0824,-2.1173,-2.1421,-2.1471,-2.1488,-2.158,-2.1697,-2.1697,0.0,0.0,0.0,0.0,0.0,0.0,-2.0254,-2.0099,-1.9531,-1.8563,-1.727,-1.6801,-1.6982,-1.7343,-1.7975,-1.8761,-1.9707,-2.0268,-2.0539,-2.0743,-2.1091,-2.1589,-2.209,-2.2171,-2.2033,-2.22,-2.233,-2.2239,-2.1194,-2.1167,-2.1249,-2.011,-1.9732,-1.9647,-1.9783,-1.9401,-1.9111,0.0,0.0,0.0,-1.8766,-1.9419,-1.9908,-1.9591,-2.0129,-2.0449,-1.9916,-2.0459,-2.1057,-2.135,-2.228,-2.3195,-2.3934,-2.4379,-2.4629,-2.4662,-2.4629,-2.434,-2.372,-2.2923,-2.204,-2.1098,-2.034,-1.9376,-1.8167,-1.7842,-1.6917,-1.5332,-1.5388,-1.5227,-1.4782,-1.4553,-1.4937,-1.5789,-1.4891,-1.4957,-1.573,-1.4808,-1.5072,-1.6145,-1.5769,-1.6047,-1.6675,-1.6679,-1.7092,-1.765,-1.7697,-1.81,-1.8687,-2.5654,-2.4349,-2.3157,-2.3007,-2.2466,-2.1882,-2.1405,-2.0843,-2.0308,-1.9854,-2.0057,-2.0132,-1.9767,-2.0462,-2.0593,-1.9695,-2.0794,-2.1325,-2.0782,-2.1664,-2.2373,-2.2671,-2.2719,-2.252,-2.2214,-2.2774,-2.2513,-2.134,0.0,0.0,0.0,0.0,0.0,-2.0074,-2.108,-2.0763,-1.9465,-1.9591,-1.9362,-1.8785,-1.7821,-1.7692,-1.8087,-1.8168,-1.8465,-1.9008,-1.9813,-2.0534,-2.1059,-2.1172,-2.1891,-2.2571,-2.1317,-2.2485,-2.3794,-2.1152,-2.1439,-2.2202,-2.0314,-1.942,-1.9135,-1.9672,-1.8758,-1.7946,-1.8907,0.0,-1.8078,-1.8446,0.0,-1.8993,-1.9136,0.0,0.0,-1.9214,-1.9745,-2.0257,-2.0584,-2.1532,-2.2802,-2.434,-2.4814,-2.5012,-2.4955,-2.516,-2.4925,-2.4005,-2.3649,-2.2779,-2.1252,-1.9759,-1.8539,-1.7612,-1.6833,-1.5852,-1.4723,-1.5262,-1.5065,-1.4011,-1.4687,-1.4811,-1.4441,-1.4412,-1.4362,-1.4243,-1.4111,-1.4299,-1.4662,-1.4598,-1.4917,-1.5632,-1.689,-1.7445,-1.7552,-1.765,-1.81,-1.8702,-2.5508,-2.439,-2.3392,-2.3221,-2.2383,-2.1552,-2.1135,-2.0376,-1.9726,-1.9398,-1.9319,-1.9233,-1.9077,-1.9741,-2.0067,-1.9701,-2.0611,-2.1237,-2.127,-2.1873,-2.2198,-2.2161,-2.229,-2.2127,-2.1617,-2.2269,-2.2155,-2.1183,-2.184,0.0,0.0,0.0,0.0,-2.0527,-2.0855,-2.0677,-2.0076,-1.9383,-1.9235,-1.9341,-1.7631,-1.7325,-1.7885,-1.7913,-1.8248,-1.8754,-1.9698,-2.0434,-2.1051,-2.1442,-2.1889,-2.2381,-2.2692,-2.2755,-2.2468,-2.1514,-2.1365,-2.1214,-1.9778,-1.9597,-1.9782,-1.9758,-1.9291,-1.8882,-1.9038,-1.8797,-1.8425,-1.8208,0.0,0.0,0.0,0.0,0.0,0.0,-1.9619,-2.0104,-2.0464,-2.1266,-2.2248,-2.3424,-2.3886,-2.4216,-2.4507,-2.5378,-2.5415,-2.4211,-2.3943,-2.301,-2.1189,-1.9331,-1.7841,-1.6764,-1.5692,-1.4479,-1.3197,-1.3482,-1.3179,-1.2327,-1.2747,-1.2896,-1.2829,-1.3155,-1.3251,-1.3144,-1.3411,-1.3791,-1.4172,-1.417,-1.4547,-1.5208,-1.5941,-1.6332,-1.6562,-1.698,-1.7533,-1.8179,-2.5652,-2.4607,-2.3637,-2.3311,-2.2338,-2.1343,-2.0614,-1.9803,-1.9139,-1.895,-1.8825,-1.8689,-1.8595,-1.9445,-1.9936,-1.9711,-2.0824,-2.1689,-2.1879,-2.2483,-2.2762,-2.2629,-2.2738,-2.2582,-2.2051,-2.2604,-2.254,-2.1696,0.0,0.0,0.0,0.0,0.0,0.0,-2.062,-2.0624,-2.0597,-1.9688,-1.9589,-1.9891,-1.7977,-1.7331,-1.7546,-1.7665,-1.799,-1.8566,-1.9423,-2.0245,-2.0966,-2.1397,-2.1914,-2.2498,-2.3498,-2.3157,-2.2378,-2.2166,-2.1789,-2.1128,-1.9921,-1.9986,-2.0308,-1.9889,-1.9778,-1.9647,-1.9236,-1.908,-1.8875,-1.8339,-1.8708,0.0,0.0,0.0,-1.9317,-1.9147,0.0,-1.9962,-2.0193,-2.0798,-2.1597,-2.2599,-2.3059,-2.3471,-2.3893,-2.5346,-2.5627,-2.4061,-2.4004,-2.3007,-2.0623,-1.8557,-1.6809,-1.5365,-1.4209,-1.3026,-1.1691,-1.1691,-1.1428,-1.0905,-1.1025,-1.1297,-1.1664,-1.2029,-1.2234,-1.2342,-1.2792,-1.3317,-1.3814,-1.4019,-1.4474,-1.5106,-1.5284,-1.5566,-1.5945,-1.6293,-1.6923,-1.7601,-2.636,-2.5011,-2.3636,-2.2795,-2.2216,-2.1334,-1.9707,-1.9101,-1.876,-1.8556,-1.8862,-1.8934,-1.8569,-2.002,-2.065,-1.9673,-2.1873,-2.3122,-2.2679,-2.3962,-2.4839,-2.5179,-2.5013,-2.4738,-2.4392,-2.4786,-2.4422,-2.3227,-2.3843,0.0,0.0,0.0,0.0,0.0,-2.0755,-2.1161,-2.1027,-2.1545,-2.1451,-2.0848,-1.9377,-1.8029,-1.6874,-1.7055,-1.7466,-1.8007,-1.8774,-1.9695,-2.0581,-2.0482,-2.1759,-2.326,-2.2748,-2.381,-2.4926,-2.3175,-2.3044,-2.3028,-2.1295,-2.063,-2.0326,-2.0054,-1.9793,-1.9536,-1.9324,-1.9182,-1.9087,-1.9072,-1.9182,-1.928,-1.9265,-1.9307,-1.9259,-1.9108,-1.939,0.0,0.0,-2.0005,-2.0877,-2.2324,-2.287,-2.3138,-2.3229,-2.5038,-2.5404,-2.3472,-2.3877,-2.2725,-1.9326,-1.7174,-1.5133,-1.3164,-1.2382,-1.1456,-1.0383,-1.0374,-1.0267,-1.0157,-1.0282,-1.0636,-1.1217,-1.1378,-1.1571,-1.1858,-1.2326,-1.2829,-1.3369,-1.4028,-1.4682,-1.5298,-1.5433,-1.574,-1.6067,-1.5871,-1.6395,-1.7075,-2.627,-2.5524,-2.4821,-2.4116,-2.3115,-2.1993,-2.0789,-2.0203,-1.981,-1.9479,-1.9421,-1.9416,-1.9357,-2.0328,-2.0947,-2.0871,-2.2308,-2.3245,-2.3423,-2.423,-2.4587,-2.4388,-2.4553,-2.436,-2.3658,-2.4358,-2.4197,-2.3099,-2.3247,0.0,0.0,0.0,0.0,0.0,-2.1298,-2.2181,-2.2671,-2.2869,-2.2877,-2.254,-1.9784,-1.7943,-1.6938,-1.6896,-1.7422,-1.8244,-1.9081,-1.9497,-1.9807,-2.0511,-2.0542,-2.0482,-2.2022,-2.2228,-2.1905,-2.2015,-2.1967,-2.1681,-2.0606,-2.056,-2.0728,-2.02,-2.0111,-2.0021,-1.9575,-1.9405,-1.9493,-2.0169,-1.9886,-1.9693,-2.0309,-1.9957,-1.9515,-1.9307,-1.9509,-1.9649,0.0,-1.9906,-2.0294,-2.0797,-2.1634,-2.2158,-2.2089,-2.3915,-2.4353,-2.2444,-2.2372,-2.1151,-1.8252,-1.5379,-1.3109,-1.158,-1.062,-0.9706,-0.8801,-0.8934,-0.8978,-0.8963,-0.884,-0.9173,-0.9913,-1.0389,-1.0902,-1.145,-1.2173,-1.2923,-1.3595,-1.4111,-1.4682,-1.533,-1.5608,-1.5854,-1.6174,-1.6834,-1.7076,-1.7165,-2.6132,-2.5864,-2.5459,-2.4692,-2.339,-2.2164,-2.1344,-2.0897,-2.0515,-2.0201,-1.9985,-1.9777,-1.9661,-2.0295,-2.0919,-2.1298,-2.2481,-2.3426,-2.409,-2.4704,-2.4923,-2.4607,-2.4878,-2.479,-2.4277,-2.4689,-2.4572,-2.3979,-2.3866,-2.3426,0.0,0.0,0.0,0.0,-2.1567,-2.2571,-2.3768,-2.3472,-2.3608,-2.3652,-2.0026,-1.8166,-1.7455,-1.7236,-1.7543,-1.8112,-1.8865,-1.9144,-1.9324,-2.0004,-1.9875,-1.9813,-2.1988,-2.2083,-2.1535,-2.2274,-2.2185,-2.1655,-2.0866,-2.086,-2.0974,-2.0454,-2.0381,-2.0389,-2.0234,-1.9923,-1.9923,-2.0862,-2.034,-1.9968,-2.0649,-2.0171,-1.9639,-1.956,-1.9597,-1.9664,0.0,-1.9796,-1.9826,-1.9773,-2.0512,-2.108,-2.1158,-2.2651,-2.2943,-2.1424,-2.0846,-1.9349,-1.6586,-1.3499,-1.1167,-0.9685,-0.8808,-0.8092,-0.7452,-0.7745,-0.7896,-0.7981,-0.8003,-0.8344,-0.8958,-0.9697,-1.036,-1.0992,-1.1861,-1.2733,-1.3582,-1.413,-1.4807,-1.5518,-1.5794,-1.6065,-1.6382,-1.6939,-1.691,-1.6786,-2.6092,-2.6003,-2.5631,-2.456,-2.3157,-2.1949,-2.1407,-2.1197,-2.0978,-2.0716,-2.0556,-2.0187,-1.9485,-2.0111,-2.0684,-2.1,-2.2415,-2.3654,-2.4571,-2.5395,-2.5832,-2.5868,-2.5971,-2.6098,-2.6225,-2.5881,-2.568,-2.5726,-2.5486,-2.5003,0.0,0.0,0.0,0.0,-2.1494,-2.2362,-2.4272,-2.3506,-2.3647,-2.4029,-2.0344,-1.8639,-1.834,-1.8116,-1.7844,-1.7682,-1.8117,-1.8669,-1.9184,-1.8994,-1.9722,-2.098,-2.2438,-2.3223,-2.3632,-2.3796,-2.3549,-2.2999,-2.2049,-2.1464,-2.1087,-2.0857,-2.0689,-2.0667,-2.1182,-2.0725,-2.043,-2.1168,-2.0634,-2.0098,-2.0415,-1.9985,-1.9651,-1.9788,-1.9681,-1.9588,-1.9574,-1.9574,-1.9538,-1.9391,-1.9626,-1.9955,-2.0462,-2.1237,-2.1318,-2.0369,-1.9309,-1.7369,-1.4391,-1.1689,-0.9409,-0.7486,-0.7025,-0.6706,-0.6375,-0.6848,-0.7107,-0.7218,-0.7692,-0.8119,-0.8488,-0.9297,-0.9932,-1.0457,-1.1398,-1.2354,-1.3297,-1.4165,-1.502,-1.5796,-1.6052,-1.6355,-1.6644,-1.6246,-1.6029,-1.6094,-2.7069,-2.6759,-2.6397,-2.5818,-2.4942,-2.3985,-2.3029,-2.3447,-2.3368,-2.2019,-2.2146,-2.1961,-2.0907,-2.1148,-2.1421,-2.151,-2.2279,-2.2958,-2.3386,-2.4482,-2.5186,-2.5379,-2.6168,-2.664,-2.673,-2.6788,-2.6539,-2.6073,-2.5007,-2.457,-2.4664,0.0,0.0,0.0,-2.1808,-2.2742,-2.4591,-2.4247,-2.3981,-2.3496,-2.1062,-1.9594,-1.8972,-1.9876,-1.9823,-1.93,-1.9482,-1.9017,-1.8399,-1.9265,-1.8983,-1.8588,-2.0705,-2.1807,-2.2366,-2.2824,-2.3192,-2.3173,-2.2099,-2.1622,-2.1422,-2.1212,-2.1116,-2.1022,-2.102,-2.0813,-2.0883,-2.1666,-2.1065,-2.0552,-2.1177,-2.0578,-1.9878,-1.969,-1.9545,-1.9398,-1.9265,-1.9228,-1.9191,-1.9093,-1.9182,-1.928,-1.9457,-1.9924,-1.9898,-1.9059,-1.8037,-1.6109,-1.3037,-1.0947,-0.8697,-0.6086,-0.6132,-0.6119,-0.5967,-0.6348,-0.67,-0.7132,-0.7067,-0.7432,-0.8136,-0.8716,-0.9588,-1.0743,-1.1693,-1.2661,-1.3646,-1.4617,-1.5272,-1.5719,-1.632,-1.6528,-1.6463,-1.6371,-1.6824,-1.7441,-2.7871,-2.7514,-2.7044,-2.6331,-2.6435,-2.601,-2.4343,-2.4491,-2.4517,-2.3705,-2.383,-2.3566,-2.2476,-2.2218,-2.2147,-2.2263,-2.2368,-2.2694,-2.3345,-2.4529,-2.5246,-2.5426,-2.6493,-2.7106,-2.7161,-2.7186,-2.6965,-2.6455,-2.5347,-2.4863,-2.4993,0.0,0.0,0.0,-2.2156,-2.2743,-2.4196,-2.429,-2.3987,-2.3275,-2.1755,-2.0775,0.0,-2.0837,-2.086,-2.0645,-2.0381,-1.9693,-1.8907,-1.9038,-1.8475,-1.8103,-2.0152,-2.1018,-2.1446,-2.2384,-2.2809,-2.2813,-2.2015,-2.176,-2.1642,-2.1464,-2.1442,-2.1513,-2.1727,-2.1439,-2.1349,-2.2131,-2.1423,-2.0846,-2.1389,-2.097,-2.0508,-2.0437,-1.9834,-1.9405,-1.9531,-1.956,-1.9382,-1.8869,-1.9016,-1.9034,-1.8595,-1.9057,-1.9277,-1.9001,-1.7394,-1.5372,-1.2994,-1.0664,-0.8498,-0.6362,-0.6211,-0.6276,-0.6529,-0.66,-0.6888,-0.7421,-0.7317,-0.7524,-0.8021,-0.8757,-0.9784,-1.1008,-1.1839,-1.2836,-1.3901,-1.4831,-1.5477,-1.5918,-1.648,-1.6581,-1.6398,-1.6316,-1.6613,-1.703,-2.8638,-2.8375,-2.776,-2.6714,-2.765,-2.7823,-2.5702,-2.5301,-2.5305,-2.5459,-2.5328,-2.4833,-2.3883,-2.315,-2.2747,-2.2881,-2.247,-2.2606,-2.3604,-2.4886,-2.5627,-2.5658,-2.6857,-2.7554,-2.7587,-2.7404,-2.7178,-2.6871,-2.6097,-2.5646,0.0,0.0,0.0,-2.3507,-2.2454,-2.2579,-2.3566,-2.3964,-2.3872,-2.3367,-2.2512,-2.2011,-2.1796,-2.1505,-2.1589,-2.181,-2.1153,-2.0546,-1.9946,-1.8792,-1.8454,-1.876,-2.035,-2.079,-2.0975,-2.2246,-2.2459,-2.2203,-2.1911,-2.1847,-2.1823,-2.1735,-2.1801,-2.2032,-2.2655,-2.2199,-2.1792,-2.2329,-2.1648,-2.1006,-2.1167,-2.103,-2.0978,-2.1322,-2.0356,-1.966,-1.9914,-2.0167,-1.9918,-1.8818,-1.9129,0.0,-1.8453,-1.8683,-1.9004,-1.9296,-1.7219,-1.5188,-1.3442,-1.0889,-0.8818,-0.7387,-0.6773,-0.6812,-0.7646,-0.7373,-0.744,-0.7895,-0.797,-0.8025,-0.8139,-0.9106,-1.0152,-1.1282,-1.1984,-1.2938,-1.4052,-1.4925,-1.568,-1.627,-1.6444,-1.6449,-1.6328,-1.6016,-1.5851,-1.5841,-2.9964,-2.9502,-2.8862,-2.8301,-2.8611,-2.8785,-2.8341,-2.8039,-2.756,-2.6647,-2.6001,-2.5227,-2.4322,-2.3359,-2.2654,-2.2353,-2.219,-2.2187,-2.2396,-2.4057,-2.5149,-2.5366,-2.6882,-2.7847,-2.8071,-2.8035,-2.7741,-2.719,-2.6623,-2.6358,0.0,0.0,-2.3762,-2.4237,-2.2685,-2.2688,-2.3864,-2.4141,-2.4249,-2.416,-2.3661,-2.3128,-2.2725,-2.3157,-2.32,-2.2919,-2.2124,-2.121,-2.0273,-1.9765,-1.9579,-1.9739,-2.079,-2.1181,-2.137,-2.2021,-2.218,-2.2129,-2.2062,-2.2044,-2.2118,-2.2347,-2.233,-2.222,-2.2237,-2.2003,-2.1708,-2.1566,-2.1359,-2.1087,-2.0728,-2.0207,-2.002,-2.0522,-2.0759,-2.0508,-1.9406,-2.0244,-2.0666,-1.9933,-1.956,-1.9802,-2.0869,-1.9387,-1.8216,-1.7879,-1.7865,-1.6313,-1.2855,-1.2008,-1.0414,-0.7689,-0.7024,-0.7229,-0.833,-0.8075,-0.8084,-0.8447,-0.8201,-0.8268,-0.8657,-0.9022,-0.9971,-1.1409,-1.2401,-1.3293,-1.4084,-1.5286,-1.6102,-1.6528,-1.5692,-1.5714,-1.6047,-1.5114,-1.5304,-1.5991,-3.0418,-3.0137,-2.9807,-2.9548,-3.0048,-3.0511,-3.0454,-3.0258,-2.9706,-2.8506,-2.7426,-2.6516,-2.5973,-2.4952,-2.4013,-2.3293,-2.3472,-2.3238,-2.2405,-2.4549,-2.5715,-2.5411,-2.7091,-2.8053,-2.8182,-2.8182,-2.7943,-2.7412,-2.6788,-2.6385,-2.6148,-2.4739,-2.4023,-2.3888,-2.2869,-2.2615,-2.2963,-2.3667,-2.3856,-2.3717,-2.3588,-2.3436,-2.329,-2.348,-2.3494,-2.3316,-2.228,-2.1416,-2.0663,-2.0146,-1.9835,-1.9852,-2.0683,-2.0975,-2.1181,-2.1849,-2.2051,-2.2062,-2.2192,-2.2292,-2.2402,-2.2574,-2.2441,-2.2275,-2.2215,-2.1957,-2.1648,-2.15,-2.1357,-2.1231,-2.1049,-2.0635,-2.0423,-2.0902,-2.0858,-2.0504,-1.9759,-2.0328,-2.0475,-1.9585,-1.958,-1.9785,-2.0175,-1.9072,-1.8617,-1.9244,-1.8865,-1.7364,-1.4644,-1.3763,-1.2117,-0.9569,-0.8482,-0.8416,-0.9377,-0.8901,-0.8913,-0.9426,-0.9067,-0.9143,-0.9625,-0.9649,-1.0466,-1.1959,-1.252,-1.3213,-1.4084,-1.5271,-1.6062,-1.647,-1.5864,-1.582,-1.5994,-1.5282,-1.547,-1.605,-3.1016,-3.1007,-3.0948,-3.0832,-3.1709,-3.237,-3.2266,-3.2017,-3.1482,-3.0418,-2.8888,-2.7886,-2.7865,-2.6673,-2.5572,-2.4827,-2.4824,-2.4334,-2.3066,-2.5208,-2.6233,-2.5588,-2.7282,-2.8237,-2.8182,-2.8237,-2.8025,-2.76,-2.7026,-2.6519,-2.6026,-2.5217,-2.4377,-2.3553,-2.305,-2.2688,-2.2537,-2.3317,-2.3499,-2.332,-2.3417,-2.3509,-2.3595,-2.3566,-2.3653,-2.3558,-2.2345,-2.1683,-2.1275,-2.0464,-1.9909,-1.9717,-2.0497,-2.078,-2.0966,-2.1757,-2.2015,-2.2061,-2.2375,-2.2563,-2.2686,-2.2703,-2.2504,-2.2341,-2.2248,-2.189,-2.1591,-2.1549,-2.1327,-2.1198,-2.1381,-2.0971,-2.0813,-2.1248,-2.0961,-2.0528,-2.0156,-2.0478,-2.0404,-1.9415,-1.9856,-2.0131,-1.9768,-1.9556,-1.9927,-2.1055,-1.9766,-1.8324,-1.6889,-1.5499,-1.3866,-1.1822,-1.0383,-1.0017,-1.0853,-1.0081,-0.9935,-1.0393,-1.0051,-1.0056,-1.0346,-1.0472,-1.1178,-1.2273,-1.2625,-1.3335,-1.4328,-1.5166,-1.5839,-1.6231,-1.59,-1.5862,-1.5896,-1.5418,-1.5591,-1.6067,-3.2744,-3.276,-3.276,-3.2519,-3.3422,-3.404,-3.369,-3.3255,-3.2702,-3.1974,-2.9903,-2.8741,-2.9246,-2.7561,-2.6437,-2.6555,-2.5253,-2.439,-2.4224,-2.5258,-2.5847,-2.5793,-2.7458,-2.8318,-2.8209,-2.8318,-2.8228,-2.7954,-2.7661,-2.7422,-2.7212,-2.6126,-2.5069,-2.4091,-2.3252,-2.3342,-2.406,-2.3797,-2.3803,-2.4002,-2.4033,-2.3846,-2.3681,-2.4245,-2.4287,-2.3895,-2.2879,-2.2487,-2.23,-2.1209,-2.0225,-1.9671,-2.0606,-2.1007,-2.1241,-2.1766,-2.1989,-2.2209,-2.2773,-2.2936,-2.2963,-2.296,-2.2772,-2.246,-2.2039,-2.1768,-2.1559,-2.1373,-2.0925,-2.0696,-2.1059,-2.0388,-2.0025,-2.0654,-2.1207,-2.1132,-1.9907,-2.0827,-2.1311,-2.0616,-2.1108,-2.1749,-2.2304,-2.2483,-2.2292,-2.17,-2.0201,-1.9001,-1.8154,-1.6939,-1.5515,-1.3877,-1.248,-1.215,-1.3104,-1.1816,-1.1157,-1.1015,-1.0914,-1.0638,-1.0247,-1.1217,-1.1737,-1.1937,-1.3155,-1.4188,-1.5091,-1.5269,-1.5551,-1.5779,-1.497,-1.5019,-1.5477,-1.4702,-1.5147,-1.6095,-3.3668,-3.366,-3.3761,-3.3979,-3.4385,-3.4745,-3.4863,-3.3987,-3.3177,-3.2917,-3.0707,-2.9083,-2.8954,-2.8127,-2.7246,-2.6407,-2.6556,-2.6038,-2.4512,-2.6179,-2.6817,-2.5854,-2.7406,-2.8264,-2.8182,-2.8345,-2.8255,-2.7982,-2.79,-2.7735,-2.7508,-2.7091,-2.6303,-2.521,-2.4852,-2.453,-2.4321,-2.4733,-2.4594,-2.412,-2.4112,-2.4013,-2.3937,-2.4204,-2.4328,-2.424,-2.3032,-2.2358,-2.1878,-2.0976,-2.0257,-1.9888,-2.083,-2.1079,-2.1097,-2.1814,-2.2203,-2.2476,-2.2848,-2.2849,-2.2764,-2.2772,-2.2468,-2.2124,-2.1933,-2.1665,-2.1388,-2.1325,-2.086,-2.0503,-2.0487,-2.0382,-2.0258,-2.0124,-2.0662,-2.0767,-1.9824,-2.0154,-2.0393,-2.0124,-2.0333,-2.0623,-2.0918,-2.1338,-2.1629,-2.1744,-2.208,-2.113,-1.8437,-1.8263,-1.7251,-1.5127,-1.353,-1.289,-1.3386,-1.2604,-1.2135,-1.199,-1.1746,-1.1728,-1.1874,-1.2086,-1.2383,-1.2824,-1.3741,-1.4417,-1.4831,-1.4859,-1.5118,-1.5477,-1.5125,-1.5184,-1.5477,-1.5168,-1.55,-1.6123,-3.495,-3.4921,-3.5005,-3.5334,-3.5395,-3.5411,-3.5531,-3.4474,-3.3584,-3.3386,-3.1354,-2.9715,-2.9201,-2.8682,-2.7967,-2.6943,-2.7476,-2.7086,-2.5285,-2.6846,-2.7353,-2.6193,-2.7504,-2.8237,-2.8182,-2.8371,-2.838,-2.8165,-2.8147,-2.7913,-2.7459,-2.7133,-2.6695,-2.6196,-2.5985,-2.5514,-2.4919,-2.5464,-2.5211,-2.4399,-2.4292,-2.4199,-2.409,-2.4097,-2.4157,-2.4146,-2.2959,-2.2228,-2.1726,-2.0982,-2.0494,-2.0286,-2.1101,-2.1259,-2.1278,-2.2119,-2.2521,-2.2712,-2.2923,-2.2807,-2.2563,-2.2495,-2.2113,-2.1771,-2.1735,-2.1437,-2.1151,-2.1087,-2.0761,-2.0376,-2.0045,-2.0225,-2.0258,-1.9765,-2.0094,-2.0243,-1.975,-1.969,-1.9765,-1.9959,-2.0281,-2.0433,-2.0291,-2.124,-2.18,-2.1583,-2.3274,-2.2705,-1.9022,-1.9334,-1.8556,-1.6227,-1.4873,-1.4141,-1.4,-1.3551,-1.3101,-1.2716,-1.2686,-1.2725,-1.2807,-1.2691,-1.2987,-1.366,-1.4268,-1.4512,-1.4515,-1.4735,-1.5011,-1.5313,-1.5328,-1.5433,-1.5595,-1.5623,-1.5896,-1.6234,-3.6943,-3.6882,-3.6821,-3.6597,-3.6572,-3.6312,-3.5514,-3.478,-3.4047,-3.3287,-3.1854,-3.0731,-3.0413,-2.9314,-2.8652,-2.8868,-2.7733,-2.6996,-2.696,-2.6996,-2.6996,-2.6978,-2.7896,-2.8345,-2.8209,-2.8458,-2.8587,-2.8587,-2.854,-2.8037,-2.7186,-2.5862,-2.5848,-2.6954,-2.6241,-2.5992,-2.6162,-2.5837,-2.5464,-2.5051,-2.4736,-2.4393,-2.4085,-2.4044,-2.3831,-2.3521,-2.2708,-2.241,-2.228,-2.152,-2.1078,-2.0861,-2.1345,-2.1692,-2.2035,-2.2775,-2.2957,-2.2944,-2.3126,-2.2894,-2.2518,-2.2186,-2.1814,-2.1471,-2.1342,-2.1103,-2.0844,-2.0545,-2.0494,-2.0357,-1.9782,-1.9726,-1.969,-1.969,-1.969,-1.969,-1.969,-1.969,-1.9944,-2.0617,-2.1628,-2.2022,-2.1444,-2.3478,-2.3803,-2.122,-2.3178,-2.3212,-2.0226,-2.0078,-1.9245,-1.7329,-1.6928,-1.635,-1.545,-1.4954,-1.4094,-1.3016,-1.3684,-1.3408,-1.2417,-1.2947,-1.357,-1.4213,-1.4616,-1.4614,-1.4351,-1.5025,-1.5283,-1.5313,-1.5433,-1.5624,-1.5811,-1.5811,-1.6037,-1.6425,-3.7757,-3.7273,-3.6772,-3.6378,-3.5858,-3.534,-3.476,-3.4017,-3.3257,-3.2483,-3.1202,-3.0117,-2.9447,-2.9033,-2.8614,-2.8194,-2.7449,-2.6996,-2.6996,-2.6996,-2.6996,-2.6996,-2.7808,-2.8237,-2.8182,-2.8371,-2.8458,-2.8458,-2.8474,-2.8084,-2.7283,-2.7219,-2.7095,-2.6946,-2.697,-2.685,-2.6573,-2.6198,-2.5773,-2.5287,-2.5022,-2.4737,-2.4415,-2.4121,-2.3967,-2.3755,-2.276,-2.2394,-2.2313,-2.1694,-2.15,-2.1566,-2.2082,-2.2143,-2.216,-2.2821,-2.3111,-2.3175,-2.2868,-2.2532,-2.2135,-2.1626,-2.0957,-2.0512,-2.0942,-2.1103,-2.1039,-2.0595,-2.0494,-2.0357,-1.9797,-1.969,-1.969,-1.969,-1.969,-1.969,-1.969,-1.969,-1.9728,-1.9805,-1.9909,-1.9821,-1.9319,-2.077,-2.136,-2.0536,-2.2211,-2.2179,-1.9619,-1.9975,-1.9473,-1.7917,-1.7113,-1.6526,-1.6202,-1.5529,-1.4825,-1.4093,-1.4025,-1.4032,-1.4111,-1.4605,-1.4791,-1.4672,-1.5017,-1.4897,-1.4515,-1.4735,-1.474,-1.4674,-1.5154,-1.5285,-1.5249,-1.5869,-1.5895,-1.5702,-3.6957,-3.6684,-3.6332,-3.5687,-3.5364,-3.5013,-3.4446,-3.3917,-3.3178,-3.214,-3.0967,-2.9963,-2.9165,-2.8824,-2.8435,-2.7986,-2.7361,-2.7121,-2.7424,-2.7157,-2.7121,-2.7442,-2.7942,-2.8182,-2.8182,-2.8398,-2.8476,-2.8476,-2.8254,-2.8057,-2.7864,-2.7789,-2.7575,-2.726,-2.7425,-2.7233,-2.6775,-2.6385,-2.5944,-2.554,-2.5061,-2.4681,-2.4288,-2.3628,-2.3335,-2.3104,-2.2377,-2.2102,-2.2052,-2.1751,-2.1811,-2.2039,-2.2368,-2.2476,-2.257,-2.3041,-2.3182,-2.3126,-2.2703,-2.2287,-2.1869,-2.147,-2.0799,-2.04,-2.0813,-2.1167,-2.1277,-2.0745,-2.0579,-2.0357,-1.9925,-1.9762,-1.969,-1.969,-1.969,-1.969,-1.969,-1.9617,-1.9597,-1.9587,-1.9243,-1.8863,-1.8519,-1.9446,-1.9988,-1.9752,-2.1254,-2.124,-1.9019,-1.9997,-1.9834,-1.8201,-1.7478,-1.686,-1.6367,-1.5833,-1.5257,-1.4581,-1.4408,-1.4674,-1.5232,-1.5511,-1.5356,-1.4942,-1.5348,-1.5162,-1.4613,-1.456,-1.4486,-1.4382,-1.4712,-1.4752,-1.4776,-1.5371,-1.5424,-1.5193,-3.5009,-3.5418,-3.561,-3.4594,-3.4963,-3.5134,-3.4502,-3.4178,-3.345,-3.2109,-3.1058,-3.0145,-2.9412,-2.8639,-2.8182,-2.8182,-2.7424,-2.7264,-2.8039,-2.7371,-2.7281,-2.8075,-2.8164,-2.8209,-2.8209,-2.845,-2.8587,-2.8587,-2.7991,-2.8031,-2.8699,-2.7723,-2.7442,-2.773,-2.7561,-2.7251,-2.6826,-2.64,-2.6101,-2.5839,-2.4909,-2.4313,-2.3856,-2.281,-2.2195,-2.1881,-2.1679,-2.162,-2.1634,-2.1768,-2.201,-2.2275,-2.2303,-2.2652,-2.3091,-2.3383,-2.3193,-2.2833,-2.2608,-2.2192,-2.1738,-2.1573,-2.123,-2.091,-2.0814,-2.1197,-2.1481,-2.0991,-2.0712,-2.0426,-2.0135,-1.9889,-1.969,-1.969,-1.969,-1.969,-1.969,-1.9523,-1.9522,-1.9782,-1.9399,-1.899,-1.8697,-1.9341,-1.9578,-1.8987,-2.0367,-2.0446,-1.8642,-2.0077,-2.0104,-1.8172,-1.7867,-1.7236,-1.6149,-1.5984,-1.5495,-1.4673,-1.488,-1.5254,-1.5776,-1.5684,-1.5379,-1.4955,-1.5578,-1.5408,-1.4648,-1.4587,-1.4536,-1.4431,-1.4182,-1.4166,-1.4351,-1.4537,-1.4703,-1.4826,-3.5145,-3.5114,-3.4929,-3.3963,-3.3946,-3.3961,-3.3706,-3.3015,-3.2146,-3.1211,-3.0252,-2.9362,-2.8576,-2.8316,-2.8182,-2.8182,-2.6899,-2.6436,-2.7228,-2.6532,-2.6443,-2.7246,-2.7888,-2.8237,-2.8345,-2.8318,-2.838,-2.8587,-2.8456,-2.8154,-2.7725,-2.7998,-2.778,-2.7201,-2.7391,-2.743,-2.731,-2.6639,-2.625,-2.6059,-2.5212,-2.4512,-2.3896,-2.2932,-2.2345,-2.2016,-2.1694,-2.1664,-2.1768,-2.1928,-2.2027,-2.2096,-2.2248,-2.2385,-2.2546,-2.2935,-2.2816,-2.2546,-2.2303,-2.194,-2.1542,-2.1166,-2.1103,-2.0877,-1.99,-2.0681,-2.1511,-2.1198,-2.0778,-2.0426,-2.0135,-1.9889,-1.969,-1.969,-1.969,-1.969,-1.969,-1.9523,-1.9272,-1.8945,-1.8448,-1.795,-1.7481,-1.8235,-1.8903,-1.927,-1.9921,-2.0244,-2.0139,-1.9926,-1.9058,-1.7358,-1.7242,-1.69,-1.6241,-1.603,-1.5707,-1.5289,-1.5691,-1.575,-1.5489,-1.5939,-1.575,-1.5087,-1.5538,-1.5552,-1.5285,-1.5286,-1.4739,-1.4012,-1.455,-1.4289,-1.3716,-1.4347,-1.4399,-1.414,-3.4016,-3.3889,-3.3753,-3.3238,-3.3396,-3.3469,-3.3085,-3.2451,-3.1603,-3.0477,-2.9797,-2.9101,-2.8271,-2.8182,-2.8182,-2.8182,-2.7068,-2.6524,-2.6964,-2.6583,-2.6532,-2.6978,-2.7835,-2.8291,-2.8318,-2.8371,-2.8484,-2.8687,-2.8637,-2.8196,-2.7423,-2.8029,-2.787,-2.7074,-2.7045,-2.7225,-2.7504,-2.6383,-2.5866,-2.5714,-2.488,-2.4132,-2.339,-2.2569,-2.2131,-2.197,-2.184,-2.184,-2.1928,-2.2089,-2.2073,-2.201,-2.2124,-2.2124,-2.2124,-2.2337,-2.2347,-2.2275,-2.2068,-2.1811,-2.1559,-2.1277,-2.1401,-2.1357,-2.0528,-2.1059,-2.1603,-2.1309,-2.0844,-2.046,-2.0323,-1.996,-1.969,-1.969,-1.969,-1.969,-1.9596,-1.9413,-1.9026,-1.8305,-1.7908,-1.7421,-1.6837,-1.7502,-1.8129,-1.8505,-1.9248,-1.9654,-1.948,-1.9296,-1.8747,-1.7806,-1.7427,-1.7036,-1.6686,-1.6136,-1.5842,-1.5824,-1.6219,-1.6233,-1.5843,-1.6297,-1.6106,-1.5399,-1.5698,-1.571,-1.5492,-1.5255,-1.468,-1.392,-1.4139,-1.3752,-1.3094,-1.3589,-1.3617,-1.3394,-3.2672,-3.2742,-3.2737,-3.2474,-3.2981,-3.3211,-3.2522,-3.2111,-3.1373,-2.997,-2.9565,-2.913,-2.8298,-2.8182,-2.8209,-2.8237,-2.7629,-2.7146,-2.7018,-2.691,-2.6905,-2.703,-2.7923,-2.8398,-2.8291,-2.8536,-2.8712,-2.8785,-2.8687,-2.8221,-2.7447,-2.7877,-2.7691,-2.7004,-2.6496,-2.6667,-2.7286,-2.5873,-2.5246,-2.5144,-2.4309,-2.356,-2.2865,-2.2098,-2.1817,-2.184,-2.1969,-2.2027,-2.2056,-2.2102,-2.2023,-2.1814,-2.1669,-2.1537,-2.1437,-2.1407,-2.1603,-2.1802,-2.1716,-2.146,-2.1264,-2.1393,-2.1602,-2.1732,-2.15,-2.1612,-2.1678,-2.134,-2.086,-2.0494,-2.046,-2.003,-1.972,-1.9824,-1.975,-1.9647,-1.9583,-1.9286,-1.8784,-1.7948,-1.7639,-1.7269,-1.6723,-1.7264,-1.7609,-1.757,-1.87,-1.9028,-1.8109,-1.8563,-1.8805,-1.8687,-1.7887,-1.7333,-1.704,-1.6352,-1.6132,-1.6392,-1.6723,-1.6656,-1.6322,-1.6655,-1.6371,-1.5637,-1.5862,-1.5825,-1.5536,-1.5156,-1.4615,-1.3968,-1.3636,-1.3131,-1.2629,-1.2754,-1.2811,-1.2811,-3.3012,-3.34,-3.3366,-3.1868,-3.2228,-3.2504,-3.1715,-3.1448,-3.0946,-2.9924,-2.9674,-2.9223,-2.8298,-2.8182,-2.8246,-2.8352,-2.8264,-2.7844,-2.7048,-2.6462,-2.6458,-2.714,-2.8077,-2.8612,-2.8712,-2.8858,-2.8881,-2.8785,-2.8785,-2.8342,-2.7583,-2.7544,-2.7042,-2.617,-2.5859,-2.5773,-2.5825,-2.5326,-2.5033,-2.4798,-2.4052,-2.3491,-2.3056,-2.2269,-2.1986,-2.1969,-2.1982,-2.2118,-2.2164,-2.1566,-2.1265,-2.1038,-2.024,-1.9877,-1.9766,-1.9654,-2.0065,-2.0584,-2.0685,-2.0156,-1.9744,-2.0404,-2.0655,-2.0743,-2.0801,-2.1266,-2.1542,-2.1261,-2.0811,-2.0426,-2.0204,-1.9889,-1.9884,-2.0453,-2.0064,-1.9848,-2.0188,-1.9602,-1.886,-1.8305,-1.7787,-1.7475,-1.7352,-1.7914,-1.8175,-1.7949,-1.8823,-1.9123,-1.8467,-1.8523,-1.8528,-1.8545,-1.7716,-1.7135,-1.6842,-1.6931,-1.7102,-1.7312,-1.753,-1.7166,-1.6291,-1.6733,-1.626,-1.5217,-1.5669,-1.5801,-1.5755,-1.5849,-1.5156,-1.4014,-1.4288,-1.3664,-1.2629,-1.2754,-1.2811,-1.2811,-3.2846,-3.2459,-3.1946,-3.1489,-3.1709,-3.1691,-3.087,-3.0643,-3.0232,-2.9373,-2.9078,-2.8838,-2.846,-2.8345,-2.8192,-2.7879,-2.7864,-2.7687,-2.723,-2.7335,-2.7373,-2.7314,-2.8209,-2.8543,-2.8155,-2.821,-2.8218,-2.8153,-2.7711,-2.7287,-2.69,-2.6736,-2.6189,-2.5404,-2.5077,-2.5207,-2.5552,-2.4806,-2.4453,-2.435,-2.4009,-2.3453,-2.2829,-2.2468,-2.2259,-2.2147,-2.2147,-2.2237,-2.2192,-2.1448,-2.1294,-2.1283,-2.0439,-2.0057,-1.9939,-2.0254,-2.003,-1.9816,-2.0264,-2.0147,-1.9882,-1.9874,-2.0237,-2.0492,-2.0068,-2.0533,-2.091,-2.0557,-2.0493,-2.0426,-2.0135,-1.9889,-1.9794,-2.0109,-1.9884,-1.9685,-1.9698,-1.9365,-1.8745,-1.7782,-1.7445,-1.7209,-1.705,-1.7129,-1.7312,-1.7509,-1.8071,-1.8321,-1.804,-1.8335,-1.8517,-1.8517,-1.7922,-1.7462,-1.7201,-1.731,-1.7462,-1.7652,-1.7581,-1.7218,-1.6599,-1.6627,-1.6203,-1.5477,-1.5712,-1.5856,-1.5955,-1.6067,-1.5406,-1.4327,-1.453,-1.3807,-1.2713,-1.2773,-1.2811,-1.2811,-3.2142,-3.133,-3.0522,-3.0783,-3.1004,-3.0846,-3.0044,-2.999,-2.9734,-2.8919,-2.8782,-2.8735,-2.8605,-2.851,-2.825,-2.7767,-2.7737,-2.7737,-2.7767,-2.8341,-2.839,-2.7747,-2.8445,-2.8571,-2.7934,-2.7743,-2.7643,-2.7643,-2.6808,-2.6285,-2.6081,-2.5705,-2.5221,-2.4667,-2.4236,-2.4479,-2.518,-2.4284,-2.3911,-2.3894,-2.3831,-2.3352,-2.266,-2.2672,-2.2535,-2.2366,-2.2366,-2.2366,-2.2248,-2.1458,-2.134,-2.1416,-2.0676,-2.0262,-2.0111,-2.0467,-1.9673,-1.8989,-2.0208,-2.0134,-1.9682,-1.9633,-1.9832,-1.9986,-1.9605,-1.9837,-2.0094,-1.9973,-2.0061,-2.0122,-2.005,-1.9833,-1.9735,-1.9899,-1.9794,-1.9626,-1.938,-1.9072,-1.8473,-1.7356,-1.7013,-1.6818,-1.6642,-1.6372,-1.6437,-1.7001,-1.7455,-1.7664,-1.7701,-1.8115,-1.8369,-1.8369,-1.821,-1.8002,-1.7787,-1.7787,-1.784,-1.7926,-1.7684,-1.7306,-1.6843,-1.6605,-1.6248,-1.5885,-1.5827,-1.5926,-1.6179,-1.6179,-1.5562,-1.4583,-1.4645,-1.3892,-1.2811,-1.2811,-1.2716,-1.2622,-3.0716,-3.066,-3.0203,-2.9322,-2.9784,-3.0026,-2.9195,-2.9706,-2.9848,-2.8925,-2.9418,-2.9557,-2.8685,-2.8587,-2.8619,-2.8688,-2.8699,-2.8745,-2.8879,-2.8934,-2.8905,-2.8688,-2.8887,-2.8957,-2.8883,-2.8175,-2.7777,-2.7777,-2.6841,-2.6081,-2.5436,-2.4563,-2.4119,-2.403,-2.3262,-2.327,-2.384,-2.3764,-2.3656,-2.3519,-2.3329,-2.3098,-2.2876,-2.2868,-2.2738,-2.2579,-2.2579,-2.2579,-2.2449,-2.1511,-2.1015,-2.0638,-1.9899,-1.952,-1.9167,-1.8508,-1.7811,-1.7854,-2.0515,-1.9317,-1.7805,-1.9767,-1.9248,-1.8561,-1.9617,-1.9411,-1.9227,-1.995,-1.9599,-1.9299,-1.9677,-1.9711,-1.9884,-2.0543,-2.0109,-1.9789,-2.0016,-1.9008,-1.8108,-1.7604,-1.6817,-1.6399,-1.6676,-1.6393,-1.6401,-1.688,-1.7527,-1.7928,-1.805,-1.7971,-1.7927,-1.7927,-1.8285,-1.8542,-1.8707,-1.8707,-1.8596,-1.8364,-1.832,-1.7762,-1.6709,-1.6696,-1.6473,-1.6067,-1.5885,-1.6011,-1.6371,-1.6371,-1.5691,-1.4622,-1.4818,-1.4034,-1.2811,-1.2811,-1.2446,-1.2075,-2.8989,-2.8667,-2.8176,-2.7619,-2.7754,-2.786,-2.7567,-2.7772,-2.7846,-2.7482,-2.7638,-2.7666,-2.7392,-2.7724,-2.7838,-2.7478,-2.8347,-2.8741,-2.8287,-2.8723,-2.897,-2.8923,-2.8503,-2.8036,-2.7518,-2.672,-2.6298,-2.6311,-2.5454,-2.4862,-2.4494,-2.3649,-2.3208,-2.3111,-2.2803,-2.3071,-2.375,-2.3721,-2.3678,-2.3611,-2.3453,-2.3319,-2.3199,-2.3128,-2.3016,-2.2877,-2.2678,-2.2603,-2.2449,-2.1518,-2.1273,-2.1168,-1.9965,-1.9722,-1.9738,-1.9005,-1.8292,-1.8038,-1.9576,-1.888,-1.7811,-1.8216,-1.854,-1.8614,-1.8039,-1.8747,-1.9404,-1.8943,-1.8967,-1.9204,-1.9641,-1.9346,-1.9301,-1.9974,-1.9854,-1.9707,-1.9662,-1.9118,-1.8375,-1.7348,-1.6803,-1.6404,-1.6129,-1.5636,-1.5618,-1.6279,-1.6961,-1.7168,-1.6829,-1.7512,-1.7892,-1.7855,-1.8507,-1.8912,-1.8988,-1.8988,-1.8804,-1.8396,-1.7998,-1.7415,-1.6697,-1.6323,-1.6111,-1.6095,-1.6011,-1.596,-1.5997,-1.6511,-1.5703,-1.4213,-1.4794,-1.41,-1.2829,-1.2944,-1.2836,-1.2706,-2.7382,-2.6935,-2.6451,-2.6311,-2.645,-2.6612,-2.6612,-2.6612,-2.6704,-2.6943,-2.6893,-2.6984,-2.7374,-2.7798,-2.7885,-2.7448,-2.8397,-2.8778,-2.8213,-2.8462,-2.8732,-2.8975,-2.8233,-2.7545,-2.6993,-2.5947,-2.5285,-2.502,-2.4228,-2.3657,-2.3306,-2.2739,-2.2574,-2.2733,-2.2733,-2.3151,-2.3876,-2.381,-2.3768,-2.3725,-2.3629,-2.3526,-2.344,-2.3385,-2.3295,-2.3165,-2.2815,-2.2684,-2.2579,-2.1807,-2.1658,-2.1566,-2.034,-1.9787,-1.956,-1.9281,-1.8535,-1.7919,-1.8432,-1.8231,-1.775,-1.7481,-1.7931,-1.8237,-1.7518,-1.8219,-1.8983,-1.8757,-1.8672,-1.88,-1.9291,-1.9016,-1.8852,-1.9301,-1.9555,-1.9617,-1.9413,-1.9126,-1.8513,-1.7502,-1.6884,-1.6383,-1.5929,-1.5287,-1.5134,-1.5782,-1.6449,-1.6694,-1.6481,-1.7359,-1.7925,-1.8036,-1.8483,-1.8863,-1.9273,-1.9213,-1.8863,-1.817,-1.7933,-1.7332,-1.6398,-1.6277,-1.618,-1.6207,-1.6234,-1.6224,-1.6176,-1.6491,-1.569,-1.43,-1.4644,-1.3985,-1.2869,-1.3071,-1.3042,-1.2958,-2.5957,-2.5671,-2.5443,-2.556,-2.6145,-2.6594,-2.6594,-2.6594,-2.6888,-2.7677,-2.7787,-2.8147,-2.9095,-2.9071,-2.9048,-2.9188,-2.9071,-2.8994,-2.8994,-2.8242,-2.8169,-2.8957,-2.8213,-2.7779,-2.7788,-2.6222,-2.5004,-2.4191,-2.3381,-2.2592,-2.1803,-2.1803,-2.2208,-2.2997,-2.2978,-2.3381,-2.3996,-2.3996,-2.3917,-2.3795,-2.3804,-2.3682,-2.3522,-2.3646,-2.3571,-2.336,-2.302,-2.2911,-2.284,-2.2456,-2.2077,-2.1665,-2.092,-1.9487,-1.8232,-1.8989,-1.821,-1.7133,-1.7257,-1.7248,-1.7346,-1.7935,-1.7396,-1.7077,-1.8495,-1.7924,-1.7685,-1.9672,-1.883,-1.7891,-1.8583,-1.8702,-1.8702,-1.8702,-1.9256,-1.9617,-1.9398,-1.8868,-1.842,-1.8229,-1.7073,-1.6303,-1.6303,-1.5538,-1.5149,-1.5492,-1.6018,-1.6661,-1.7441,-1.7685,-1.7999,-1.846,-1.8059,-1.8428,-1.9696,-1.9508,-1.8836,-1.7712,-1.8388,-1.7702,-1.5829,-1.6711,-1.6838,-1.6409,-1.6543,-1.6841,-1.7109,-1.6312,-1.5635,-1.5026,-1.4348,-1.3623,-1.2926,-1.3209,-1.2936,-1.254,-2.4817,-2.5316,-2.5574,-2.4764,-2.5393,-2.5987,-2.579,-2.585,-2.6147,-2.6872,-2.703,-2.7184,-2.7359,-2.7938,-2.827,-2.8224,-2.8691,-2.8994,-2.8994,-2.8242,-2.7912,-2.8155,-2.6838,-2.6389,-2.6956,-2.5369,-2.4154,-2.3363,-2.3125,-2.2593,-2.1788,-2.1181,-2.1639,-2.2997,-2.2409,-2.2887,-2.4113,-2.4036,-2.3976,-2.3937,-2.3837,-2.3831,-2.3843,-2.3735,-2.3696,-2.3608,-2.3092,-2.2909,-2.2856,-2.2451,-2.2135,-2.1795,-2.085,-1.9176,-1.7648,-1.8243,-1.7892,-1.7321,-1.7306,-1.7724,-1.8203,-1.8222,-1.8029,-1.7969,-1.8474,-1.864,-1.867,-1.8467,-1.8392,-1.8463,-1.8672,-1.8328,-1.8164,-1.8627,-1.8867,-1.8967,-1.8932,-1.9028,-1.8956,-1.8479,-1.7963,-1.7452,-1.7034,-1.6931,-1.6703,-1.6229,-1.6025,-1.6457,-1.767,-1.7956,-1.8127,-1.8277,-1.9206,-1.9443,-1.887,-1.9539,-1.95,-1.867,-1.859,-1.8053,-1.7127,-1.6763,-1.6651,-1.6716,-1.6253,-1.5927,-1.5709,-1.5626,-1.4837,-1.3743,-1.4199,-1.3899,-1.3226,-1.3527,-1.3546,-1.3432,-2.5122,-2.5492,-2.5712,-2.5039,-2.5686,-2.615,-2.5634,-2.5634,-2.6061,-2.7113,-2.7044,-2.712,-2.775,-2.8292,-2.8589,-2.8548,-2.8632,-2.8679,-2.8679,-2.7647,-2.7151,-2.7468,-2.5891,-2.5225,-2.5632,-2.4394,-2.3162,-2.2008,-2.2006,-2.1601,-2.0799,-2.0613,-2.1035,-2.2006,-2.1859,-2.2319,-2.3177,-2.3103,-2.3048,-2.3049,-2.2974,-2.3171,-2.3495,-2.3324,-2.3455,-2.3697,-2.3207,-2.297,-2.2858,-2.2524,-2.1832,-2.1094,-2.1044,-1.9285,-1.7461,-1.8418,-1.8094,-1.7401,-1.7417,-1.7797,-1.831,-1.879,-1.8536,-1.82,-1.8289,-1.8593,-1.876,-1.8331,-1.8485,-1.8702,-1.8702,-1.8455,-1.8338,-1.8642,-1.903,-1.9265,-1.9265,-1.9506,-1.9576,-1.9325,-1.8955,-1.8538,-1.8049,-1.7864,-1.7462,-1.668,-1.6487,-1.68,-1.7608,-1.7868,-1.8082,-1.8285,-1.9311,-1.9374,-1.8484,-1.9511,-1.946,-1.8423,-1.85,-1.8087,-1.7255,-1.7124,-1.7045,-1.6953,-1.6345,-1.6069,-1.6028,-1.5332,-1.4649,-1.4041,-1.4091,-1.3803,-1.3379,-1.3715,-1.3836,-1.3865,-2.6422,-2.6064,-2.5876,-2.5976,-2.6566,-2.6778,-2.6032,-2.5864,-2.6463,-2.8203,-2.768,-2.7753,-2.9399,-2.9495,-2.942,-2.9456,-2.8633,-2.8091,-2.8091,-2.6634,-2.6127,-2.6841,-2.5263,-2.4292,-2.4113,-2.3454,-2.2334,-2.0737,-2.0652,-2.0283,-1.9654,-2.0152,-2.0558,-2.0888,-2.151,-2.1771,-2.1714,-2.1716,-2.1662,-2.1589,-2.1589,-2.2027,-2.2663,-2.2526,-2.2955,-2.3545,-2.3218,-2.3015,-2.2852,-2.2586,-2.1305,-2.0013,-2.1147,-1.964,-1.7708,-1.9095,-1.8568,-1.7555,-1.7666,-1.7713,-1.8014,-1.9294,-1.8894,-1.8173,-1.82,-1.8167,-1.8312,-1.8893,-1.8906,-1.8777,-1.8751,-1.8906,-1.9007,-1.8771,-1.944,-1.9974,-2.0024,-2.007,-2.022,-2.046,-1.995,-1.9496,-1.9249,-1.8507,-1.7774,-1.7137,-1.7298,-1.7455,-1.7455,-1.7609,-1.7953,-1.8453,-1.8772,-1.8819,-1.8562,-1.9482,-1.9134,-1.7533,-1.8242,-1.7963,-1.6813,-1.7652,-1.7711,-1.7126,-1.6685,-1.6853,-1.726,-1.53,-1.483,-1.5196,-1.3991,-1.3477,-1.3478,-1.3803,-1.392,-1.3952,-2.686,-2.6522,-2.6143,-2.5957,-2.6261,-2.6617,-2.6868,-2.6446,-2.6911,-2.9115,-2.8736,-2.8342,-2.8593,-2.8668,-2.8407,-2.7661,-2.7382,-2.7252,-2.7252,-2.6247,-2.5708,-2.5912,-2.4838,-2.3934,-2.3271,-2.3713,-2.3506,-2.2609,-2.1885,-2.1799,-2.2308,-2.0439,-2.0988,-2.3508,-2.2311,-2.213,-2.2684,-2.2575,-2.2153,-2.1515,-2.1515,-2.1624,-2.1769,-2.1632,-2.2082,-2.2713,-2.2382,-2.2534,-2.2752,-2.1829,-2.114,-2.0559,-1.9662,-1.9352,-1.9243,-1.89,-1.8709,-1.8562,-1.8473,-1.8521,-1.8559,-1.8283,-1.8868,-1.9545,-1.9756,-1.9126,-1.8454,-1.8424,-1.8988,-1.9386,-1.9064,-1.8906,-1.8838,-1.9007,-1.8993,-1.9084,-1.9287,-1.9779,-2.022,-2.046,-2.0387,-2.026,-2.0193,-1.9557,-1.917,-1.9216,-1.8282,-1.7709,-1.7709,-1.7914,-1.8317,-1.9013,-1.9637,-1.9943,-1.9897,-2.0088,-1.9688,-1.8661,-1.8469,-1.831,-1.8244,-1.7765,-1.7533,-1.7446,-1.6775,-1.6268,-1.5821,-1.4879,-1.4241,-1.3853,-1.3711,-1.3652,-1.3667,-1.3952,-1.4054,-1.4054,-2.738,-2.7096,-2.6844,-2.6773,-2.689,-2.7077,-2.7386,-2.7129,-2.7485,-2.9118,-2.8658,-2.8116,-2.7951,-2.7985,-2.7803,-2.7274,-2.6862,-2.6618,-2.6618,-2.5799,-2.5286,-2.5224,-2.469,-2.4192,-2.3768,-2.4099,-2.3742,-2.2625,-2.2138,-2.2157,-2.2657,-2.1272,-2.1588,-2.3256,-2.2319,-2.2056,-2.2319,-2.2209,-2.1881,-2.1387,-2.1402,-2.1405,-2.1443,-2.174,-2.2096,-2.2429,-2.2633,-2.2803,-2.2781,-2.199,-2.1383,-2.0931,-2.0548,-2.0185,-1.9881,-1.9848,-1.9639,-1.9326,-1.8906,-1.8846,-1.8894,-1.8853,-1.9149,-1.9403,-1.94,-1.9257,-1.906,-1.8827,-1.9265,-1.9677,-1.9573,-1.958,-1.9546,-1.958,-1.9667,-1.9767,-1.9783,-2.0177,-2.0579,-2.086,-2.0893,-2.0811,-2.0712,-2.0082,-1.9751,-1.9876,-1.9007,-1.8471,-1.8471,-1.8566,-1.881,-1.92,-1.9916,-1.9965,-1.9252,-1.9592,-1.9248,-1.8257,-1.8355,-1.8311,-1.8141,-1.7405,-1.73,-1.7631,-1.6538,-1.6252,-1.6442,-1.5066,-1.4515,-1.4485,-1.393,-1.3743,-1.3818,-1.4026,-1.41,-1.4096,-2.7684,-2.7323,-2.7178,-2.7453,-2.7351,-2.7275,-2.7478,-2.7383,-2.7631,-2.8606,-2.8001,-2.7446,-2.7323,-2.7162,-2.7077,-2.7077,-2.6413,-2.5996,-2.5996,-2.5343,-2.4922,-2.4804,-2.4662,-2.4591,-2.4555,-2.4479,-2.3791,-2.2473,-2.2327,-2.2278,-2.2322,-2.2042,-2.199,-2.2129,-2.1912,-2.1668,-2.1407,-2.1352,-2.1207,-2.106,-2.0944,-2.0949,-2.1152,-2.1668,-2.187,-2.2007,-2.266,-2.2817,-2.2634,-2.2228,-2.1731,-2.1294,-2.1775,-2.1164,-2.042,-2.1015,-2.072,-2.0061,-1.9348,-1.9043,-1.9111,-1.9745,-1.9525,-1.9089,-1.896,-1.9406,-1.9782,-1.9594,-1.9694,-1.9889,-2.017,-2.0342,-2.0376,-2.0308,-2.063,-2.0844,-2.0695,-2.0733,-2.0895,-2.1293,-2.1309,-2.1166,-2.0847,-2.04,-2.0145,-2.0145,-1.9653,-1.9394,-1.9394,-1.9281,-1.9264,-1.9394,-1.9994,-1.9735,-1.8502,-1.9142,-1.8854,-1.7631,-1.8245,-1.8211,-1.7618,-1.7243,-1.7337,-1.7743,-1.6644,-1.6733,-1.7517,-1.555,-1.51,-1.552,-1.4221,-1.3803,-1.392,-1.4068,-1.4127,-1.4123,-2.7418,-2.6428,-2.5746,-2.6531,-2.6077,-2.5878,-2.6628,-2.6109,-2.6205,-2.783,-2.717,-2.6581,-2.6543,-2.5811,-2.5332,-2.5351,-2.5237,-2.5162,-2.5162,-2.495,-2.4813,-2.4809,-2.4673,-2.4549,-2.4444,-2.4512,-2.4519,-2.4422,-2.3618,-2.3244,-2.3276,-2.1765,-2.1502,-2.2238,-2.141,-2.0931,-2.0744,-2.0594,-2.0391,-2.0114,-1.9414,-1.956,-2.0101,-1.9519,-1.9735,-2.0323,-2.0443,-2.1062,-2.1819,-2.1472,-2.1701,-2.191,-2.0694,-2.1083,-2.1877,-2.1346,-2.1136,-2.0908,-2.0294,-1.9651,-1.9236,-1.9502,-1.9843,-2.0267,-2.0917,-2.0726,-2.0352,-2.0208,-2.0209,-2.033,-2.073,-2.0429,-2.0342,-2.0958,-2.0909,-2.0909,-2.123,-2.0666,-2.0536,-2.1446,-2.1419,-2.1051,-2.0439,-2.081,-2.1101,-2.1101,-2.0501,-2.0143,-2.0143,-1.9556,-1.9508,-2.0127,-2.0372,-2.0335,-2.0094,-2.0352,-1.9826,-1.8534,-1.8634,-1.8373,-1.7783,-1.8352,-1.8302,-1.7828,-1.8251,-1.7934,-1.7041,-1.6028,-1.5382,-1.4948,-1.4167,-1.3891,-1.392,-1.4119,-1.4203,-1.4198,-2.695,-2.6393,-2.6055,-2.6472,-2.5869,-2.5591,-2.6467,-2.6274,-2.6294,-2.7063,-2.679,-2.6301,-2.5746,-2.5279,-2.501,-2.501,-2.501,-2.501,-2.501,-2.4936,-2.4875,-2.4804,-2.4738,-2.4454,-2.3902,-2.4353,-2.4439,-2.4076,-2.4064,-2.3864,-2.3424,-2.266,-2.2248,-2.2164,-2.1712,-2.1388,-2.1187,-2.1495,-2.1241,-2.0673,-2.1206,-2.085,-2.0057,-2.0555,-2.043,-2.0089,-2.0731,-2.1272,-2.1715,-2.1786,-2.204,-2.2192,-2.1488,-2.1742,-2.2243,-2.1904,-2.1803,-2.1688,-2.113,-2.0735,-2.0525,-2.0721,-2.0958,-2.1312,-2.1962,-2.1888,-2.1541,-2.1019,-2.0735,-2.0648,-2.0861,-2.0795,-2.0828,-2.1135,-2.0938,-2.0886,-2.1244,-2.0708,-2.0559,-2.1337,-2.1016,-2.0774,-2.0855,-2.1147,-2.1309,-2.1309,-2.1034,-2.0902,-2.101,-2.0624,-2.0427,-2.0524,-2.0463,-2.0099,-1.9361,-1.9442,-1.9017,-1.8091,-1.8091,-1.7994,-1.7811,-1.7837,-1.7898,-1.7966,-1.7971,-1.7883,-1.7616,-1.6403,-1.5801,-1.5502,-1.4352,-1.3987,-1.4149,-1.427,-1.4344,-1.4386]}]]